<?xml version="1.0" encoding="UTF-8" standalone="no" ?>
<gpx xmlns="http://www.topografix.com/GPX/1/1" xmlns:xsi="http://www.w3.org/2001/XMLSchema-instance" xsi:schemaLocation="http://www.topografix.com/GPX/1/1 http://www.topografix.com/GPX/1/1/gpx.xsd" version="1.1" creator="VisuGPX - https://www.visugpx.com">
  <metadata>
    <name>R 023 Frébouchère</name>
  </metadata>
  <trk>
    <name><![CDATA[2013-03-01-01]]></name>
    <trkseg>
      <trkpt lat="46.44443" lon="-1.46763">
        <ele>27</ele>
        <time>2013-03-01T13:16:39Z</time>
      </trkpt>
      <trkpt lat="46.44446" lon="-1.46767">
        <ele>29.9</ele>
        <time>2013-03-01T13:16:50Z</time>
      </trkpt>
      <trkpt lat="46.44448" lon="-1.46771">
        <ele>28.9</ele>
        <time>2013-03-01T13:16:55Z</time>
      </trkpt>
      <trkpt lat="46.4445" lon="-1.46776">
        <ele>27.9</ele>
        <time>2013-03-01T13:17:01Z</time>
      </trkpt>
      <trkpt lat="46.44453" lon="-1.4678">
        <ele>27</ele>
        <time>2013-03-01T13:17:06Z</time>
      </trkpt>
      <trkpt lat="46.44457" lon="-1.46783">
        <ele>25.5</ele>
        <time>2013-03-01T13:17:12Z</time>
      </trkpt>
      <trkpt lat="46.44461" lon="-1.46785">
        <ele>24.4</ele>
        <time>2013-03-01T13:17:17Z</time>
      </trkpt>
      <trkpt lat="46.44466" lon="-1.46786">
        <ele>22.1</ele>
        <time>2013-03-01T13:17:25Z</time>
      </trkpt>
      <trkpt lat="46.4447" lon="-1.46787">
        <ele>20.3</ele>
        <time>2013-03-01T13:17:30Z</time>
      </trkpt>
      <trkpt lat="46.44471" lon="-1.46788">
        <ele>20</ele>
        <time>2013-03-01T13:17:31Z</time>
      </trkpt>
      <trkpt lat="46.44478" lon="-1.4679">
        <ele>17</ele>
        <time>2013-03-01T13:17:40Z</time>
      </trkpt>
      <trkpt lat="46.44482" lon="-1.46791">
        <ele>14.4</ele>
        <time>2013-03-01T13:17:46Z</time>
      </trkpt>
      <trkpt lat="46.44486" lon="-1.46792">
        <ele>12.1</ele>
        <time>2013-03-01T13:17:51Z</time>
      </trkpt>
      <trkpt lat="46.4449" lon="-1.46793">
        <ele>10.6</ele>
        <time>2013-03-01T13:17:55Z</time>
      </trkpt>
      <trkpt lat="46.44494" lon="-1.46794">
        <ele>8.6</ele>
        <time>2013-03-01T13:18:01Z</time>
      </trkpt>
      <trkpt lat="46.44498" lon="-1.46795">
        <ele>7</ele>
        <time>2013-03-01T13:18:05Z</time>
      </trkpt>
      <trkpt lat="46.44501" lon="-1.46795">
        <ele>6.5</ele>
        <time>2013-03-01T13:18:08Z</time>
      </trkpt>
      <trkpt lat="46.44505" lon="-1.46797">
        <ele>6.7</ele>
        <time>2013-03-01T13:18:11Z</time>
      </trkpt>
      <trkpt lat="46.44509" lon="-1.46798">
        <ele>7.5</ele>
        <time>2013-03-01T13:18:15Z</time>
      </trkpt>
      <trkpt lat="46.44512" lon="-1.46799">
        <ele>7.8</ele>
        <time>2013-03-01T13:18:17Z</time>
      </trkpt>
      <trkpt lat="46.44516" lon="-1.468">
        <ele>8.5</ele>
        <time>2013-03-01T13:18:20Z</time>
      </trkpt>
      <trkpt lat="46.4452" lon="-1.46801">
        <ele>9.1</ele>
        <time>2013-03-01T13:18:23Z</time>
      </trkpt>
      <trkpt lat="46.44523" lon="-1.46802">
        <ele>9.7</ele>
        <time>2013-03-01T13:18:26Z</time>
      </trkpt>
      <trkpt lat="46.44527" lon="-1.46802">
        <ele>10</ele>
        <time>2013-03-01T13:18:28Z</time>
      </trkpt>
      <trkpt lat="46.4453" lon="-1.46803">
        <ele>10.7</ele>
        <time>2013-03-01T13:18:31Z</time>
      </trkpt>
      <trkpt lat="46.44531" lon="-1.46803">
        <ele>10.9</ele>
        <time>2013-03-01T13:18:32Z</time>
      </trkpt>
      <trkpt lat="46.44538" lon="-1.46804">
        <ele>11.9</ele>
        <time>2013-03-01T13:18:37Z</time>
      </trkpt>
      <trkpt lat="46.44542" lon="-1.46804">
        <ele>12.3</ele>
        <time>2013-03-01T13:18:40Z</time>
      </trkpt>
      <trkpt lat="46.44545" lon="-1.46804">
        <ele>12.4</ele>
        <time>2013-03-01T13:18:42Z</time>
      </trkpt>
      <trkpt lat="46.44549" lon="-1.46804">
        <ele>12.6</ele>
        <time>2013-03-01T13:18:44Z</time>
      </trkpt>
      <trkpt lat="46.44552" lon="-1.46804">
        <ele>12.8</ele>
        <time>2013-03-01T13:18:46Z</time>
      </trkpt>
      <trkpt lat="46.44555" lon="-1.46804">
        <ele>13.1</ele>
        <time>2013-03-01T13:18:48Z</time>
      </trkpt>
      <trkpt lat="46.44558" lon="-1.46803">
        <ele>13.3</ele>
        <time>2013-03-01T13:18:50Z</time>
      </trkpt>
      <trkpt lat="46.44561" lon="-1.46803">
        <ele>13.3</ele>
        <time>2013-03-01T13:18:52Z</time>
      </trkpt>
      <trkpt lat="46.44561" lon="-1.46803">
        <ele>13.3</ele>
        <time>2013-03-01T13:18:52Z</time>
      </trkpt>
      <trkpt lat="46.44566" lon="-1.46802">
        <ele>12.8</ele>
        <time>2013-03-01T13:18:55Z</time>
      </trkpt>
      <trkpt lat="46.44569" lon="-1.46802">
        <ele>12.2</ele>
        <time>2013-03-01T13:18:57Z</time>
      </trkpt>
      <trkpt lat="46.44572" lon="-1.46801">
        <ele>11.7</ele>
        <time>2013-03-01T13:18:59Z</time>
      </trkpt>
      <trkpt lat="46.44575" lon="-1.46801">
        <ele>11.4</ele>
        <time>2013-03-01T13:19:01Z</time>
      </trkpt>
      <trkpt lat="46.44579" lon="-1.468">
        <ele>11.3</ele>
        <time>2013-03-01T13:19:04Z</time>
      </trkpt>
      <trkpt lat="46.44582" lon="-1.468">
        <ele>11.2</ele>
        <time>2013-03-01T13:19:06Z</time>
      </trkpt>
      <trkpt lat="46.44586" lon="-1.46799">
        <ele>11</ele>
        <time>2013-03-01T13:19:09Z</time>
      </trkpt>
      <trkpt lat="46.4459" lon="-1.46798">
        <ele>10.6</ele>
        <time>2013-03-01T13:19:12Z</time>
      </trkpt>
      <trkpt lat="46.44593" lon="-1.46798">
        <ele>10.4</ele>
        <time>2013-03-01T13:19:14Z</time>
      </trkpt>
      <trkpt lat="46.44597" lon="-1.46798">
        <ele>10.3</ele>
        <time>2013-03-01T13:19:16Z</time>
      </trkpt>
      <trkpt lat="46.44601" lon="-1.46797">
        <ele>10.4</ele>
        <time>2013-03-01T13:19:19Z</time>
      </trkpt>
      <trkpt lat="46.44605" lon="-1.46796">
        <ele>10.5</ele>
        <time>2013-03-01T13:19:22Z</time>
      </trkpt>
      <trkpt lat="46.44609" lon="-1.46795">
        <ele>10.9</ele>
        <time>2013-03-01T13:19:25Z</time>
      </trkpt>
      <trkpt lat="46.44613" lon="-1.46795">
        <ele>11.6</ele>
        <time>2013-03-01T13:19:28Z</time>
      </trkpt>
      <trkpt lat="46.44617" lon="-1.46794">
        <ele>12.7</ele>
        <time>2013-03-01T13:19:31Z</time>
      </trkpt>
      <trkpt lat="46.44621" lon="-1.46793">
        <ele>13.6</ele>
        <time>2013-03-01T13:19:34Z</time>
      </trkpt>
      <trkpt lat="46.44622" lon="-1.46793">
        <ele>13.8</ele>
        <time>2013-03-01T13:19:35Z</time>
      </trkpt>
      <trkpt lat="46.44628" lon="-1.46791">
        <ele>14.9</ele>
        <time>2013-03-01T13:19:40Z</time>
      </trkpt>
      <trkpt lat="46.44632" lon="-1.46791">
        <ele>15.6</ele>
        <time>2013-03-01T13:19:43Z</time>
      </trkpt>
      <trkpt lat="46.44635" lon="-1.4679">
        <ele>16.1</ele>
        <time>2013-03-01T13:19:46Z</time>
      </trkpt>
      <trkpt lat="46.44639" lon="-1.46789">
        <ele>16.4</ele>
        <time>2013-03-01T13:19:49Z</time>
      </trkpt>
      <trkpt lat="46.44643" lon="-1.46788">
        <ele>16.8</ele>
        <time>2013-03-01T13:19:52Z</time>
      </trkpt>
      <trkpt lat="46.44647" lon="-1.46787">
        <ele>17.1</ele>
        <time>2013-03-01T13:19:55Z</time>
      </trkpt>
      <trkpt lat="46.44651" lon="-1.46786">
        <ele>17.4</ele>
        <time>2013-03-01T13:19:59Z</time>
      </trkpt>
      <trkpt lat="46.44654" lon="-1.46784">
        <ele>17.6</ele>
        <time>2013-03-01T13:20:02Z</time>
      </trkpt>
      <trkpt lat="46.44658" lon="-1.46782">
        <ele>17.8</ele>
        <time>2013-03-01T13:20:06Z</time>
      </trkpt>
      <trkpt lat="46.44662" lon="-1.46781">
        <ele>17.7</ele>
        <time>2013-03-01T13:20:09Z</time>
      </trkpt>
      <trkpt lat="46.44665" lon="-1.4678">
        <ele>17.7</ele>
        <time>2013-03-01T13:20:12Z</time>
      </trkpt>
      <trkpt lat="46.44668" lon="-1.46778">
        <ele>17.7</ele>
        <time>2013-03-01T13:20:15Z</time>
      </trkpt>
      <trkpt lat="46.44672" lon="-1.46778">
        <ele>17.8</ele>
        <time>2013-03-01T13:20:18Z</time>
      </trkpt>
      <trkpt lat="46.44676" lon="-1.46776">
        <ele>17.7</ele>
        <time>2013-03-01T13:20:21Z</time>
      </trkpt>
      <trkpt lat="46.4468" lon="-1.46775">
        <ele>17.4</ele>
        <time>2013-03-01T13:20:24Z</time>
      </trkpt>
      <trkpt lat="46.44684" lon="-1.46774">
        <ele>17</ele>
        <time>2013-03-01T13:20:27Z</time>
      </trkpt>
      <trkpt lat="46.44687" lon="-1.46773">
        <ele>16.7</ele>
        <time>2013-03-01T13:20:30Z</time>
      </trkpt>
      <trkpt lat="46.44691" lon="-1.46772">
        <ele>16.5</ele>
        <time>2013-03-01T13:20:33Z</time>
      </trkpt>
      <trkpt lat="46.44695" lon="-1.46771">
        <ele>16.4</ele>
        <time>2013-03-01T13:20:36Z</time>
      </trkpt>
      <trkpt lat="46.44696" lon="-1.4677">
        <ele>16.5</ele>
        <time>2013-03-01T13:20:37Z</time>
      </trkpt>
      <trkpt lat="46.44702" lon="-1.46769">
        <ele>16.4</ele>
        <time>2013-03-01T13:20:42Z</time>
      </trkpt>
      <trkpt lat="46.44707" lon="-1.46769">
        <ele>16.1</ele>
        <time>2013-03-01T13:20:45Z</time>
      </trkpt>
      <trkpt lat="46.4471" lon="-1.46768">
        <ele>16</ele>
        <time>2013-03-01T13:20:48Z</time>
      </trkpt>
      <trkpt lat="46.44714" lon="-1.46767">
        <ele>16.2</ele>
        <time>2013-03-01T13:20:51Z</time>
      </trkpt>
      <trkpt lat="46.44719" lon="-1.46767">
        <ele>16.9</ele>
        <time>2013-03-01T13:20:54Z</time>
      </trkpt>
      <trkpt lat="46.44722" lon="-1.46767">
        <ele>17.9</ele>
        <time>2013-03-01T13:20:57Z</time>
      </trkpt>
      <trkpt lat="46.44727" lon="-1.46766">
        <ele>18.6</ele>
        <time>2013-03-01T13:21:01Z</time>
      </trkpt>
      <trkpt lat="46.44731" lon="-1.46766">
        <ele>19</ele>
        <time>2013-03-01T13:21:05Z</time>
      </trkpt>
      <trkpt lat="46.44734" lon="-1.46765">
        <ele>18.9</ele>
        <time>2013-03-01T13:21:09Z</time>
      </trkpt>
      <trkpt lat="46.44738" lon="-1.46766">
        <ele>18</ele>
        <time>2013-03-01T13:21:13Z</time>
      </trkpt>
      <trkpt lat="46.44742" lon="-1.46766">
        <ele>17.2</ele>
        <time>2013-03-01T13:21:16Z</time>
      </trkpt>
      <trkpt lat="46.44745" lon="-1.46766">
        <ele>16.6</ele>
        <time>2013-03-01T13:21:19Z</time>
      </trkpt>
      <trkpt lat="46.44749" lon="-1.46766">
        <ele>16</ele>
        <time>2013-03-01T13:21:22Z</time>
      </trkpt>
      <trkpt lat="46.44752" lon="-1.46767">
        <ele>15.7</ele>
        <time>2013-03-01T13:21:24Z</time>
      </trkpt>
      <trkpt lat="46.44756" lon="-1.46768">
        <ele>15.4</ele>
        <time>2013-03-01T13:21:27Z</time>
      </trkpt>
      <trkpt lat="46.44759" lon="-1.46767">
        <ele>14.8</ele>
        <time>2013-03-01T13:21:30Z</time>
      </trkpt>
      <trkpt lat="46.44763" lon="-1.46767">
        <ele>14.4</ele>
        <time>2013-03-01T13:21:33Z</time>
      </trkpt>
      <trkpt lat="46.44768" lon="-1.46766">
        <ele>14.4</ele>
        <time>2013-03-01T13:21:36Z</time>
      </trkpt>
      <trkpt lat="46.44772" lon="-1.46766">
        <ele>14.6</ele>
        <time>2013-03-01T13:21:39Z</time>
      </trkpt>
      <trkpt lat="46.44773" lon="-1.46766">
        <ele>14.7</ele>
        <time>2013-03-01T13:21:40Z</time>
      </trkpt>
      <trkpt lat="46.44779" lon="-1.46766">
        <ele>14.5</ele>
        <time>2013-03-01T13:21:44Z</time>
      </trkpt>
      <trkpt lat="46.44783" lon="-1.46766">
        <ele>14.2</ele>
        <time>2013-03-01T13:21:47Z</time>
      </trkpt>
      <trkpt lat="46.44788" lon="-1.46766">
        <ele>13.6</ele>
        <time>2013-03-01T13:21:50Z</time>
      </trkpt>
      <trkpt lat="46.44792" lon="-1.46766">
        <ele>12.5</ele>
        <time>2013-03-01T13:21:53Z</time>
      </trkpt>
      <trkpt lat="46.44795" lon="-1.46766">
        <ele>11.5</ele>
        <time>2013-03-01T13:21:56Z</time>
      </trkpt>
      <trkpt lat="46.448" lon="-1.46766">
        <ele>10.7</ele>
        <time>2013-03-01T13:22:00Z</time>
      </trkpt>
      <trkpt lat="46.44804" lon="-1.46766">
        <ele>10.6</ele>
        <time>2013-03-01T13:22:04Z</time>
      </trkpt>
      <trkpt lat="46.44808" lon="-1.46766">
        <ele>11.2</ele>
        <time>2013-03-01T13:22:08Z</time>
      </trkpt>
      <trkpt lat="46.44813" lon="-1.46765">
        <ele>11.8</ele>
        <time>2013-03-01T13:22:12Z</time>
      </trkpt>
      <trkpt lat="46.44816" lon="-1.46764">
        <ele>12.4</ele>
        <time>2013-03-01T13:22:15Z</time>
      </trkpt>
      <trkpt lat="46.44819" lon="-1.46764">
        <ele>12.7</ele>
        <time>2013-03-01T13:22:18Z</time>
      </trkpt>
      <trkpt lat="46.44823" lon="-1.46764">
        <ele>12.6</ele>
        <time>2013-03-01T13:22:21Z</time>
      </trkpt>
      <trkpt lat="46.44827" lon="-1.46764">
        <ele>12.1</ele>
        <time>2013-03-01T13:22:25Z</time>
      </trkpt>
      <trkpt lat="46.44831" lon="-1.46763">
        <ele>11.5</ele>
        <time>2013-03-01T13:22:29Z</time>
      </trkpt>
      <trkpt lat="46.44834" lon="-1.46763">
        <ele>11</ele>
        <time>2013-03-01T13:22:32Z</time>
      </trkpt>
      <trkpt lat="46.44838" lon="-1.46763">
        <ele>10.6</ele>
        <time>2013-03-01T13:22:35Z</time>
      </trkpt>
      <trkpt lat="46.44842" lon="-1.46763">
        <ele>10</ele>
        <time>2013-03-01T13:22:39Z</time>
      </trkpt>
      <trkpt lat="46.44846" lon="-1.46763">
        <ele>9.5</ele>
        <time>2013-03-01T13:22:43Z</time>
      </trkpt>
      <trkpt lat="46.44847" lon="-1.46763">
        <ele>9.4</ele>
        <time>2013-03-01T13:22:44Z</time>
      </trkpt>
      <trkpt lat="46.44854" lon="-1.46762">
        <ele>9.1</ele>
        <time>2013-03-01T13:22:52Z</time>
      </trkpt>
      <trkpt lat="46.44858" lon="-1.46762">
        <ele>9.3</ele>
        <time>2013-03-01T13:22:56Z</time>
      </trkpt>
      <trkpt lat="46.44862" lon="-1.46761">
        <ele>9.7</ele>
        <time>2013-03-01T13:23:00Z</time>
      </trkpt>
      <trkpt lat="46.44866" lon="-1.46761">
        <ele>10.2</ele>
        <time>2013-03-01T13:23:04Z</time>
      </trkpt>
      <trkpt lat="46.44871" lon="-1.46761">
        <ele>10.9</ele>
        <time>2013-03-01T13:23:08Z</time>
      </trkpt>
      <trkpt lat="46.44875" lon="-1.46761">
        <ele>11.3</ele>
        <time>2013-03-01T13:23:12Z</time>
      </trkpt>
      <trkpt lat="46.44879" lon="-1.46761">
        <ele>10.9</ele>
        <time>2013-03-01T13:23:17Z</time>
      </trkpt>
      <trkpt lat="46.44884" lon="-1.4676">
        <ele>10.4</ele>
        <time>2013-03-01T13:23:21Z</time>
      </trkpt>
      <trkpt lat="46.44888" lon="-1.4676">
        <ele>10</ele>
        <time>2013-03-01T13:23:25Z</time>
      </trkpt>
      <trkpt lat="46.44891" lon="-1.46761">
        <ele>9.9</ele>
        <time>2013-03-01T13:23:28Z</time>
      </trkpt>
      <trkpt lat="46.44895" lon="-1.46761">
        <ele>9.7</ele>
        <time>2013-03-01T13:23:31Z</time>
      </trkpt>
      <trkpt lat="46.44899" lon="-1.46761">
        <ele>9</ele>
        <time>2013-03-01T13:23:35Z</time>
      </trkpt>
      <trkpt lat="46.44903" lon="-1.46761">
        <ele>8.7</ele>
        <time>2013-03-01T13:23:38Z</time>
      </trkpt>
      <trkpt lat="46.44906" lon="-1.4676">
        <ele>8.8</ele>
        <time>2013-03-01T13:23:41Z</time>
      </trkpt>
      <trkpt lat="46.4491" lon="-1.4676">
        <ele>9.3</ele>
        <time>2013-03-01T13:23:44Z</time>
      </trkpt>
      <trkpt lat="46.44912" lon="-1.4676">
        <ele>9.5</ele>
        <time>2013-03-01T13:23:45Z</time>
      </trkpt>
      <trkpt lat="46.44918" lon="-1.46761">
        <ele>10</ele>
        <time>2013-03-01T13:23:50Z</time>
      </trkpt>
      <trkpt lat="46.44922" lon="-1.4676">
        <ele>10.2</ele>
        <time>2013-03-01T13:23:54Z</time>
      </trkpt>
      <trkpt lat="46.44925" lon="-1.4676">
        <ele>10.2</ele>
        <time>2013-03-01T13:23:57Z</time>
      </trkpt>
      <trkpt lat="46.44929" lon="-1.4676">
        <ele>10.4</ele>
        <time>2013-03-01T13:24:00Z</time>
      </trkpt>
      <trkpt lat="46.44933" lon="-1.46761">
        <ele>10.6</ele>
        <time>2013-03-01T13:24:03Z</time>
      </trkpt>
      <trkpt lat="46.44937" lon="-1.46761">
        <ele>10.9</ele>
        <time>2013-03-01T13:24:06Z</time>
      </trkpt>
      <trkpt lat="46.44941" lon="-1.46761">
        <ele>12.2</ele>
        <time>2013-03-01T13:24:09Z</time>
      </trkpt>
      <trkpt lat="46.44944" lon="-1.4676">
        <ele>15</ele>
        <time>2013-03-01T13:24:12Z</time>
      </trkpt>
      <trkpt lat="46.44948" lon="-1.4676">
        <ele>15.3</ele>
        <time>2013-03-01T13:24:15Z</time>
      </trkpt>
      <trkpt lat="46.44952" lon="-1.4676">
        <ele>15.6</ele>
        <time>2013-03-01T13:24:18Z</time>
      </trkpt>
      <trkpt lat="46.44956" lon="-1.4676">
        <ele>15.2</ele>
        <time>2013-03-01T13:24:21Z</time>
      </trkpt>
      <trkpt lat="46.4496" lon="-1.4676">
        <ele>15.6</ele>
        <time>2013-03-01T13:24:24Z</time>
      </trkpt>
      <trkpt lat="46.44963" lon="-1.4676">
        <ele>16</ele>
        <time>2013-03-01T13:24:27Z</time>
      </trkpt>
      <trkpt lat="46.44967" lon="-1.4676">
        <ele>15.9</ele>
        <time>2013-03-01T13:24:30Z</time>
      </trkpt>
      <trkpt lat="46.4497" lon="-1.46759">
        <ele>15.9</ele>
        <time>2013-03-01T13:24:33Z</time>
      </trkpt>
      <trkpt lat="46.44974" lon="-1.46758">
        <ele>15.3</ele>
        <time>2013-03-01T13:24:36Z</time>
      </trkpt>
      <trkpt lat="46.44978" lon="-1.46757">
        <ele>15.1</ele>
        <time>2013-03-01T13:24:39Z</time>
      </trkpt>
      <trkpt lat="46.44982" lon="-1.46755">
        <ele>15.4</ele>
        <time>2013-03-01T13:24:42Z</time>
      </trkpt>
      <trkpt lat="46.44986" lon="-1.46754">
        <ele>15.3</ele>
        <time>2013-03-01T13:24:45Z</time>
      </trkpt>
      <trkpt lat="46.44987" lon="-1.46753">
        <ele>15.7</ele>
        <time>2013-03-01T13:24:46Z</time>
      </trkpt>
      <trkpt lat="46.44993" lon="-1.46749">
        <ele>15.6</ele>
        <time>2013-03-01T13:24:51Z</time>
      </trkpt>
      <trkpt lat="46.44997" lon="-1.46748">
        <ele>15.8</ele>
        <time>2013-03-01T13:24:54Z</time>
      </trkpt>
      <trkpt lat="46.45" lon="-1.46746">
        <ele>15.6</ele>
        <time>2013-03-01T13:24:57Z</time>
      </trkpt>
      <trkpt lat="46.45003" lon="-1.46744">
        <ele>15.7</ele>
        <time>2013-03-01T13:25:00Z</time>
      </trkpt>
      <trkpt lat="46.45007" lon="-1.46743">
        <ele>16.4</ele>
        <time>2013-03-01T13:25:03Z</time>
      </trkpt>
      <trkpt lat="46.45011" lon="-1.4674">
        <ele>16</ele>
        <time>2013-03-01T13:25:06Z</time>
      </trkpt>
      <trkpt lat="46.45014" lon="-1.46738">
        <ele>16.2</ele>
        <time>2013-03-01T13:25:09Z</time>
      </trkpt>
      <trkpt lat="46.45018" lon="-1.46736">
        <ele>16.6</ele>
        <time>2013-03-01T13:25:12Z</time>
      </trkpt>
      <trkpt lat="46.45022" lon="-1.46733">
        <ele>16.2</ele>
        <time>2013-03-01T13:25:15Z</time>
      </trkpt>
      <trkpt lat="46.45025" lon="-1.4673">
        <ele>16</ele>
        <time>2013-03-01T13:25:18Z</time>
      </trkpt>
      <trkpt lat="46.45028" lon="-1.46727">
        <ele>16.4</ele>
        <time>2013-03-01T13:25:21Z</time>
      </trkpt>
      <trkpt lat="46.45032" lon="-1.46725">
        <ele>16.8</ele>
        <time>2013-03-01T13:25:24Z</time>
      </trkpt>
      <trkpt lat="46.45035" lon="-1.46722">
        <ele>16.9</ele>
        <time>2013-03-01T13:25:27Z</time>
      </trkpt>
      <trkpt lat="46.45039" lon="-1.46719">
        <ele>16.4</ele>
        <time>2013-03-01T13:25:30Z</time>
      </trkpt>
      <trkpt lat="46.45042" lon="-1.46717">
        <ele>16.5</ele>
        <time>2013-03-01T13:25:33Z</time>
      </trkpt>
      <trkpt lat="46.45046" lon="-1.46714">
        <ele>16.4</ele>
        <time>2013-03-01T13:25:36Z</time>
      </trkpt>
      <trkpt lat="46.45049" lon="-1.46711">
        <ele>16.4</ele>
        <time>2013-03-01T13:25:39Z</time>
      </trkpt>
      <trkpt lat="46.45053" lon="-1.46708">
        <ele>16.3</ele>
        <time>2013-03-01T13:25:42Z</time>
      </trkpt>
      <trkpt lat="46.45057" lon="-1.46706">
        <ele>17</ele>
        <time>2013-03-01T13:25:46Z</time>
      </trkpt>
      <trkpt lat="46.45058" lon="-1.46705">
        <ele>17.2</ele>
        <time>2013-03-01T13:25:47Z</time>
      </trkpt>
      <trkpt lat="46.45063" lon="-1.46701">
        <ele>17</ele>
        <time>2013-03-01T13:25:52Z</time>
      </trkpt>
      <trkpt lat="46.45067" lon="-1.46699">
        <ele>17.5</ele>
        <time>2013-03-01T13:25:55Z</time>
      </trkpt>
      <trkpt lat="46.4507" lon="-1.46696">
        <ele>17.7</ele>
        <time>2013-03-01T13:25:58Z</time>
      </trkpt>
      <trkpt lat="46.45073" lon="-1.46694">
        <ele>17.4</ele>
        <time>2013-03-01T13:26:01Z</time>
      </trkpt>
      <trkpt lat="46.45077" lon="-1.46691">
        <ele>17.7</ele>
        <time>2013-03-01T13:26:04Z</time>
      </trkpt>
      <trkpt lat="46.45081" lon="-1.46689">
        <ele>17.5</ele>
        <time>2013-03-01T13:26:07Z</time>
      </trkpt>
      <trkpt lat="46.45084" lon="-1.46687">
        <ele>17.4</ele>
        <time>2013-03-01T13:26:10Z</time>
      </trkpt>
      <trkpt lat="46.45088" lon="-1.46685">
        <ele>17.6</ele>
        <time>2013-03-01T13:26:13Z</time>
      </trkpt>
      <trkpt lat="46.45091" lon="-1.46683">
        <ele>17.6</ele>
        <time>2013-03-01T13:26:16Z</time>
      </trkpt>
      <trkpt lat="46.45094" lon="-1.4668">
        <ele>17.9</ele>
        <time>2013-03-01T13:26:19Z</time>
      </trkpt>
      <trkpt lat="46.45098" lon="-1.46677">
        <ele>17.8</ele>
        <time>2013-03-01T13:26:22Z</time>
      </trkpt>
      <trkpt lat="46.45101" lon="-1.46675">
        <ele>17.6</ele>
        <time>2013-03-01T13:26:25Z</time>
      </trkpt>
      <trkpt lat="46.45105" lon="-1.46672">
        <ele>18.1</ele>
        <time>2013-03-01T13:26:28Z</time>
      </trkpt>
      <trkpt lat="46.45109" lon="-1.46669">
        <ele>17.9</ele>
        <time>2013-03-01T13:26:31Z</time>
      </trkpt>
      <trkpt lat="46.45112" lon="-1.46667">
        <ele>18</ele>
        <time>2013-03-01T13:26:34Z</time>
      </trkpt>
      <trkpt lat="46.45116" lon="-1.46665">
        <ele>18</ele>
        <time>2013-03-01T13:26:37Z</time>
      </trkpt>
      <trkpt lat="46.4512" lon="-1.46662">
        <ele>17.9</ele>
        <time>2013-03-01T13:26:40Z</time>
      </trkpt>
      <trkpt lat="46.45123" lon="-1.4666">
        <ele>18</ele>
        <time>2013-03-01T13:26:43Z</time>
      </trkpt>
      <trkpt lat="46.45127" lon="-1.46657">
        <ele>17.8</ele>
        <time>2013-03-01T13:26:47Z</time>
      </trkpt>
      <trkpt lat="46.45128" lon="-1.46657">
        <ele>17.7</ele>
        <time>2013-03-01T13:26:48Z</time>
      </trkpt>
      <trkpt lat="46.45134" lon="-1.46652">
        <ele>18.7</ele>
        <time>2013-03-01T13:26:53Z</time>
      </trkpt>
      <trkpt lat="46.45138" lon="-1.46649">
        <ele>18.4</ele>
        <time>2013-03-01T13:26:56Z</time>
      </trkpt>
      <trkpt lat="46.45142" lon="-1.46647">
        <ele>18.7</ele>
        <time>2013-03-01T13:26:59Z</time>
      </trkpt>
      <trkpt lat="46.45145" lon="-1.46644">
        <ele>19</ele>
        <time>2013-03-01T13:27:02Z</time>
      </trkpt>
      <trkpt lat="46.45148" lon="-1.46642">
        <ele>19.1</ele>
        <time>2013-03-01T13:27:05Z</time>
      </trkpt>
      <trkpt lat="46.45151" lon="-1.46639">
        <ele>19.2</ele>
        <time>2013-03-01T13:27:08Z</time>
      </trkpt>
      <trkpt lat="46.45155" lon="-1.46637">
        <ele>19.2</ele>
        <time>2013-03-01T13:27:11Z</time>
      </trkpt>
      <trkpt lat="46.45158" lon="-1.46634">
        <ele>20</ele>
        <time>2013-03-01T13:27:14Z</time>
      </trkpt>
      <trkpt lat="46.45162" lon="-1.46631">
        <ele>20.3</ele>
        <time>2013-03-01T13:27:18Z</time>
      </trkpt>
      <trkpt lat="46.45165" lon="-1.46628">
        <ele>20</ele>
        <time>2013-03-01T13:27:21Z</time>
      </trkpt>
      <trkpt lat="46.45169" lon="-1.46626">
        <ele>19.2</ele>
        <time>2013-03-01T13:27:24Z</time>
      </trkpt>
      <trkpt lat="46.45173" lon="-1.46623">
        <ele>19.7</ele>
        <time>2013-03-01T13:27:27Z</time>
      </trkpt>
      <trkpt lat="46.45176" lon="-1.46621">
        <ele>19.8</ele>
        <time>2013-03-01T13:27:30Z</time>
      </trkpt>
      <trkpt lat="46.4518" lon="-1.46619">
        <ele>20</ele>
        <time>2013-03-01T13:27:33Z</time>
      </trkpt>
      <trkpt lat="46.45183" lon="-1.46616">
        <ele>19.8</ele>
        <time>2013-03-01T13:27:36Z</time>
      </trkpt>
      <trkpt lat="46.45186" lon="-1.46614">
        <ele>19.3</ele>
        <time>2013-03-01T13:27:39Z</time>
      </trkpt>
      <trkpt lat="46.4519" lon="-1.46613">
        <ele>19.5</ele>
        <time>2013-03-01T13:27:42Z</time>
      </trkpt>
      <trkpt lat="46.45194" lon="-1.46611">
        <ele>20.2</ele>
        <time>2013-03-01T13:27:45Z</time>
      </trkpt>
      <trkpt lat="46.45198" lon="-1.46609">
        <ele>20.1</ele>
        <time>2013-03-01T13:27:48Z</time>
      </trkpt>
      <trkpt lat="46.45199" lon="-1.46608">
        <ele>20.2</ele>
        <time>2013-03-01T13:27:49Z</time>
      </trkpt>
      <trkpt lat="46.45204" lon="-1.46605">
        <ele>20.7</ele>
        <time>2013-03-01T13:27:54Z</time>
      </trkpt>
      <trkpt lat="46.45208" lon="-1.46605">
        <ele>20.5</ele>
        <time>2013-03-01T13:27:57Z</time>
      </trkpt>
      <trkpt lat="46.45212" lon="-1.46604">
        <ele>20.7</ele>
        <time>2013-03-01T13:28:00Z</time>
      </trkpt>
      <trkpt lat="46.45216" lon="-1.46603">
        <ele>20.7</ele>
        <time>2013-03-01T13:28:03Z</time>
      </trkpt>
      <trkpt lat="46.4522" lon="-1.466">
        <ele>20.9</ele>
        <time>2013-03-01T13:28:07Z</time>
      </trkpt>
      <trkpt lat="46.45224" lon="-1.46599">
        <ele>21.3</ele>
        <time>2013-03-01T13:28:10Z</time>
      </trkpt>
      <trkpt lat="46.45227" lon="-1.46598">
        <ele>21</ele>
        <time>2013-03-01T13:28:13Z</time>
      </trkpt>
      <trkpt lat="46.4523" lon="-1.46597">
        <ele>20.7</ele>
        <time>2013-03-01T13:28:16Z</time>
      </trkpt>
      <trkpt lat="46.45234" lon="-1.46595">
        <ele>21</ele>
        <time>2013-03-01T13:28:19Z</time>
      </trkpt>
      <trkpt lat="46.45238" lon="-1.46594">
        <ele>20.8</ele>
        <time>2013-03-01T13:28:22Z</time>
      </trkpt>
      <trkpt lat="46.45242" lon="-1.46593">
        <ele>20.9</ele>
        <time>2013-03-01T13:28:25Z</time>
      </trkpt>
      <trkpt lat="46.45245" lon="-1.46593">
        <ele>21.1</ele>
        <time>2013-03-01T13:28:28Z</time>
      </trkpt>
      <trkpt lat="46.45249" lon="-1.46592">
        <ele>21</ele>
        <time>2013-03-01T13:28:31Z</time>
      </trkpt>
      <trkpt lat="46.45252" lon="-1.46591">
        <ele>20.9</ele>
        <time>2013-03-01T13:28:34Z</time>
      </trkpt>
      <trkpt lat="46.45256" lon="-1.4659">
        <ele>21.3</ele>
        <time>2013-03-01T13:28:38Z</time>
      </trkpt>
      <trkpt lat="46.4526" lon="-1.46588">
        <ele>20.9</ele>
        <time>2013-03-01T13:28:42Z</time>
      </trkpt>
      <trkpt lat="46.45264" lon="-1.46587">
        <ele>21.5</ele>
        <time>2013-03-01T13:28:46Z</time>
      </trkpt>
      <trkpt lat="46.45269" lon="-1.46585">
        <ele>22</ele>
        <time>2013-03-01T13:28:50Z</time>
      </trkpt>
      <trkpt lat="46.4527" lon="-1.46585">
        <ele>22</ele>
        <time>2013-03-01T13:28:51Z</time>
      </trkpt>
      <trkpt lat="46.45276" lon="-1.46583">
        <ele>21.7</ele>
        <time>2013-03-01T13:28:56Z</time>
      </trkpt>
      <trkpt lat="46.45279" lon="-1.46582">
        <ele>22.5</ele>
        <time>2013-03-01T13:28:59Z</time>
      </trkpt>
      <trkpt lat="46.45283" lon="-1.46581">
        <ele>22.5</ele>
        <time>2013-03-01T13:29:02Z</time>
      </trkpt>
      <trkpt lat="46.45287" lon="-1.46581">
        <ele>22.5</ele>
        <time>2013-03-01T13:29:05Z</time>
      </trkpt>
      <trkpt lat="46.45291" lon="-1.4658">
        <ele>22.6</ele>
        <time>2013-03-01T13:29:08Z</time>
      </trkpt>
      <trkpt lat="46.45295" lon="-1.4658">
        <ele>22.8</ele>
        <time>2013-03-01T13:29:11Z</time>
      </trkpt>
      <trkpt lat="46.45299" lon="-1.46579">
        <ele>22.7</ele>
        <time>2013-03-01T13:29:14Z</time>
      </trkpt>
      <trkpt lat="46.45303" lon="-1.46579">
        <ele>22.7</ele>
        <time>2013-03-01T13:29:17Z</time>
      </trkpt>
      <trkpt lat="46.45307" lon="-1.46579">
        <ele>22.8</ele>
        <time>2013-03-01T13:29:20Z</time>
      </trkpt>
      <trkpt lat="46.4531" lon="-1.46578">
        <ele>22.7</ele>
        <time>2013-03-01T13:29:23Z</time>
      </trkpt>
      <trkpt lat="46.45315" lon="-1.46577">
        <ele>22.3</ele>
        <time>2013-03-01T13:29:27Z</time>
      </trkpt>
      <trkpt lat="46.45318" lon="-1.46578">
        <ele>22.6</ele>
        <time>2013-03-01T13:29:30Z</time>
      </trkpt>
      <trkpt lat="46.45322" lon="-1.46579">
        <ele>22.8</ele>
        <time>2013-03-01T13:29:33Z</time>
      </trkpt>
      <trkpt lat="46.45325" lon="-1.46579">
        <ele>22.3</ele>
        <time>2013-03-01T13:29:36Z</time>
      </trkpt>
      <trkpt lat="46.45329" lon="-1.4658">
        <ele>22.2</ele>
        <time>2013-03-01T13:29:39Z</time>
      </trkpt>
      <trkpt lat="46.45329" lon="-1.4658">
        <ele>22.2</ele>
        <time>2013-03-01T13:29:39Z</time>
      </trkpt>
      <trkpt lat="46.45333" lon="-1.46581">
        <ele>22.7</ele>
        <time>2013-03-01T13:29:42Z</time>
      </trkpt>
      <trkpt lat="46.45336" lon="-1.46582">
        <ele>22.8</ele>
        <time>2013-03-01T13:29:45Z</time>
      </trkpt>
      <trkpt lat="46.4534" lon="-1.46582">
        <ele>22.6</ele>
        <time>2013-03-01T13:29:48Z</time>
      </trkpt>
      <trkpt lat="46.45344" lon="-1.46583">
        <ele>23.3</ele>
        <time>2013-03-01T13:29:52Z</time>
      </trkpt>
      <trkpt lat="46.45345" lon="-1.46583">
        <ele>23.4</ele>
        <time>2013-03-01T13:29:53Z</time>
      </trkpt>
      <trkpt lat="46.45351" lon="-1.46584">
        <ele>23.2</ele>
        <time>2013-03-01T13:29:59Z</time>
      </trkpt>
      <trkpt lat="46.45356" lon="-1.46584">
        <ele>23.5</ele>
        <time>2013-03-01T13:30:03Z</time>
      </trkpt>
      <trkpt lat="46.45359" lon="-1.46585">
        <ele>23.3</ele>
        <time>2013-03-01T13:30:06Z</time>
      </trkpt>
      <trkpt lat="46.45363" lon="-1.46586">
        <ele>23.5</ele>
        <time>2013-03-01T13:30:09Z</time>
      </trkpt>
      <trkpt lat="46.45366" lon="-1.46586">
        <ele>23.3</ele>
        <time>2013-03-01T13:30:12Z</time>
      </trkpt>
      <trkpt lat="46.4537" lon="-1.46587">
        <ele>24.3</ele>
        <time>2013-03-01T13:30:15Z</time>
      </trkpt>
      <trkpt lat="46.45374" lon="-1.46587">
        <ele>24.6</ele>
        <time>2013-03-01T13:30:18Z</time>
      </trkpt>
      <trkpt lat="46.45377" lon="-1.46588">
        <ele>24.2</ele>
        <time>2013-03-01T13:30:21Z</time>
      </trkpt>
      <trkpt lat="46.45381" lon="-1.46588">
        <ele>23.5</ele>
        <time>2013-03-01T13:30:24Z</time>
      </trkpt>
      <trkpt lat="46.45385" lon="-1.46588">
        <ele>23.7</ele>
        <time>2013-03-01T13:30:27Z</time>
      </trkpt>
      <trkpt lat="46.45388" lon="-1.46589">
        <ele>23.8</ele>
        <time>2013-03-01T13:30:30Z</time>
      </trkpt>
      <trkpt lat="46.45392" lon="-1.46589">
        <ele>23.7</ele>
        <time>2013-03-01T13:30:33Z</time>
      </trkpt>
      <trkpt lat="46.45395" lon="-1.46589">
        <ele>23.6</ele>
        <time>2013-03-01T13:30:36Z</time>
      </trkpt>
      <trkpt lat="46.45399" lon="-1.4659">
        <ele>23.6</ele>
        <time>2013-03-01T13:30:39Z</time>
      </trkpt>
      <trkpt lat="46.45402" lon="-1.4659">
        <ele>24</ele>
        <time>2013-03-01T13:30:42Z</time>
      </trkpt>
      <trkpt lat="46.45406" lon="-1.46591">
        <ele>23.8</ele>
        <time>2013-03-01T13:30:45Z</time>
      </trkpt>
      <trkpt lat="46.4541" lon="-1.46591">
        <ele>23.7</ele>
        <time>2013-03-01T13:30:48Z</time>
      </trkpt>
      <trkpt lat="46.45414" lon="-1.46591">
        <ele>24.4</ele>
        <time>2013-03-01T13:30:51Z</time>
      </trkpt>
      <trkpt lat="46.45418" lon="-1.46591">
        <ele>24.9</ele>
        <time>2013-03-01T13:30:54Z</time>
      </trkpt>
      <trkpt lat="46.45419" lon="-1.46591">
        <ele>25</ele>
        <time>2013-03-01T13:30:55Z</time>
      </trkpt>
      <trkpt lat="46.45425" lon="-1.46592">
        <ele>25.1</ele>
        <time>2013-03-01T13:31:00Z</time>
      </trkpt>
      <trkpt lat="46.45429" lon="-1.46592">
        <ele>25.1</ele>
        <time>2013-03-01T13:31:03Z</time>
      </trkpt>
      <trkpt lat="46.45432" lon="-1.46593">
        <ele>25.8</ele>
        <time>2013-03-01T13:31:06Z</time>
      </trkpt>
      <trkpt lat="46.45436" lon="-1.46593">
        <ele>25.5</ele>
        <time>2013-03-01T13:31:09Z</time>
      </trkpt>
      <trkpt lat="46.45439" lon="-1.46594">
        <ele>25.6</ele>
        <time>2013-03-01T13:31:12Z</time>
      </trkpt>
      <trkpt lat="46.45443" lon="-1.46594">
        <ele>25.7</ele>
        <time>2013-03-01T13:31:15Z</time>
      </trkpt>
      <trkpt lat="46.45446" lon="-1.46594">
        <ele>25.5</ele>
        <time>2013-03-01T13:31:18Z</time>
      </trkpt>
      <trkpt lat="46.4545" lon="-1.46594">
        <ele>25.4</ele>
        <time>2013-03-01T13:31:21Z</time>
      </trkpt>
      <trkpt lat="46.45453" lon="-1.46595">
        <ele>25.5</ele>
        <time>2013-03-01T13:31:24Z</time>
      </trkpt>
      <trkpt lat="46.45457" lon="-1.46595">
        <ele>25.9</ele>
        <time>2013-03-01T13:31:27Z</time>
      </trkpt>
      <trkpt lat="46.45461" lon="-1.46596">
        <ele>26.1</ele>
        <time>2013-03-01T13:31:30Z</time>
      </trkpt>
      <trkpt lat="46.45465" lon="-1.46596">
        <ele>26</ele>
        <time>2013-03-01T13:31:33Z</time>
      </trkpt>
      <trkpt lat="46.45469" lon="-1.46596">
        <ele>26</ele>
        <time>2013-03-01T13:31:36Z</time>
      </trkpt>
      <trkpt lat="46.45472" lon="-1.46596">
        <ele>26</ele>
        <time>2013-03-01T13:31:39Z</time>
      </trkpt>
      <trkpt lat="46.45476" lon="-1.46597">
        <ele>25.7</ele>
        <time>2013-03-01T13:31:42Z</time>
      </trkpt>
      <trkpt lat="46.4548" lon="-1.46597">
        <ele>26.2</ele>
        <time>2013-03-01T13:31:45Z</time>
      </trkpt>
      <trkpt lat="46.45483" lon="-1.46597">
        <ele>25.5</ele>
        <time>2013-03-01T13:31:48Z</time>
      </trkpt>
      <trkpt lat="46.45487" lon="-1.46598">
        <ele>25.8</ele>
        <time>2013-03-01T13:31:51Z</time>
      </trkpt>
      <trkpt lat="46.45491" lon="-1.46599">
        <ele>25.8</ele>
        <time>2013-03-01T13:31:54Z</time>
      </trkpt>
      <trkpt lat="46.45495" lon="-1.46599">
        <ele>26.2</ele>
        <time>2013-03-01T13:31:57Z</time>
      </trkpt>
      <trkpt lat="46.45496" lon="-1.46599">
        <ele>26.3</ele>
        <time>2013-03-01T13:31:58Z</time>
      </trkpt>
      <trkpt lat="46.45503" lon="-1.466">
        <ele>25.5</ele>
        <time>2013-03-01T13:32:03Z</time>
      </trkpt>
      <trkpt lat="46.45507" lon="-1.46601">
        <ele>26.1</ele>
        <time>2013-03-01T13:32:06Z</time>
      </trkpt>
      <trkpt lat="46.4551" lon="-1.46601">
        <ele>26.2</ele>
        <time>2013-03-01T13:32:09Z</time>
      </trkpt>
      <trkpt lat="46.45514" lon="-1.46602">
        <ele>26</ele>
        <time>2013-03-01T13:32:12Z</time>
      </trkpt>
      <trkpt lat="46.45518" lon="-1.46602">
        <ele>26.2</ele>
        <time>2013-03-01T13:32:15Z</time>
      </trkpt>
      <trkpt lat="46.45522" lon="-1.46602">
        <ele>26.8</ele>
        <time>2013-03-01T13:32:18Z</time>
      </trkpt>
      <trkpt lat="46.45526" lon="-1.46602">
        <ele>27</ele>
        <time>2013-03-01T13:32:21Z</time>
      </trkpt>
      <trkpt lat="46.4553" lon="-1.46602">
        <ele>27.1</ele>
        <time>2013-03-01T13:32:24Z</time>
      </trkpt>
      <trkpt lat="46.4553" lon="-1.46602">
        <ele>27.1</ele>
        <time>2013-03-01T13:32:24Z</time>
      </trkpt>
      <trkpt lat="46.45534" lon="-1.46602">
        <ele>27.5</ele>
        <time>2013-03-01T13:32:27Z</time>
      </trkpt>
      <trkpt lat="46.45538" lon="-1.46601">
        <ele>27.5</ele>
        <time>2013-03-01T13:32:30Z</time>
      </trkpt>
      <trkpt lat="46.45542" lon="-1.46601">
        <ele>27.1</ele>
        <time>2013-03-01T13:32:33Z</time>
      </trkpt>
      <trkpt lat="46.45545" lon="-1.46601">
        <ele>27.5</ele>
        <time>2013-03-01T13:32:36Z</time>
      </trkpt>
      <trkpt lat="46.45549" lon="-1.46601">
        <ele>27.6</ele>
        <time>2013-03-01T13:32:39Z</time>
      </trkpt>
      <trkpt lat="46.45553" lon="-1.466">
        <ele>27.5</ele>
        <time>2013-03-01T13:32:42Z</time>
      </trkpt>
      <trkpt lat="46.45556" lon="-1.466">
        <ele>28</ele>
        <time>2013-03-01T13:32:45Z</time>
      </trkpt>
      <trkpt lat="46.4556" lon="-1.466">
        <ele>28.2</ele>
        <time>2013-03-01T13:32:48Z</time>
      </trkpt>
      <trkpt lat="46.45564" lon="-1.466">
        <ele>27.9</ele>
        <time>2013-03-01T13:32:51Z</time>
      </trkpt>
      <trkpt lat="46.45568" lon="-1.466">
        <ele>27.4</ele>
        <time>2013-03-01T13:32:54Z</time>
      </trkpt>
      <trkpt lat="46.45572" lon="-1.466">
        <ele>27.2</ele>
        <time>2013-03-01T13:32:57Z</time>
      </trkpt>
      <trkpt lat="46.45575" lon="-1.466">
        <ele>27.4</ele>
        <time>2013-03-01T13:33:00Z</time>
      </trkpt>
      <trkpt lat="46.45577" lon="-1.466">
        <ele>27.5</ele>
        <time>2013-03-01T13:33:01Z</time>
      </trkpt>
      <trkpt lat="46.45583" lon="-1.46599">
        <ele>27.8</ele>
        <time>2013-03-01T13:33:06Z</time>
      </trkpt>
      <trkpt lat="46.45586" lon="-1.46599">
        <ele>27.7</ele>
        <time>2013-03-01T13:33:09Z</time>
      </trkpt>
      <trkpt lat="46.4559" lon="-1.46599">
        <ele>28.4</ele>
        <time>2013-03-01T13:33:12Z</time>
      </trkpt>
      <trkpt lat="46.45593" lon="-1.46599">
        <ele>28.9</ele>
        <time>2013-03-01T13:33:15Z</time>
      </trkpt>
      <trkpt lat="46.45597" lon="-1.46599">
        <ele>28.6</ele>
        <time>2013-03-01T13:33:18Z</time>
      </trkpt>
      <trkpt lat="46.456" lon="-1.46599">
        <ele>28.2</ele>
        <time>2013-03-01T13:33:21Z</time>
      </trkpt>
      <trkpt lat="46.45604" lon="-1.46598">
        <ele>28.6</ele>
        <time>2013-03-01T13:33:25Z</time>
      </trkpt>
      <trkpt lat="46.45608" lon="-1.46597">
        <ele>29.2</ele>
        <time>2013-03-01T13:33:30Z</time>
      </trkpt>
      <trkpt lat="46.45612" lon="-1.46596">
        <ele>29.8</ele>
        <time>2013-03-01T13:33:35Z</time>
      </trkpt>
      <trkpt lat="46.45617" lon="-1.46595">
        <ele>29.4</ele>
        <time>2013-03-01T13:33:39Z</time>
      </trkpt>
      <trkpt lat="46.4562" lon="-1.46596">
        <ele>29.3</ele>
        <time>2013-03-01T13:33:42Z</time>
      </trkpt>
      <trkpt lat="46.45624" lon="-1.46594">
        <ele>30.1</ele>
        <time>2013-03-01T13:33:45Z</time>
      </trkpt>
      <trkpt lat="46.45627" lon="-1.46594">
        <ele>30.1</ele>
        <time>2013-03-01T13:33:48Z</time>
      </trkpt>
      <trkpt lat="46.45632" lon="-1.46594">
        <ele>30.4</ele>
        <time>2013-03-01T13:33:54Z</time>
      </trkpt>
      <trkpt lat="46.45636" lon="-1.46596">
        <ele>31.4</ele>
        <time>2013-03-01T13:34:15Z</time>
      </trkpt>
      <trkpt lat="46.45648" lon="-1.46594">
        <ele>31.2</ele>
        <time>2013-03-01T13:35:15Z</time>
      </trkpt>
      <trkpt lat="46.45651" lon="-1.46594">
        <ele>31.3</ele>
        <time>2013-03-01T13:35:20Z</time>
      </trkpt>
      <trkpt lat="46.45652" lon="-1.46594">
        <ele>31.3</ele>
        <time>2013-03-01T13:35:21Z</time>
      </trkpt>
      <trkpt lat="46.4566" lon="-1.46592">
        <ele>31.3</ele>
        <time>2013-03-01T13:35:28Z</time>
      </trkpt>
      <trkpt lat="46.45664" lon="-1.46591">
        <ele>31.4</ele>
        <time>2013-03-01T13:35:32Z</time>
      </trkpt>
      <trkpt lat="46.45668" lon="-1.46591">
        <ele>32</ele>
        <time>2013-03-01T13:35:36Z</time>
      </trkpt>
      <trkpt lat="46.45672" lon="-1.46589">
        <ele>32.1</ele>
        <time>2013-03-01T13:35:40Z</time>
      </trkpt>
      <trkpt lat="46.45675" lon="-1.46588">
        <ele>31.9</ele>
        <time>2013-03-01T13:35:43Z</time>
      </trkpt>
      <trkpt lat="46.45678" lon="-1.46587">
        <ele>32.1</ele>
        <time>2013-03-01T13:35:46Z</time>
      </trkpt>
      <trkpt lat="46.45682" lon="-1.46586">
        <ele>32.4</ele>
        <time>2013-03-01T13:35:49Z</time>
      </trkpt>
      <trkpt lat="46.45686" lon="-1.46585">
        <ele>32.9</ele>
        <time>2013-03-01T13:35:53Z</time>
      </trkpt>
      <trkpt lat="46.45691" lon="-1.46584">
        <ele>32.5</ele>
        <time>2013-03-01T13:35:59Z</time>
      </trkpt>
      <trkpt lat="46.45695" lon="-1.46584">
        <ele>32.7</ele>
        <time>2013-03-01T13:36:03Z</time>
      </trkpt>
      <trkpt lat="46.45699" lon="-1.46583">
        <ele>33</ele>
        <time>2013-03-01T13:36:06Z</time>
      </trkpt>
      <trkpt lat="46.45702" lon="-1.46582">
        <ele>33.3</ele>
        <time>2013-03-01T13:36:09Z</time>
      </trkpt>
      <trkpt lat="46.45706" lon="-1.46582">
        <ele>33.6</ele>
        <time>2013-03-01T13:36:12Z</time>
      </trkpt>
      <trkpt lat="46.45709" lon="-1.4658">
        <ele>33.5</ele>
        <time>2013-03-01T13:36:15Z</time>
      </trkpt>
      <trkpt lat="46.45713" lon="-1.46579">
        <ele>33.6</ele>
        <time>2013-03-01T13:36:18Z</time>
      </trkpt>
      <trkpt lat="46.45717" lon="-1.46577">
        <ele>33.5</ele>
        <time>2013-03-01T13:36:21Z</time>
      </trkpt>
      <trkpt lat="46.45719" lon="-1.46577">
        <ele>33.4</ele>
        <time>2013-03-01T13:36:22Z</time>
      </trkpt>
      <trkpt lat="46.45725" lon="-1.46574">
        <ele>33.6</ele>
        <time>2013-03-01T13:36:28Z</time>
      </trkpt>
      <trkpt lat="46.45729" lon="-1.46574">
        <ele>33.3</ele>
        <time>2013-03-01T13:36:32Z</time>
      </trkpt>
      <trkpt lat="46.45733" lon="-1.46572">
        <ele>34</ele>
        <time>2013-03-01T13:36:36Z</time>
      </trkpt>
      <trkpt lat="46.45737" lon="-1.4657">
        <ele>34.7</ele>
        <time>2013-03-01T13:36:40Z</time>
      </trkpt>
      <trkpt lat="46.4574" lon="-1.46568">
        <ele>34.3</ele>
        <time>2013-03-01T13:36:44Z</time>
      </trkpt>
      <trkpt lat="46.45744" lon="-1.46567">
        <ele>33.6</ele>
        <time>2013-03-01T13:36:48Z</time>
      </trkpt>
      <trkpt lat="46.45748" lon="-1.46565">
        <ele>33.8</ele>
        <time>2013-03-01T13:36:53Z</time>
      </trkpt>
      <trkpt lat="46.45752" lon="-1.46564">
        <ele>33.8</ele>
        <time>2013-03-01T13:36:58Z</time>
      </trkpt>
      <trkpt lat="46.45756" lon="-1.46561">
        <ele>34.7</ele>
        <time>2013-03-01T13:37:03Z</time>
      </trkpt>
      <trkpt lat="46.4576" lon="-1.46559">
        <ele>34.9</ele>
        <time>2013-03-01T13:37:08Z</time>
      </trkpt>
      <trkpt lat="46.45764" lon="-1.46557">
        <ele>34.7</ele>
        <time>2013-03-01T13:37:13Z</time>
      </trkpt>
      <trkpt lat="46.45769" lon="-1.46556">
        <ele>35.1</ele>
        <time>2013-03-01T13:37:17Z</time>
      </trkpt>
      <trkpt lat="46.45773" lon="-1.46555">
        <ele>34.6</ele>
        <time>2013-03-01T13:37:21Z</time>
      </trkpt>
      <trkpt lat="46.45776" lon="-1.46553">
        <ele>34.8</ele>
        <time>2013-03-01T13:37:24Z</time>
      </trkpt>
      <trkpt lat="46.45778" lon="-1.46552">
        <ele>34.8</ele>
        <time>2013-03-01T13:37:25Z</time>
      </trkpt>
      <trkpt lat="46.45783" lon="-1.46549">
        <ele>35.4</ele>
        <time>2013-03-01T13:37:30Z</time>
      </trkpt>
      <trkpt lat="46.45787" lon="-1.46547">
        <ele>35.3</ele>
        <time>2013-03-01T13:37:33Z</time>
      </trkpt>
      <trkpt lat="46.4579" lon="-1.46546">
        <ele>35.3</ele>
        <time>2013-03-01T13:37:36Z</time>
      </trkpt>
      <trkpt lat="46.45793" lon="-1.46544">
        <ele>35.3</ele>
        <time>2013-03-01T13:37:39Z</time>
      </trkpt>
      <trkpt lat="46.45796" lon="-1.46542">
        <ele>35.2</ele>
        <time>2013-03-01T13:37:42Z</time>
      </trkpt>
      <trkpt lat="46.458" lon="-1.46541">
        <ele>35.8</ele>
        <time>2013-03-01T13:37:45Z</time>
      </trkpt>
      <trkpt lat="46.45804" lon="-1.46539">
        <ele>34.9</ele>
        <time>2013-03-01T13:37:49Z</time>
      </trkpt>
      <trkpt lat="46.45807" lon="-1.46537">
        <ele>35.3</ele>
        <time>2013-03-01T13:37:53Z</time>
      </trkpt>
      <trkpt lat="46.45811" lon="-1.46534">
        <ele>35.7</ele>
        <time>2013-03-01T13:37:57Z</time>
      </trkpt>
      <trkpt lat="46.45815" lon="-1.46532">
        <ele>35.7</ele>
        <time>2013-03-01T13:38:01Z</time>
      </trkpt>
      <trkpt lat="46.45818" lon="-1.4653">
        <ele>35.8</ele>
        <time>2013-03-01T13:38:05Z</time>
      </trkpt>
      <trkpt lat="46.45822" lon="-1.46527">
        <ele>36</ele>
        <time>2013-03-01T13:38:09Z</time>
      </trkpt>
      <trkpt lat="46.45826" lon="-1.46525">
        <ele>36</ele>
        <time>2013-03-01T13:38:13Z</time>
      </trkpt>
      <trkpt lat="46.45829" lon="-1.46522">
        <ele>35.4</ele>
        <time>2013-03-01T13:38:17Z</time>
      </trkpt>
      <trkpt lat="46.45832" lon="-1.4652">
        <ele>35.5</ele>
        <time>2013-03-01T13:38:21Z</time>
      </trkpt>
      <trkpt lat="46.45835" lon="-1.46517">
        <ele>35.7</ele>
        <time>2013-03-01T13:38:24Z</time>
      </trkpt>
      <trkpt lat="46.45839" lon="-1.46516">
        <ele>36.2</ele>
        <time>2013-03-01T13:38:29Z</time>
      </trkpt>
      <trkpt lat="46.4584" lon="-1.46516">
        <ele>36.1</ele>
        <time>2013-03-01T13:38:30Z</time>
      </trkpt>
      <trkpt lat="46.45847" lon="-1.46511">
        <ele>35.3</ele>
        <time>2013-03-01T13:38:38Z</time>
      </trkpt>
      <trkpt lat="46.4585" lon="-1.46509">
        <ele>35.2</ele>
        <time>2013-03-01T13:38:41Z</time>
      </trkpt>
      <trkpt lat="46.45853" lon="-1.46505">
        <ele>35.5</ele>
        <time>2013-03-01T13:38:45Z</time>
      </trkpt>
      <trkpt lat="46.45857" lon="-1.46503">
        <ele>35.3</ele>
        <time>2013-03-01T13:38:49Z</time>
      </trkpt>
      <trkpt lat="46.45861" lon="-1.46499">
        <ele>35.8</ele>
        <time>2013-03-01T13:38:53Z</time>
      </trkpt>
      <trkpt lat="46.45864" lon="-1.46497">
        <ele>35.6</ele>
        <time>2013-03-01T13:38:57Z</time>
      </trkpt>
      <trkpt lat="46.45868" lon="-1.46495">
        <ele>35.9</ele>
        <time>2013-03-01T13:39:01Z</time>
      </trkpt>
      <trkpt lat="46.45872" lon="-1.46493">
        <ele>36.1</ele>
        <time>2013-03-01T13:39:05Z</time>
      </trkpt>
      <trkpt lat="46.45875" lon="-1.46489">
        <ele>36.8</ele>
        <time>2013-03-01T13:39:10Z</time>
      </trkpt>
      <trkpt lat="46.45878" lon="-1.46485">
        <ele>37.2</ele>
        <time>2013-03-01T13:39:15Z</time>
      </trkpt>
      <trkpt lat="46.45881" lon="-1.46481">
        <ele>37.7</ele>
        <time>2013-03-01T13:39:20Z</time>
      </trkpt>
      <trkpt lat="46.45885" lon="-1.46478">
        <ele>37.6</ele>
        <time>2013-03-01T13:39:23Z</time>
      </trkpt>
      <trkpt lat="46.45887" lon="-1.46474">
        <ele>37.7</ele>
        <time>2013-03-01T13:39:26Z</time>
      </trkpt>
      <trkpt lat="46.4589" lon="-1.4647">
        <ele>38</ele>
        <time>2013-03-01T13:39:29Z</time>
      </trkpt>
      <trkpt lat="46.45893" lon="-1.46467">
        <ele>38.3</ele>
        <time>2013-03-01T13:39:33Z</time>
      </trkpt>
      <trkpt lat="46.45894" lon="-1.46465">
        <ele>38.3</ele>
        <time>2013-03-01T13:39:34Z</time>
      </trkpt>
      <trkpt lat="46.459" lon="-1.4646">
        <ele>38</ele>
        <time>2013-03-01T13:39:39Z</time>
      </trkpt>
      <trkpt lat="46.45902" lon="-1.46456">
        <ele>38.2</ele>
        <time>2013-03-01T13:39:42Z</time>
      </trkpt>
      <trkpt lat="46.45905" lon="-1.46452">
        <ele>38.3</ele>
        <time>2013-03-01T13:39:45Z</time>
      </trkpt>
      <trkpt lat="46.45908" lon="-1.46447">
        <ele>38.4</ele>
        <time>2013-03-01T13:39:48Z</time>
      </trkpt>
      <trkpt lat="46.45911" lon="-1.46444">
        <ele>38.7</ele>
        <time>2013-03-01T13:39:51Z</time>
      </trkpt>
      <trkpt lat="46.45913" lon="-1.4644">
        <ele>38.9</ele>
        <time>2013-03-01T13:39:54Z</time>
      </trkpt>
      <trkpt lat="46.45916" lon="-1.46436">
        <ele>38.9</ele>
        <time>2013-03-01T13:39:57Z</time>
      </trkpt>
      <trkpt lat="46.45919" lon="-1.46432">
        <ele>38.9</ele>
        <time>2013-03-01T13:40:00Z</time>
      </trkpt>
      <trkpt lat="46.45921" lon="-1.46427">
        <ele>39.2</ele>
        <time>2013-03-01T13:40:04Z</time>
      </trkpt>
      <trkpt lat="46.45924" lon="-1.46422">
        <ele>39.1</ele>
        <time>2013-03-01T13:40:08Z</time>
      </trkpt>
      <trkpt lat="46.45926" lon="-1.46417">
        <ele>39.5</ele>
        <time>2013-03-01T13:40:12Z</time>
      </trkpt>
      <trkpt lat="46.4593" lon="-1.46414">
        <ele>39.8</ele>
        <time>2013-03-01T13:40:16Z</time>
      </trkpt>
      <trkpt lat="46.45931" lon="-1.46409">
        <ele>39.6</ele>
        <time>2013-03-01T13:40:19Z</time>
      </trkpt>
      <trkpt lat="46.45934" lon="-1.46404">
        <ele>39.8</ele>
        <time>2013-03-01T13:40:23Z</time>
      </trkpt>
      <trkpt lat="46.45936" lon="-1.46399">
        <ele>39.8</ele>
        <time>2013-03-01T13:40:27Z</time>
      </trkpt>
      <trkpt lat="46.45938" lon="-1.46394">
        <ele>39.9</ele>
        <time>2013-03-01T13:40:31Z</time>
      </trkpt>
      <trkpt lat="46.4594" lon="-1.4639">
        <ele>39.8</ele>
        <time>2013-03-01T13:40:34Z</time>
      </trkpt>
      <trkpt lat="46.45941" lon="-1.46388">
        <ele>39.7</ele>
        <time>2013-03-01T13:40:35Z</time>
      </trkpt>
      <trkpt lat="46.45944" lon="-1.46381">
        <ele>39.6</ele>
        <time>2013-03-01T13:40:40Z</time>
      </trkpt>
      <trkpt lat="46.45946" lon="-1.46376">
        <ele>39.7</ele>
        <time>2013-03-01T13:40:43Z</time>
      </trkpt>
      <trkpt lat="46.45948" lon="-1.46372">
        <ele>40.1</ele>
        <time>2013-03-01T13:40:46Z</time>
      </trkpt>
      <trkpt lat="46.45949" lon="-1.46367">
        <ele>40</ele>
        <time>2013-03-01T13:40:49Z</time>
      </trkpt>
      <trkpt lat="46.45952" lon="-1.46363">
        <ele>40.2</ele>
        <time>2013-03-01T13:40:52Z</time>
      </trkpt>
      <trkpt lat="46.45955" lon="-1.46358">
        <ele>40.6</ele>
        <time>2013-03-01T13:40:55Z</time>
      </trkpt>
      <trkpt lat="46.45957" lon="-1.46354">
        <ele>40.5</ele>
        <time>2013-03-01T13:40:58Z</time>
      </trkpt>
      <trkpt lat="46.4596" lon="-1.4635">
        <ele>40.8</ele>
        <time>2013-03-01T13:41:01Z</time>
      </trkpt>
      <trkpt lat="46.45962" lon="-1.46346">
        <ele>40.9</ele>
        <time>2013-03-01T13:41:04Z</time>
      </trkpt>
      <trkpt lat="46.45965" lon="-1.46342">
        <ele>40.7</ele>
        <time>2013-03-01T13:41:09Z</time>
      </trkpt>
      <trkpt lat="46.45968" lon="-1.46338">
        <ele>40.6</ele>
        <time>2013-03-01T13:41:14Z</time>
      </trkpt>
      <trkpt lat="46.45971" lon="-1.46334">
        <ele>40.9</ele>
        <time>2013-03-01T13:41:18Z</time>
      </trkpt>
      <trkpt lat="46.45973" lon="-1.4633">
        <ele>40.7</ele>
        <time>2013-03-01T13:41:22Z</time>
      </trkpt>
      <trkpt lat="46.45976" lon="-1.46326">
        <ele>40.4</ele>
        <time>2013-03-01T13:41:26Z</time>
      </trkpt>
      <trkpt lat="46.45979" lon="-1.46322">
        <ele>40.5</ele>
        <time>2013-03-01T13:41:30Z</time>
      </trkpt>
      <trkpt lat="46.45982" lon="-1.46319">
        <ele>40.8</ele>
        <time>2013-03-01T13:41:34Z</time>
      </trkpt>
      <trkpt lat="46.45985" lon="-1.46316">
        <ele>40.6</ele>
        <time>2013-03-01T13:41:38Z</time>
      </trkpt>
      <trkpt lat="46.45986" lon="-1.46315">
        <ele>40.9</ele>
        <time>2013-03-01T13:41:39Z</time>
      </trkpt>
      <trkpt lat="46.45993" lon="-1.46312">
        <ele>41.7</ele>
        <time>2013-03-01T13:41:45Z</time>
      </trkpt>
      <trkpt lat="46.45996" lon="-1.4631">
        <ele>41.6</ele>
        <time>2013-03-01T13:41:48Z</time>
      </trkpt>
      <trkpt lat="46.46" lon="-1.46307">
        <ele>41.9</ele>
        <time>2013-03-01T13:41:52Z</time>
      </trkpt>
      <trkpt lat="46.46004" lon="-1.46305">
        <ele>41.4</ele>
        <time>2013-03-01T13:41:57Z</time>
      </trkpt>
      <trkpt lat="46.46008" lon="-1.46303">
        <ele>41.1</ele>
        <time>2013-03-01T13:42:01Z</time>
      </trkpt>
      <trkpt lat="46.46011" lon="-1.46301">
        <ele>41.4</ele>
        <time>2013-03-01T13:42:05Z</time>
      </trkpt>
      <trkpt lat="46.46015" lon="-1.46298">
        <ele>41</ele>
        <time>2013-03-01T13:42:08Z</time>
      </trkpt>
      <trkpt lat="46.46017" lon="-1.46297">
        <ele>40.9</ele>
        <time>2013-03-01T13:42:09Z</time>
      </trkpt>
      <trkpt lat="46.46022" lon="-1.46294">
        <ele>41.7</ele>
        <time>2013-03-01T13:42:13Z</time>
      </trkpt>
      <trkpt lat="46.46025" lon="-1.46291">
        <ele>41.4</ele>
        <time>2013-03-01T13:42:17Z</time>
      </trkpt>
      <trkpt lat="46.46028" lon="-1.46289">
        <ele>41.3</ele>
        <time>2013-03-01T13:42:20Z</time>
      </trkpt>
      <trkpt lat="46.46032" lon="-1.46286">
        <ele>41.5</ele>
        <time>2013-03-01T13:42:23Z</time>
      </trkpt>
      <trkpt lat="46.46035" lon="-1.46283">
        <ele>41.3</ele>
        <time>2013-03-01T13:42:26Z</time>
      </trkpt>
      <trkpt lat="46.46039" lon="-1.4628">
        <ele>41.4</ele>
        <time>2013-03-01T13:42:30Z</time>
      </trkpt>
      <trkpt lat="46.46042" lon="-1.46276">
        <ele>40.9</ele>
        <time>2013-03-01T13:42:34Z</time>
      </trkpt>
      <trkpt lat="46.46045" lon="-1.46272">
        <ele>41.4</ele>
        <time>2013-03-01T13:42:38Z</time>
      </trkpt>
      <trkpt lat="46.46048" lon="-1.46268">
        <ele>41.4</ele>
        <time>2013-03-01T13:42:41Z</time>
      </trkpt>
      <trkpt lat="46.46049" lon="-1.46267">
        <ele>41.5</ele>
        <time>2013-03-01T13:42:42Z</time>
      </trkpt>
      <trkpt lat="46.46053" lon="-1.4626">
        <ele>40.8</ele>
        <time>2013-03-01T13:42:47Z</time>
      </trkpt>
      <trkpt lat="46.46055" lon="-1.46255">
        <ele>40.6</ele>
        <time>2013-03-01T13:42:51Z</time>
      </trkpt>
      <trkpt lat="46.46058" lon="-1.46253">
        <ele>41.2</ele>
        <time>2013-03-01T13:42:54Z</time>
      </trkpt>
      <trkpt lat="46.46062" lon="-1.4625">
        <ele>41.3</ele>
        <time>2013-03-01T13:42:57Z</time>
      </trkpt>
      <trkpt lat="46.46065" lon="-1.46248">
        <ele>41</ele>
        <time>2013-03-01T13:43:01Z</time>
      </trkpt>
      <trkpt lat="46.46069" lon="-1.46244">
        <ele>41</ele>
        <time>2013-03-01T13:43:05Z</time>
      </trkpt>
      <trkpt lat="46.46072" lon="-1.46241">
        <ele>41</ele>
        <time>2013-03-01T13:43:09Z</time>
      </trkpt>
      <trkpt lat="46.46075" lon="-1.46238">
        <ele>41</ele>
        <time>2013-03-01T13:43:13Z</time>
      </trkpt>
      <trkpt lat="46.46079" lon="-1.46235">
        <ele>40.9</ele>
        <time>2013-03-01T13:43:17Z</time>
      </trkpt>
      <trkpt lat="46.46082" lon="-1.46232">
        <ele>41.3</ele>
        <time>2013-03-01T13:43:21Z</time>
      </trkpt>
      <trkpt lat="46.46085" lon="-1.46228">
        <ele>40.9</ele>
        <time>2013-03-01T13:43:25Z</time>
      </trkpt>
      <trkpt lat="46.46089" lon="-1.46225">
        <ele>40.7</ele>
        <time>2013-03-01T13:43:29Z</time>
      </trkpt>
      <trkpt lat="46.46092" lon="-1.46222">
        <ele>40.6</ele>
        <time>2013-03-01T13:43:33Z</time>
      </trkpt>
      <trkpt lat="46.46095" lon="-1.46219">
        <ele>40.2</ele>
        <time>2013-03-01T13:43:36Z</time>
      </trkpt>
      <trkpt lat="46.46099" lon="-1.46216">
        <ele>40.9</ele>
        <time>2013-03-01T13:43:40Z</time>
      </trkpt>
      <trkpt lat="46.46102" lon="-1.46213">
        <ele>40.9</ele>
        <time>2013-03-01T13:43:43Z</time>
      </trkpt>
      <trkpt lat="46.46103" lon="-1.46212">
        <ele>40.7</ele>
        <time>2013-03-01T13:43:44Z</time>
      </trkpt>
      <trkpt lat="46.46108" lon="-1.46208">
        <ele>41</ele>
        <time>2013-03-01T13:43:49Z</time>
      </trkpt>
      <trkpt lat="46.46111" lon="-1.46205">
        <ele>41.2</ele>
        <time>2013-03-01T13:43:52Z</time>
      </trkpt>
      <trkpt lat="46.46115" lon="-1.46201">
        <ele>40.8</ele>
        <time>2013-03-01T13:43:56Z</time>
      </trkpt>
      <trkpt lat="46.46117" lon="-1.46196">
        <ele>40</ele>
        <time>2013-03-01T13:44:00Z</time>
      </trkpt>
      <trkpt lat="46.4612" lon="-1.46192">
        <ele>40.5</ele>
        <time>2013-03-01T13:44:04Z</time>
      </trkpt>
      <trkpt lat="46.46123" lon="-1.46188">
        <ele>40.3</ele>
        <time>2013-03-01T13:44:08Z</time>
      </trkpt>
      <trkpt lat="46.46126" lon="-1.46185">
        <ele>40.3</ele>
        <time>2013-03-01T13:44:11Z</time>
      </trkpt>
      <trkpt lat="46.46129" lon="-1.46182">
        <ele>40.1</ele>
        <time>2013-03-01T13:44:14Z</time>
      </trkpt>
      <trkpt lat="46.46133" lon="-1.4618">
        <ele>40.7</ele>
        <time>2013-03-01T13:44:19Z</time>
      </trkpt>
      <trkpt lat="46.46137" lon="-1.46179">
        <ele>40.2</ele>
        <time>2013-03-01T13:44:23Z</time>
      </trkpt>
      <trkpt lat="46.4614" lon="-1.46176">
        <ele>40.4</ele>
        <time>2013-03-01T13:44:28Z</time>
      </trkpt>
      <trkpt lat="46.46144" lon="-1.46174">
        <ele>40</ele>
        <time>2013-03-01T13:44:34Z</time>
      </trkpt>
      <trkpt lat="46.46148" lon="-1.46171">
        <ele>39.6</ele>
        <time>2013-03-01T13:44:43Z</time>
      </trkpt>
      <trkpt lat="46.46151" lon="-1.46168">
        <ele>39.5</ele>
        <time>2013-03-01T13:44:51Z</time>
      </trkpt>
      <trkpt lat="46.46152" lon="-1.46168">
        <ele>39.7</ele>
        <time>2013-03-01T13:44:52Z</time>
      </trkpt>
      <trkpt lat="46.46156" lon="-1.4616">
        <ele>40.1</ele>
        <time>2013-03-01T13:45:27Z</time>
      </trkpt>
      <trkpt lat="46.46158" lon="-1.46155">
        <ele>40</ele>
        <time>2013-03-01T13:45:35Z</time>
      </trkpt>
      <trkpt lat="46.46162" lon="-1.46153">
        <ele>39.6</ele>
        <time>2013-03-01T13:45:40Z</time>
      </trkpt>
      <trkpt lat="46.46165" lon="-1.46149">
        <ele>39.6</ele>
        <time>2013-03-01T13:45:46Z</time>
      </trkpt>
      <trkpt lat="46.46169" lon="-1.46147">
        <ele>39.7</ele>
        <time>2013-03-01T13:45:52Z</time>
      </trkpt>
      <trkpt lat="46.4617" lon="-1.46147">
        <ele>39.6</ele>
        <time>2013-03-01T13:45:53Z</time>
      </trkpt>
      <trkpt lat="46.46176" lon="-1.46144">
        <ele>40</ele>
        <time>2013-03-01T13:46:00Z</time>
      </trkpt>
      <trkpt lat="46.4618" lon="-1.46141">
        <ele>40.1</ele>
        <time>2013-03-01T13:46:04Z</time>
      </trkpt>
      <trkpt lat="46.46184" lon="-1.46139">
        <ele>40.3</ele>
        <time>2013-03-01T13:46:08Z</time>
      </trkpt>
      <trkpt lat="46.46188" lon="-1.46138">
        <ele>40.2</ele>
        <time>2013-03-01T13:46:14Z</time>
      </trkpt>
      <trkpt lat="46.46191" lon="-1.46137">
        <ele>39.8</ele>
        <time>2013-03-01T13:46:18Z</time>
      </trkpt>
      <trkpt lat="46.46195" lon="-1.46134">
        <ele>39.2</ele>
        <time>2013-03-01T13:46:23Z</time>
      </trkpt>
      <trkpt lat="46.46198" lon="-1.4613">
        <ele>40</ele>
        <time>2013-03-01T13:46:30Z</time>
      </trkpt>
      <trkpt lat="46.46202" lon="-1.46127">
        <ele>39.7</ele>
        <time>2013-03-01T13:46:37Z</time>
      </trkpt>
      <trkpt lat="46.46205" lon="-1.46124">
        <ele>40.2</ele>
        <time>2013-03-01T13:46:45Z</time>
      </trkpt>
      <trkpt lat="46.46209" lon="-1.46123">
        <ele>39.7</ele>
        <time>2013-03-01T13:46:53Z</time>
      </trkpt>
      <trkpt lat="46.4621" lon="-1.46122">
        <ele>39.6</ele>
        <time>2013-03-01T13:46:54Z</time>
      </trkpt>
      <trkpt lat="46.46216" lon="-1.46122">
        <ele>39.7</ele>
        <time>2013-03-01T13:47:07Z</time>
      </trkpt>
      <trkpt lat="46.4622" lon="-1.46123">
        <ele>39.5</ele>
        <time>2013-03-01T13:47:16Z</time>
      </trkpt>
      <trkpt lat="46.46225" lon="-1.46121">
        <ele>39.3</ele>
        <time>2013-03-01T13:47:23Z</time>
      </trkpt>
      <trkpt lat="46.46229" lon="-1.4612">
        <ele>39.6</ele>
        <time>2013-03-01T13:47:28Z</time>
      </trkpt>
      <trkpt lat="46.46233" lon="-1.46118">
        <ele>40.1</ele>
        <time>2013-03-01T13:47:34Z</time>
      </trkpt>
      <trkpt lat="46.46237" lon="-1.46117">
        <ele>40.3</ele>
        <time>2013-03-01T13:47:43Z</time>
      </trkpt>
      <trkpt lat="46.46241" lon="-1.46115">
        <ele>40.2</ele>
        <time>2013-03-01T13:48:00Z</time>
      </trkpt>
      <trkpt lat="46.46242" lon="-1.46114">
        <ele>40.1</ele>
        <time>2013-03-01T13:48:01Z</time>
      </trkpt>
      <trkpt lat="46.4625" lon="-1.46116">
        <ele>40.8</ele>
        <time>2013-03-01T13:48:26Z</time>
      </trkpt>
      <trkpt lat="46.46254" lon="-1.46117">
        <ele>39.7</ele>
        <time>2013-03-01T13:48:33Z</time>
      </trkpt>
      <trkpt lat="46.46257" lon="-1.46118">
        <ele>39.8</ele>
        <time>2013-03-01T13:48:38Z</time>
      </trkpt>
      <trkpt lat="46.46261" lon="-1.46119">
        <ele>40.5</ele>
        <time>2013-03-01T13:48:43Z</time>
      </trkpt>
      <trkpt lat="46.46265" lon="-1.4612">
        <ele>40.6</ele>
        <time>2013-03-01T13:48:47Z</time>
      </trkpt>
      <trkpt lat="46.46269" lon="-1.4612">
        <ele>41</ele>
        <time>2013-03-01T13:48:52Z</time>
      </trkpt>
      <trkpt lat="46.46273" lon="-1.4612">
        <ele>41.8</ele>
        <time>2013-03-01T13:48:56Z</time>
      </trkpt>
      <trkpt lat="46.46276" lon="-1.4612">
        <ele>41.7</ele>
        <time>2013-03-01T13:49:00Z</time>
      </trkpt>
      <trkpt lat="46.4628" lon="-1.4612">
        <ele>42</ele>
        <time>2013-03-01T13:49:03Z</time>
      </trkpt>
      <trkpt lat="46.46281" lon="-1.4612">
        <ele>42.1</ele>
        <time>2013-03-01T13:49:04Z</time>
      </trkpt>
      <trkpt lat="46.46287" lon="-1.46119">
        <ele>41.1</ele>
        <time>2013-03-01T13:49:09Z</time>
      </trkpt>
      <trkpt lat="46.46291" lon="-1.46118">
        <ele>41.9</ele>
        <time>2013-03-01T13:49:12Z</time>
      </trkpt>
      <trkpt lat="46.46294" lon="-1.46116">
        <ele>42.5</ele>
        <time>2013-03-01T13:49:15Z</time>
      </trkpt>
      <trkpt lat="46.46298" lon="-1.46115">
        <ele>42.3</ele>
        <time>2013-03-01T13:49:19Z</time>
      </trkpt>
      <trkpt lat="46.46301" lon="-1.46113">
        <ele>42.1</ele>
        <time>2013-03-01T13:49:23Z</time>
      </trkpt>
      <trkpt lat="46.46306" lon="-1.46112">
        <ele>42.1</ele>
        <time>2013-03-01T13:49:28Z</time>
      </trkpt>
      <trkpt lat="46.4631" lon="-1.46111">
        <ele>41.7</ele>
        <time>2013-03-01T13:49:32Z</time>
      </trkpt>
      <trkpt lat="46.46314" lon="-1.4611">
        <ele>40.3</ele>
        <time>2013-03-01T13:49:37Z</time>
      </trkpt>
      <trkpt lat="46.46318" lon="-1.4611">
        <ele>40.8</ele>
        <time>2013-03-01T13:49:41Z</time>
      </trkpt>
      <trkpt lat="46.46322" lon="-1.46109">
        <ele>40.6</ele>
        <time>2013-03-01T13:49:45Z</time>
      </trkpt>
      <trkpt lat="46.46326" lon="-1.46108">
        <ele>40.5</ele>
        <time>2013-03-01T13:49:49Z</time>
      </trkpt>
      <trkpt lat="46.46329" lon="-1.46106">
        <ele>40.8</ele>
        <time>2013-03-01T13:49:52Z</time>
      </trkpt>
      <trkpt lat="46.46334" lon="-1.46105">
        <ele>40.8</ele>
        <time>2013-03-01T13:49:55Z</time>
      </trkpt>
      <trkpt lat="46.46338" lon="-1.46105">
        <ele>40.8</ele>
        <time>2013-03-01T13:50:01Z</time>
      </trkpt>
      <trkpt lat="46.46342" lon="-1.46105">
        <ele>40.2</ele>
        <time>2013-03-01T13:51:21Z</time>
      </trkpt>
      <trkpt lat="46.46343" lon="-1.46105">
        <ele>40.1</ele>
        <time>2013-03-01T13:51:22Z</time>
      </trkpt>
      <trkpt lat="46.4635" lon="-1.46103">
        <ele>40.1</ele>
        <time>2013-03-01T13:51:30Z</time>
      </trkpt>
      <trkpt lat="46.46354" lon="-1.46101">
        <ele>40.2</ele>
        <time>2013-03-01T13:51:34Z</time>
      </trkpt>
      <trkpt lat="46.46358" lon="-1.46099">
        <ele>40.5</ele>
        <time>2013-03-01T13:51:38Z</time>
      </trkpt>
      <trkpt lat="46.46361" lon="-1.46097">
        <ele>40.7</ele>
        <time>2013-03-01T13:51:42Z</time>
      </trkpt>
      <trkpt lat="46.46365" lon="-1.46095">
        <ele>40.4</ele>
        <time>2013-03-01T13:51:45Z</time>
      </trkpt>
      <trkpt lat="46.46368" lon="-1.46092">
        <ele>40</ele>
        <time>2013-03-01T13:51:49Z</time>
      </trkpt>
      <trkpt lat="46.46371" lon="-1.4609">
        <ele>40.4</ele>
        <time>2013-03-01T13:51:52Z</time>
      </trkpt>
      <trkpt lat="46.46374" lon="-1.46087">
        <ele>39.9</ele>
        <time>2013-03-01T13:51:55Z</time>
      </trkpt>
      <trkpt lat="46.46377" lon="-1.46084">
        <ele>40</ele>
        <time>2013-03-01T13:51:58Z</time>
      </trkpt>
      <trkpt lat="46.46379" lon="-1.4608">
        <ele>39.6</ele>
        <time>2013-03-01T13:52:01Z</time>
      </trkpt>
      <trkpt lat="46.46382" lon="-1.46076">
        <ele>39.3</ele>
        <time>2013-03-01T13:52:05Z</time>
      </trkpt>
      <trkpt lat="46.46385" lon="-1.46071">
        <ele>39.5</ele>
        <time>2013-03-01T13:52:09Z</time>
      </trkpt>
      <trkpt lat="46.46387" lon="-1.46067">
        <ele>38.9</ele>
        <time>2013-03-01T13:52:12Z</time>
      </trkpt>
      <trkpt lat="46.4639" lon="-1.46064">
        <ele>38.6</ele>
        <time>2013-03-01T13:52:15Z</time>
      </trkpt>
      <trkpt lat="46.46392" lon="-1.4606">
        <ele>38.2</ele>
        <time>2013-03-01T13:52:18Z</time>
      </trkpt>
      <trkpt lat="46.46395" lon="-1.46056">
        <ele>39.1</ele>
        <time>2013-03-01T13:52:21Z</time>
      </trkpt>
      <trkpt lat="46.46398" lon="-1.46053">
        <ele>38.8</ele>
        <time>2013-03-01T13:52:24Z</time>
      </trkpt>
      <trkpt lat="46.46399" lon="-1.46052">
        <ele>38.6</ele>
        <time>2013-03-01T13:52:25Z</time>
      </trkpt>
      <trkpt lat="46.46402" lon="-1.46046">
        <ele>38.1</ele>
        <time>2013-03-01T13:52:30Z</time>
      </trkpt>
      <trkpt lat="46.46405" lon="-1.46041">
        <ele>38.5</ele>
        <time>2013-03-01T13:52:34Z</time>
      </trkpt>
      <trkpt lat="46.46408" lon="-1.46037">
        <ele>37.8</ele>
        <time>2013-03-01T13:52:37Z</time>
      </trkpt>
      <trkpt lat="46.46411" lon="-1.46033">
        <ele>38.1</ele>
        <time>2013-03-01T13:52:41Z</time>
      </trkpt>
      <trkpt lat="46.46414" lon="-1.46028">
        <ele>38.3</ele>
        <time>2013-03-01T13:52:45Z</time>
      </trkpt>
      <trkpt lat="46.46416" lon="-1.46024">
        <ele>38.3</ele>
        <time>2013-03-01T13:52:48Z</time>
      </trkpt>
      <trkpt lat="46.46419" lon="-1.4602">
        <ele>38</ele>
        <time>2013-03-01T13:52:51Z</time>
      </trkpt>
      <trkpt lat="46.46421" lon="-1.46016">
        <ele>37.7</ele>
        <time>2013-03-01T13:52:54Z</time>
      </trkpt>
      <trkpt lat="46.46423" lon="-1.46011">
        <ele>37.8</ele>
        <time>2013-03-01T13:52:58Z</time>
      </trkpt>
      <trkpt lat="46.46426" lon="-1.46007">
        <ele>37.4</ele>
        <time>2013-03-01T13:53:01Z</time>
      </trkpt>
      <trkpt lat="46.46429" lon="-1.46004">
        <ele>37.4</ele>
        <time>2013-03-01T13:53:04Z</time>
      </trkpt>
      <trkpt lat="46.46432" lon="-1.46001">
        <ele>37.7</ele>
        <time>2013-03-01T13:53:07Z</time>
      </trkpt>
      <trkpt lat="46.46435" lon="-1.45998">
        <ele>37.7</ele>
        <time>2013-03-01T13:53:10Z</time>
      </trkpt>
      <trkpt lat="46.46438" lon="-1.45996">
        <ele>37.4</ele>
        <time>2013-03-01T13:53:13Z</time>
      </trkpt>
      <trkpt lat="46.46441" lon="-1.45992">
        <ele>37.9</ele>
        <time>2013-03-01T13:53:16Z</time>
      </trkpt>
      <trkpt lat="46.46443" lon="-1.4599">
        <ele>37.9</ele>
        <time>2013-03-01T13:53:19Z</time>
      </trkpt>
      <trkpt lat="46.46447" lon="-1.45986">
        <ele>38.1</ele>
        <time>2013-03-01T13:53:23Z</time>
      </trkpt>
      <trkpt lat="46.4645" lon="-1.45983">
        <ele>37.6</ele>
        <time>2013-03-01T13:53:29Z</time>
      </trkpt>
      <trkpt lat="46.46451" lon="-1.45982">
        <ele>37.4</ele>
        <time>2013-03-01T13:53:30Z</time>
      </trkpt>
      <trkpt lat="46.46458" lon="-1.45976">
        <ele>36.7</ele>
        <time>2013-03-01T13:53:39Z</time>
      </trkpt>
      <trkpt lat="46.46461" lon="-1.45973">
        <ele>37.5</ele>
        <time>2013-03-01T13:53:43Z</time>
      </trkpt>
      <trkpt lat="46.46464" lon="-1.4597">
        <ele>37.7</ele>
        <time>2013-03-01T13:53:47Z</time>
      </trkpt>
      <trkpt lat="46.46468" lon="-1.45967">
        <ele>37.3</ele>
        <time>2013-03-01T13:53:51Z</time>
      </trkpt>
      <trkpt lat="46.46472" lon="-1.45964">
        <ele>37.3</ele>
        <time>2013-03-01T13:53:55Z</time>
      </trkpt>
      <trkpt lat="46.46475" lon="-1.45961">
        <ele>37</ele>
        <time>2013-03-01T13:53:59Z</time>
      </trkpt>
      <trkpt lat="46.46479" lon="-1.45958">
        <ele>37.7</ele>
        <time>2013-03-01T13:54:03Z</time>
      </trkpt>
      <trkpt lat="46.46481" lon="-1.45954">
        <ele>37.4</ele>
        <time>2013-03-01T13:54:06Z</time>
      </trkpt>
      <trkpt lat="46.46485" lon="-1.45952">
        <ele>37.2</ele>
        <time>2013-03-01T13:54:09Z</time>
      </trkpt>
      <trkpt lat="46.46488" lon="-1.45949">
        <ele>37.1</ele>
        <time>2013-03-01T13:54:12Z</time>
      </trkpt>
      <trkpt lat="46.46492" lon="-1.45946">
        <ele>36.3</ele>
        <time>2013-03-01T13:54:17Z</time>
      </trkpt>
      <trkpt lat="46.46495" lon="-1.45943">
        <ele>36.4</ele>
        <time>2013-03-01T13:54:22Z</time>
      </trkpt>
      <trkpt lat="46.46498" lon="-1.45938">
        <ele>36.9</ele>
        <time>2013-03-01T13:54:27Z</time>
      </trkpt>
      <trkpt lat="46.465" lon="-1.45932">
        <ele>35.7</ele>
        <time>2013-03-01T13:54:33Z</time>
      </trkpt>
      <trkpt lat="46.465" lon="-1.45932">
        <ele>35.6</ele>
        <time>2013-03-01T13:54:34Z</time>
      </trkpt>
      <trkpt lat="46.46504" lon="-1.45922">
        <ele>36.1</ele>
        <time>2013-03-01T13:54:48Z</time>
      </trkpt>
      <trkpt lat="46.46508" lon="-1.45921">
        <ele>36.9</ele>
        <time>2013-03-01T13:55:32Z</time>
      </trkpt>
      <trkpt lat="46.46511" lon="-1.45919">
        <ele>36.4</ele>
        <time>2013-03-01T13:55:37Z</time>
      </trkpt>
      <trkpt lat="46.46512" lon="-1.45919">
        <ele>36.3</ele>
        <time>2013-03-01T13:55:38Z</time>
      </trkpt>
      <trkpt lat="46.46518" lon="-1.45913">
        <ele>36.5</ele>
        <time>2013-03-01T13:55:47Z</time>
      </trkpt>
      <trkpt lat="46.46521" lon="-1.4591">
        <ele>36.5</ele>
        <time>2013-03-01T13:55:51Z</time>
      </trkpt>
      <trkpt lat="46.46525" lon="-1.45908">
        <ele>36.6</ele>
        <time>2013-03-01T13:55:54Z</time>
      </trkpt>
      <trkpt lat="46.46528" lon="-1.45906">
        <ele>37</ele>
        <time>2013-03-01T13:55:57Z</time>
      </trkpt>
      <trkpt lat="46.46532" lon="-1.45904">
        <ele>36.9</ele>
        <time>2013-03-01T13:56:02Z</time>
      </trkpt>
      <trkpt lat="46.46535" lon="-1.45901">
        <ele>36.5</ele>
        <time>2013-03-01T13:56:07Z</time>
      </trkpt>
      <trkpt lat="46.46538" lon="-1.45901">
        <ele>36.4</ele>
        <time>2013-03-01T13:56:10Z</time>
      </trkpt>
      <trkpt lat="46.46542" lon="-1.45901">
        <ele>36.4</ele>
        <time>2013-03-01T13:56:14Z</time>
      </trkpt>
      <trkpt lat="46.46546" lon="-1.45902">
        <ele>35.6</ele>
        <time>2013-03-01T13:56:19Z</time>
      </trkpt>
      <trkpt lat="46.46546" lon="-1.45902">
        <ele>35.6</ele>
        <time>2013-03-01T13:56:19Z</time>
      </trkpt>
      <trkpt lat="46.4655" lon="-1.45905">
        <ele>34.6</ele>
        <time>2013-03-01T13:56:28Z</time>
      </trkpt>
      <trkpt lat="46.46554" lon="-1.45907">
        <ele>34.1</ele>
        <time>2013-03-01T13:56:39Z</time>
      </trkpt>
      <trkpt lat="46.46554" lon="-1.45907">
        <ele>33.9</ele>
        <time>2013-03-01T13:56:40Z</time>
      </trkpt>
      <trkpt lat="46.46561" lon="-1.45911">
        <ele>34</ele>
        <time>2013-03-01T13:56:52Z</time>
      </trkpt>
      <trkpt lat="46.46565" lon="-1.45915">
        <ele>33.9</ele>
        <time>2013-03-01T13:56:58Z</time>
      </trkpt>
      <trkpt lat="46.46569" lon="-1.45915">
        <ele>34.1</ele>
        <time>2013-03-01T13:58:46Z</time>
      </trkpt>
      <trkpt lat="46.46569" lon="-1.45915">
        <ele>34</ele>
        <time>2013-03-01T13:58:47Z</time>
      </trkpt>
      <trkpt lat="46.46577" lon="-1.45919">
        <ele>33.9</ele>
        <time>2013-03-01T13:59:05Z</time>
      </trkpt>
      <trkpt lat="46.4658" lon="-1.4592">
        <ele>33.9</ele>
        <time>2013-03-01T13:59:12Z</time>
      </trkpt>
      <trkpt lat="46.46585" lon="-1.4592">
        <ele>34.1</ele>
        <time>2013-03-01T13:59:18Z</time>
      </trkpt>
      <trkpt lat="46.46588" lon="-1.45922">
        <ele>34.9</ele>
        <time>2013-03-01T13:59:22Z</time>
      </trkpt>
      <trkpt lat="46.46592" lon="-1.45923">
        <ele>34.5</ele>
        <time>2013-03-01T13:59:26Z</time>
      </trkpt>
      <trkpt lat="46.46596" lon="-1.45924">
        <ele>35</ele>
        <time>2013-03-01T13:59:29Z</time>
      </trkpt>
      <trkpt lat="46.466" lon="-1.45925">
        <ele>35.7</ele>
        <time>2013-03-01T13:59:33Z</time>
      </trkpt>
      <trkpt lat="46.46603" lon="-1.45926">
        <ele>36</ele>
        <time>2013-03-01T13:59:37Z</time>
      </trkpt>
      <trkpt lat="46.46607" lon="-1.45926">
        <ele>35.4</ele>
        <time>2013-03-01T13:59:41Z</time>
      </trkpt>
      <trkpt lat="46.46611" lon="-1.45928">
        <ele>35.7</ele>
        <time>2013-03-01T13:59:45Z</time>
      </trkpt>
      <trkpt lat="46.46615" lon="-1.45929">
        <ele>35.7</ele>
        <time>2013-03-01T13:59:50Z</time>
      </trkpt>
      <trkpt lat="46.46616" lon="-1.45929">
        <ele>35.8</ele>
        <time>2013-03-01T13:59:51Z</time>
      </trkpt>
      <trkpt lat="46.46622" lon="-1.45932">
        <ele>36.1</ele>
        <time>2013-03-01T13:59:58Z</time>
      </trkpt>
      <trkpt lat="46.46626" lon="-1.45933">
        <ele>36.2</ele>
        <time>2013-03-01T14:00:02Z</time>
      </trkpt>
      <trkpt lat="46.4663" lon="-1.45935">
        <ele>36.8</ele>
        <time>2013-03-01T14:00:06Z</time>
      </trkpt>
      <trkpt lat="46.46634" lon="-1.45938">
        <ele>37.2</ele>
        <time>2013-03-01T14:00:10Z</time>
      </trkpt>
      <trkpt lat="46.46638" lon="-1.4594">
        <ele>37.5</ele>
        <time>2013-03-01T14:00:14Z</time>
      </trkpt>
      <trkpt lat="46.46642" lon="-1.45942">
        <ele>37.7</ele>
        <time>2013-03-01T14:00:18Z</time>
      </trkpt>
      <trkpt lat="46.46645" lon="-1.45945">
        <ele>38</ele>
        <time>2013-03-01T14:00:22Z</time>
      </trkpt>
      <trkpt lat="46.46648" lon="-1.45947">
        <ele>38.4</ele>
        <time>2013-03-01T14:00:26Z</time>
      </trkpt>
      <trkpt lat="46.46652" lon="-1.4595">
        <ele>37.7</ele>
        <time>2013-03-01T14:00:32Z</time>
      </trkpt>
      <trkpt lat="46.46655" lon="-1.45952">
        <ele>38.1</ele>
        <time>2013-03-01T14:00:36Z</time>
      </trkpt>
      <trkpt lat="46.46658" lon="-1.45955">
        <ele>38</ele>
        <time>2013-03-01T14:00:39Z</time>
      </trkpt>
      <trkpt lat="46.46661" lon="-1.45959">
        <ele>38.9</ele>
        <time>2013-03-01T14:00:43Z</time>
      </trkpt>
      <trkpt lat="46.46664" lon="-1.45963">
        <ele>39.4</ele>
        <time>2013-03-01T14:00:47Z</time>
      </trkpt>
      <trkpt lat="46.46667" lon="-1.45966">
        <ele>39.5</ele>
        <time>2013-03-01T14:00:51Z</time>
      </trkpt>
      <trkpt lat="46.46668" lon="-1.45966">
        <ele>39.9</ele>
        <time>2013-03-01T14:00:52Z</time>
      </trkpt>
      <trkpt lat="46.46673" lon="-1.45972">
        <ele>40.4</ele>
        <time>2013-03-01T14:00:59Z</time>
      </trkpt>
      <trkpt lat="46.46677" lon="-1.45974">
        <ele>41</ele>
        <time>2013-03-01T14:01:05Z</time>
      </trkpt>
      <trkpt lat="46.4668" lon="-1.45978">
        <ele>41.2</ele>
        <time>2013-03-01T14:01:12Z</time>
      </trkpt>
      <trkpt lat="46.46683" lon="-1.45984">
        <ele>41.6</ele>
        <time>2013-03-01T14:01:17Z</time>
      </trkpt>
      <trkpt lat="46.46684" lon="-1.4599">
        <ele>42</ele>
        <time>2013-03-01T14:01:22Z</time>
      </trkpt>
      <trkpt lat="46.46684" lon="-1.45996">
        <ele>42.1</ele>
        <time>2013-03-01T14:01:27Z</time>
      </trkpt>
      <trkpt lat="46.46685" lon="-1.46002">
        <ele>42</ele>
        <time>2013-03-01T14:01:32Z</time>
      </trkpt>
      <trkpt lat="46.46686" lon="-1.46007">
        <ele>41.7</ele>
        <time>2013-03-01T14:01:36Z</time>
      </trkpt>
      <trkpt lat="46.46687" lon="-1.46013">
        <ele>41.1</ele>
        <time>2013-03-01T14:01:41Z</time>
      </trkpt>
      <trkpt lat="46.46687" lon="-1.46019">
        <ele>41.5</ele>
        <time>2013-03-01T14:01:47Z</time>
      </trkpt>
      <trkpt lat="46.46686" lon="-1.46025">
        <ele>42.2</ele>
        <time>2013-03-01T14:01:54Z</time>
      </trkpt>
      <trkpt lat="46.46686" lon="-1.46025">
        <ele>42.3</ele>
        <time>2013-03-01T14:01:55Z</time>
      </trkpt>
      <trkpt lat="46.46686" lon="-1.46025">
        <ele>42.3</ele>
        <time>2013-03-01T14:01:55Z</time>
      </trkpt>
      <trkpt lat="46.46683" lon="-1.46037">
        <ele>40.9</ele>
        <time>2013-03-01T14:02:07Z</time>
      </trkpt>
      <trkpt lat="46.46682" lon="-1.46041">
        <ele>40.7</ele>
        <time>2013-03-01T14:02:11Z</time>
      </trkpt>
      <trkpt lat="46.46679" lon="-1.46046">
        <ele>40.2</ele>
        <time>2013-03-01T14:02:15Z</time>
      </trkpt>
      <trkpt lat="46.46676" lon="-1.4605">
        <ele>40.1</ele>
        <time>2013-03-01T14:02:19Z</time>
      </trkpt>
      <trkpt lat="46.46674" lon="-1.46054">
        <ele>40.7</ele>
        <time>2013-03-01T14:02:22Z</time>
      </trkpt>
      <trkpt lat="46.46671" lon="-1.46058">
        <ele>40.9</ele>
        <time>2013-03-01T14:02:26Z</time>
      </trkpt>
      <trkpt lat="46.46668" lon="-1.46062">
        <ele>40.1</ele>
        <time>2013-03-01T14:02:30Z</time>
      </trkpt>
      <trkpt lat="46.46664" lon="-1.46067">
        <ele>40</ele>
        <time>2013-03-01T14:02:34Z</time>
      </trkpt>
      <trkpt lat="46.46662" lon="-1.4607">
        <ele>40</ele>
        <time>2013-03-01T14:02:37Z</time>
      </trkpt>
      <trkpt lat="46.46659" lon="-1.46073">
        <ele>39.7</ele>
        <time>2013-03-01T14:02:40Z</time>
      </trkpt>
      <trkpt lat="46.46656" lon="-1.46077">
        <ele>39.9</ele>
        <time>2013-03-01T14:02:43Z</time>
      </trkpt>
      <trkpt lat="46.46654" lon="-1.4608">
        <ele>39.8</ele>
        <time>2013-03-01T14:02:46Z</time>
      </trkpt>
      <trkpt lat="46.46651" lon="-1.46084">
        <ele>39.1</ele>
        <time>2013-03-01T14:02:49Z</time>
      </trkpt>
      <trkpt lat="46.46648" lon="-1.46087">
        <ele>39.3</ele>
        <time>2013-03-01T14:02:52Z</time>
      </trkpt>
      <trkpt lat="46.46646" lon="-1.46091">
        <ele>39.2</ele>
        <time>2013-03-01T14:02:55Z</time>
      </trkpt>
      <trkpt lat="46.46645" lon="-1.46093">
        <ele>39.1</ele>
        <time>2013-03-01T14:02:56Z</time>
      </trkpt>
      <trkpt lat="46.4664" lon="-1.461">
        <ele>38.9</ele>
        <time>2013-03-01T14:03:02Z</time>
      </trkpt>
      <trkpt lat="46.46638" lon="-1.46104">
        <ele>38.2</ele>
        <time>2013-03-01T14:03:06Z</time>
      </trkpt>
      <trkpt lat="46.46635" lon="-1.46109">
        <ele>38.1</ele>
        <time>2013-03-01T14:03:10Z</time>
      </trkpt>
      <trkpt lat="46.46632" lon="-1.46112">
        <ele>38.4</ele>
        <time>2013-03-01T14:03:13Z</time>
      </trkpt>
      <trkpt lat="46.46629" lon="-1.46115">
        <ele>38.1</ele>
        <time>2013-03-01T14:03:16Z</time>
      </trkpt>
      <trkpt lat="46.46626" lon="-1.4612">
        <ele>37.6</ele>
        <time>2013-03-01T14:03:20Z</time>
      </trkpt>
      <trkpt lat="46.46623" lon="-1.46123">
        <ele>37.5</ele>
        <time>2013-03-01T14:03:23Z</time>
      </trkpt>
      <trkpt lat="46.4662" lon="-1.46127">
        <ele>37.6</ele>
        <time>2013-03-01T14:03:26Z</time>
      </trkpt>
      <trkpt lat="46.46617" lon="-1.4613">
        <ele>37.3</ele>
        <time>2013-03-01T14:03:29Z</time>
      </trkpt>
      <trkpt lat="46.46615" lon="-1.46133">
        <ele>37.8</ele>
        <time>2013-03-01T14:03:32Z</time>
      </trkpt>
      <trkpt lat="46.46612" lon="-1.46136">
        <ele>37.9</ele>
        <time>2013-03-01T14:03:35Z</time>
      </trkpt>
      <trkpt lat="46.46608" lon="-1.46139">
        <ele>36.9</ele>
        <time>2013-03-01T14:03:38Z</time>
      </trkpt>
      <trkpt lat="46.46605" lon="-1.46142">
        <ele>37.1</ele>
        <time>2013-03-01T14:03:41Z</time>
      </trkpt>
      <trkpt lat="46.46602" lon="-1.46145">
        <ele>37.6</ele>
        <time>2013-03-01T14:03:44Z</time>
      </trkpt>
      <trkpt lat="46.46599" lon="-1.46149">
        <ele>37.3</ele>
        <time>2013-03-01T14:03:48Z</time>
      </trkpt>
      <trkpt lat="46.46595" lon="-1.46153">
        <ele>37.3</ele>
        <time>2013-03-01T14:03:52Z</time>
      </trkpt>
      <trkpt lat="46.46592" lon="-1.46156">
        <ele>37.3</ele>
        <time>2013-03-01T14:03:55Z</time>
      </trkpt>
      <trkpt lat="46.46589" lon="-1.46159">
        <ele>36.5</ele>
        <time>2013-03-01T14:03:59Z</time>
      </trkpt>
      <trkpt lat="46.46588" lon="-1.4616">
        <ele>36.2</ele>
        <time>2013-03-01T14:04:00Z</time>
      </trkpt>
      <trkpt lat="46.46582" lon="-1.46164">
        <ele>36.2</ele>
        <time>2013-03-01T14:04:05Z</time>
      </trkpt>
      <trkpt lat="46.46578" lon="-1.46167">
        <ele>36.2</ele>
        <time>2013-03-01T14:04:08Z</time>
      </trkpt>
      <trkpt lat="46.46574" lon="-1.46168">
        <ele>35.9</ele>
        <time>2013-03-01T14:04:11Z</time>
      </trkpt>
      <trkpt lat="46.46571" lon="-1.4617">
        <ele>35.9</ele>
        <time>2013-03-01T14:04:14Z</time>
      </trkpt>
      <trkpt lat="46.46567" lon="-1.46171">
        <ele>35.6</ele>
        <time>2013-03-01T14:04:17Z</time>
      </trkpt>
      <trkpt lat="46.46563" lon="-1.46173">
        <ele>35.5</ele>
        <time>2013-03-01T14:04:20Z</time>
      </trkpt>
      <trkpt lat="46.46559" lon="-1.46174">
        <ele>35.5</ele>
        <time>2013-03-01T14:04:23Z</time>
      </trkpt>
      <trkpt lat="46.46555" lon="-1.46176">
        <ele>35.7</ele>
        <time>2013-03-01T14:04:27Z</time>
      </trkpt>
      <trkpt lat="46.46551" lon="-1.46178">
        <ele>35.5</ele>
        <time>2013-03-01T14:04:31Z</time>
      </trkpt>
      <trkpt lat="46.46547" lon="-1.46182">
        <ele>35.9</ele>
        <time>2013-03-01T14:04:35Z</time>
      </trkpt>
      <trkpt lat="46.46543" lon="-1.46184">
        <ele>36.1</ele>
        <time>2013-03-01T14:04:39Z</time>
      </trkpt>
      <trkpt lat="46.46539" lon="-1.46185">
        <ele>35.9</ele>
        <time>2013-03-01T14:04:43Z</time>
      </trkpt>
      <trkpt lat="46.46535" lon="-1.46187">
        <ele>35.7</ele>
        <time>2013-03-01T14:04:46Z</time>
      </trkpt>
      <trkpt lat="46.46532" lon="-1.46189">
        <ele>35.3</ele>
        <time>2013-03-01T14:04:49Z</time>
      </trkpt>
      <trkpt lat="46.46528" lon="-1.46191">
        <ele>35.5</ele>
        <time>2013-03-01T14:04:52Z</time>
      </trkpt>
      <trkpt lat="46.46524" lon="-1.46194">
        <ele>35.6</ele>
        <time>2013-03-01T14:04:55Z</time>
      </trkpt>
      <trkpt lat="46.4652" lon="-1.46196">
        <ele>35.3</ele>
        <time>2013-03-01T14:04:58Z</time>
      </trkpt>
      <trkpt lat="46.46517" lon="-1.46199">
        <ele>35.5</ele>
        <time>2013-03-01T14:05:01Z</time>
      </trkpt>
      <trkpt lat="46.46516" lon="-1.462">
        <ele>35.6</ele>
        <time>2013-03-01T14:05:02Z</time>
      </trkpt>
      <trkpt lat="46.4651" lon="-1.46202">
        <ele>35.4</ele>
        <time>2013-03-01T14:05:07Z</time>
      </trkpt>
      <trkpt lat="46.46506" lon="-1.46204">
        <ele>35.3</ele>
        <time>2013-03-01T14:05:10Z</time>
      </trkpt>
      <trkpt lat="46.46503" lon="-1.46206">
        <ele>35.4</ele>
        <time>2013-03-01T14:05:13Z</time>
      </trkpt>
      <trkpt lat="46.46499" lon="-1.46207">
        <ele>35.7</ele>
        <time>2013-03-01T14:05:16Z</time>
      </trkpt>
      <trkpt lat="46.46495" lon="-1.46209">
        <ele>35.7</ele>
        <time>2013-03-01T14:05:20Z</time>
      </trkpt>
      <trkpt lat="46.46491" lon="-1.4621">
        <ele>34.8</ele>
        <time>2013-03-01T14:05:24Z</time>
      </trkpt>
      <trkpt lat="46.46487" lon="-1.4621">
        <ele>35.8</ele>
        <time>2013-03-01T14:05:28Z</time>
      </trkpt>
      <trkpt lat="46.46483" lon="-1.46209">
        <ele>35.9</ele>
        <time>2013-03-01T14:05:33Z</time>
      </trkpt>
      <trkpt lat="46.46479" lon="-1.4621">
        <ele>35.4</ele>
        <time>2013-03-01T14:05:37Z</time>
      </trkpt>
      <trkpt lat="46.46475" lon="-1.4621">
        <ele>35.3</ele>
        <time>2013-03-01T14:05:41Z</time>
      </trkpt>
      <trkpt lat="46.46471" lon="-1.46211">
        <ele>35.8</ele>
        <time>2013-03-01T14:05:45Z</time>
      </trkpt>
      <trkpt lat="46.46467" lon="-1.4621">
        <ele>35.4</ele>
        <time>2013-03-01T14:05:51Z</time>
      </trkpt>
      <trkpt lat="46.46463" lon="-1.46209">
        <ele>35.7</ele>
        <time>2013-03-01T14:06:03Z</time>
      </trkpt>
      <trkpt lat="46.46463" lon="-1.46209">
        <ele>36</ele>
        <time>2013-03-01T14:06:04Z</time>
      </trkpt>
      <trkpt lat="46.46455" lon="-1.46211">
        <ele>35.6</ele>
        <time>2013-03-01T14:06:15Z</time>
      </trkpt>
      <trkpt lat="46.46453" lon="-1.46215">
        <ele>35.6</ele>
        <time>2013-03-01T14:06:27Z</time>
      </trkpt>
      <trkpt lat="46.46453" lon="-1.46215">
        <ele>35.6</ele>
        <time>2013-03-01T14:06:27Z</time>
      </trkpt>
      <trkpt lat="46.46454" lon="-1.46221">
        <ele>35.1</ele>
        <time>2013-03-01T14:06:35Z</time>
      </trkpt>
      <trkpt lat="46.46457" lon="-1.46226">
        <ele>35.2</ele>
        <time>2013-03-01T14:06:41Z</time>
      </trkpt>
      <trkpt lat="46.46459" lon="-1.4623">
        <ele>35.4</ele>
        <time>2013-03-01T14:06:45Z</time>
      </trkpt>
      <trkpt lat="46.46462" lon="-1.46235">
        <ele>36.3</ele>
        <time>2013-03-01T14:06:50Z</time>
      </trkpt>
      <trkpt lat="46.46464" lon="-1.4624">
        <ele>36.4</ele>
        <time>2013-03-01T14:06:54Z</time>
      </trkpt>
      <trkpt lat="46.46467" lon="-1.46244">
        <ele>36.9</ele>
        <time>2013-03-01T14:06:58Z</time>
      </trkpt>
      <trkpt lat="46.46469" lon="-1.46248">
        <ele>37</ele>
        <time>2013-03-01T14:07:02Z</time>
      </trkpt>
      <trkpt lat="46.46471" lon="-1.46254">
        <ele>37.9</ele>
        <time>2013-03-01T14:07:07Z</time>
      </trkpt>
      <trkpt lat="46.46472" lon="-1.46255">
        <ele>37.9</ele>
        <time>2013-03-01T14:07:08Z</time>
      </trkpt>
      <trkpt lat="46.46475" lon="-1.46263">
        <ele>37.6</ele>
        <time>2013-03-01T14:07:15Z</time>
      </trkpt>
      <trkpt lat="46.46478" lon="-1.46268">
        <ele>37.8</ele>
        <time>2013-03-01T14:07:19Z</time>
      </trkpt>
      <trkpt lat="46.46481" lon="-1.46272">
        <ele>37.9</ele>
        <time>2013-03-01T14:07:23Z</time>
      </trkpt>
      <trkpt lat="46.46484" lon="-1.46276">
        <ele>38.1</ele>
        <time>2013-03-01T14:07:27Z</time>
      </trkpt>
      <trkpt lat="46.46486" lon="-1.46282">
        <ele>38.4</ele>
        <time>2013-03-01T14:07:32Z</time>
      </trkpt>
      <trkpt lat="46.46489" lon="-1.46287">
        <ele>38.1</ele>
        <time>2013-03-01T14:07:37Z</time>
      </trkpt>
      <trkpt lat="46.46491" lon="-1.46291">
        <ele>38.5</ele>
        <time>2013-03-01T14:07:42Z</time>
      </trkpt>
      <trkpt lat="46.46494" lon="-1.46296">
        <ele>38.1</ele>
        <time>2013-03-01T14:07:46Z</time>
      </trkpt>
      <trkpt lat="46.46496" lon="-1.46301">
        <ele>38.4</ele>
        <time>2013-03-01T14:07:50Z</time>
      </trkpt>
      <trkpt lat="46.46498" lon="-1.46306">
        <ele>38.3</ele>
        <time>2013-03-01T14:07:54Z</time>
      </trkpt>
      <trkpt lat="46.465" lon="-1.46311">
        <ele>38</ele>
        <time>2013-03-01T14:07:57Z</time>
      </trkpt>
      <trkpt lat="46.46502" lon="-1.46316">
        <ele>38</ele>
        <time>2013-03-01T14:08:01Z</time>
      </trkpt>
      <trkpt lat="46.46505" lon="-1.46321">
        <ele>38.9</ele>
        <time>2013-03-01T14:08:05Z</time>
      </trkpt>
      <trkpt lat="46.46507" lon="-1.46326">
        <ele>39</ele>
        <time>2013-03-01T14:08:09Z</time>
      </trkpt>
      <trkpt lat="46.46508" lon="-1.46327">
        <ele>39</ele>
        <time>2013-03-01T14:08:10Z</time>
      </trkpt>
      <trkpt lat="46.46511" lon="-1.46335">
        <ele>38.4</ele>
        <time>2013-03-01T14:08:17Z</time>
      </trkpt>
      <trkpt lat="46.46513" lon="-1.4634">
        <ele>38.5</ele>
        <time>2013-03-01T14:08:21Z</time>
      </trkpt>
      <trkpt lat="46.46515" lon="-1.46344">
        <ele>38.4</ele>
        <time>2013-03-01T14:08:24Z</time>
      </trkpt>
      <trkpt lat="46.46517" lon="-1.46348">
        <ele>38.6</ele>
        <time>2013-03-01T14:08:27Z</time>
      </trkpt>
      <trkpt lat="46.4652" lon="-1.46352">
        <ele>39.1</ele>
        <time>2013-03-01T14:08:31Z</time>
      </trkpt>
      <trkpt lat="46.46522" lon="-1.46357">
        <ele>38.7</ele>
        <time>2013-03-01T14:08:34Z</time>
      </trkpt>
      <trkpt lat="46.46523" lon="-1.46361">
        <ele>38.5</ele>
        <time>2013-03-01T14:08:37Z</time>
      </trkpt>
      <trkpt lat="46.46526" lon="-1.46366">
        <ele>38.7</ele>
        <time>2013-03-01T14:08:40Z</time>
      </trkpt>
      <trkpt lat="46.46528" lon="-1.46371">
        <ele>38.6</ele>
        <time>2013-03-01T14:08:43Z</time>
      </trkpt>
      <trkpt lat="46.4653" lon="-1.46376">
        <ele>39.1</ele>
        <time>2013-03-01T14:08:47Z</time>
      </trkpt>
      <trkpt lat="46.46533" lon="-1.4638">
        <ele>39.5</ele>
        <time>2013-03-01T14:08:51Z</time>
      </trkpt>
      <trkpt lat="46.46536" lon="-1.46385">
        <ele>39.4</ele>
        <time>2013-03-01T14:08:55Z</time>
      </trkpt>
      <trkpt lat="46.46538" lon="-1.46389">
        <ele>39.5</ele>
        <time>2013-03-01T14:08:59Z</time>
      </trkpt>
      <trkpt lat="46.46541" lon="-1.46393">
        <ele>40</ele>
        <time>2013-03-01T14:09:03Z</time>
      </trkpt>
      <trkpt lat="46.46544" lon="-1.46396">
        <ele>39.8</ele>
        <time>2013-03-01T14:09:06Z</time>
      </trkpt>
      <trkpt lat="46.46547" lon="-1.46399">
        <ele>40.3</ele>
        <time>2013-03-01T14:09:09Z</time>
      </trkpt>
      <trkpt lat="46.4655" lon="-1.46403">
        <ele>39.8</ele>
        <time>2013-03-01T14:09:13Z</time>
      </trkpt>
      <trkpt lat="46.46551" lon="-1.46404">
        <ele>39.8</ele>
        <time>2013-03-01T14:09:14Z</time>
      </trkpt>
      <trkpt lat="46.46555" lon="-1.4641">
        <ele>39.9</ele>
        <time>2013-03-01T14:09:18Z</time>
      </trkpt>
      <trkpt lat="46.46558" lon="-1.46413">
        <ele>40.4</ele>
        <time>2013-03-01T14:09:21Z</time>
      </trkpt>
      <trkpt lat="46.46561" lon="-1.46417">
        <ele>40.5</ele>
        <time>2013-03-01T14:09:24Z</time>
      </trkpt>
      <trkpt lat="46.46564" lon="-1.4642">
        <ele>40.7</ele>
        <time>2013-03-01T14:09:27Z</time>
      </trkpt>
      <trkpt lat="46.46567" lon="-1.46424">
        <ele>40.5</ele>
        <time>2013-03-01T14:09:30Z</time>
      </trkpt>
      <trkpt lat="46.4657" lon="-1.46428">
        <ele>40.2</ele>
        <time>2013-03-01T14:09:33Z</time>
      </trkpt>
      <trkpt lat="46.46573" lon="-1.46431">
        <ele>40.6</ele>
        <time>2013-03-01T14:09:36Z</time>
      </trkpt>
      <trkpt lat="46.46576" lon="-1.46434">
        <ele>41.2</ele>
        <time>2013-03-01T14:09:39Z</time>
      </trkpt>
      <trkpt lat="46.46579" lon="-1.46436">
        <ele>40.9</ele>
        <time>2013-03-01T14:09:42Z</time>
      </trkpt>
      <trkpt lat="46.46582" lon="-1.4644">
        <ele>40.8</ele>
        <time>2013-03-01T14:09:45Z</time>
      </trkpt>
      <trkpt lat="46.46585" lon="-1.46443">
        <ele>41.2</ele>
        <time>2013-03-01T14:09:48Z</time>
      </trkpt>
      <trkpt lat="46.46587" lon="-1.46447">
        <ele>41.2</ele>
        <time>2013-03-01T14:09:51Z</time>
      </trkpt>
      <trkpt lat="46.4659" lon="-1.4645">
        <ele>41.1</ele>
        <time>2013-03-01T14:09:54Z</time>
      </trkpt>
      <trkpt lat="46.46593" lon="-1.46454">
        <ele>41.6</ele>
        <time>2013-03-01T14:09:58Z</time>
      </trkpt>
      <trkpt lat="46.46596" lon="-1.46458">
        <ele>41.7</ele>
        <time>2013-03-01T14:10:02Z</time>
      </trkpt>
      <trkpt lat="46.466" lon="-1.46461">
        <ele>41.2</ele>
        <time>2013-03-01T14:10:06Z</time>
      </trkpt>
      <trkpt lat="46.46602" lon="-1.46465">
        <ele>41.4</ele>
        <time>2013-03-01T14:10:09Z</time>
      </trkpt>
      <trkpt lat="46.46605" lon="-1.46469">
        <ele>41.8</ele>
        <time>2013-03-01T14:10:13Z</time>
      </trkpt>
      <trkpt lat="46.46607" lon="-1.46473">
        <ele>42.1</ele>
        <time>2013-03-01T14:10:16Z</time>
      </trkpt>
      <trkpt lat="46.46608" lon="-1.46474">
        <ele>42</ele>
        <time>2013-03-01T14:10:17Z</time>
      </trkpt>
      <trkpt lat="46.46611" lon="-1.46481">
        <ele>41.9</ele>
        <time>2013-03-01T14:10:22Z</time>
      </trkpt>
      <trkpt lat="46.46614" lon="-1.46485">
        <ele>41.8</ele>
        <time>2013-03-01T14:10:25Z</time>
      </trkpt>
      <trkpt lat="46.46616" lon="-1.46488">
        <ele>42</ele>
        <time>2013-03-01T14:10:28Z</time>
      </trkpt>
      <trkpt lat="46.46618" lon="-1.46492">
        <ele>42.6</ele>
        <time>2013-03-01T14:10:31Z</time>
      </trkpt>
      <trkpt lat="46.46621" lon="-1.46497">
        <ele>43.1</ele>
        <time>2013-03-01T14:10:35Z</time>
      </trkpt>
      <trkpt lat="46.46624" lon="-1.46501">
        <ele>42.7</ele>
        <time>2013-03-01T14:10:39Z</time>
      </trkpt>
      <trkpt lat="46.46627" lon="-1.46506">
        <ele>42.9</ele>
        <time>2013-03-01T14:10:43Z</time>
      </trkpt>
      <trkpt lat="46.4663" lon="-1.4651">
        <ele>42.2</ele>
        <time>2013-03-01T14:10:48Z</time>
      </trkpt>
      <trkpt lat="46.46632" lon="-1.46515">
        <ele>42.5</ele>
        <time>2013-03-01T14:10:52Z</time>
      </trkpt>
      <trkpt lat="46.46634" lon="-1.4652">
        <ele>43</ele>
        <time>2013-03-01T14:10:56Z</time>
      </trkpt>
      <trkpt lat="46.46636" lon="-1.46524">
        <ele>43.3</ele>
        <time>2013-03-01T14:11:00Z</time>
      </trkpt>
      <trkpt lat="46.46638" lon="-1.46529">
        <ele>43.5</ele>
        <time>2013-03-01T14:11:04Z</time>
      </trkpt>
      <trkpt lat="46.46639" lon="-1.46534">
        <ele>43.4</ele>
        <time>2013-03-01T14:11:08Z</time>
      </trkpt>
      <trkpt lat="46.46641" lon="-1.46539">
        <ele>43.5</ele>
        <time>2013-03-01T14:11:12Z</time>
      </trkpt>
      <trkpt lat="46.46642" lon="-1.46545">
        <ele>44</ele>
        <time>2013-03-01T14:11:16Z</time>
      </trkpt>
      <trkpt lat="46.46645" lon="-1.4655">
        <ele>44.2</ele>
        <time>2013-03-01T14:11:20Z</time>
      </trkpt>
      <trkpt lat="46.46645" lon="-1.46551">
        <ele>44.2</ele>
        <time>2013-03-01T14:11:21Z</time>
      </trkpt>
      <trkpt lat="46.46648" lon="-1.4656">
        <ele>44.4</ele>
        <time>2013-03-01T14:11:27Z</time>
      </trkpt>
      <trkpt lat="46.4665" lon="-1.46565">
        <ele>44.6</ele>
        <time>2013-03-01T14:11:31Z</time>
      </trkpt>
      <trkpt lat="46.46651" lon="-1.46571">
        <ele>44.7</ele>
        <time>2013-03-01T14:11:35Z</time>
      </trkpt>
      <trkpt lat="46.46652" lon="-1.46576">
        <ele>44.6</ele>
        <time>2013-03-01T14:11:38Z</time>
      </trkpt>
      <trkpt lat="46.46653" lon="-1.46581">
        <ele>44.8</ele>
        <time>2013-03-01T14:11:41Z</time>
      </trkpt>
      <trkpt lat="46.46654" lon="-1.46587">
        <ele>44.6</ele>
        <time>2013-03-01T14:11:44Z</time>
      </trkpt>
      <trkpt lat="46.46656" lon="-1.46592">
        <ele>44.8</ele>
        <time>2013-03-01T14:11:47Z</time>
      </trkpt>
      <trkpt lat="46.46657" lon="-1.46597">
        <ele>45.3</ele>
        <time>2013-03-01T14:11:50Z</time>
      </trkpt>
      <trkpt lat="46.46658" lon="-1.46603">
        <ele>45.5</ele>
        <time>2013-03-01T14:11:53Z</time>
      </trkpt>
      <trkpt lat="46.4666" lon="-1.46608">
        <ele>45.8</ele>
        <time>2013-03-01T14:11:56Z</time>
      </trkpt>
      <trkpt lat="46.46661" lon="-1.46613">
        <ele>46</ele>
        <time>2013-03-01T14:11:59Z</time>
      </trkpt>
      <trkpt lat="46.46663" lon="-1.46617">
        <ele>45.8</ele>
        <time>2013-03-01T14:12:02Z</time>
      </trkpt>
      <trkpt lat="46.46665" lon="-1.46623">
        <ele>45.6</ele>
        <time>2013-03-01T14:12:06Z</time>
      </trkpt>
      <trkpt lat="46.46666" lon="-1.46628">
        <ele>45.7</ele>
        <time>2013-03-01T14:12:09Z</time>
      </trkpt>
      <trkpt lat="46.46668" lon="-1.46633">
        <ele>45.2</ele>
        <time>2013-03-01T14:12:12Z</time>
      </trkpt>
      <trkpt lat="46.46669" lon="-1.46638">
        <ele>45.7</ele>
        <time>2013-03-01T14:12:15Z</time>
      </trkpt>
      <trkpt lat="46.46669" lon="-1.46642">
        <ele>45.6</ele>
        <time>2013-03-01T14:12:18Z</time>
      </trkpt>
      <trkpt lat="46.4667" lon="-1.46648">
        <ele>45.9</ele>
        <time>2013-03-01T14:12:21Z</time>
      </trkpt>
      <trkpt lat="46.4667" lon="-1.4665">
        <ele>46.1</ele>
        <time>2013-03-01T14:12:22Z</time>
      </trkpt>
      <trkpt lat="46.46672" lon="-1.46659">
        <ele>45.4</ele>
        <time>2013-03-01T14:12:27Z</time>
      </trkpt>
      <trkpt lat="46.46673" lon="-1.46664">
        <ele>45.2</ele>
        <time>2013-03-01T14:12:30Z</time>
      </trkpt>
      <trkpt lat="46.46674" lon="-1.46669">
        <ele>45.6</ele>
        <time>2013-03-01T14:12:33Z</time>
      </trkpt>
      <trkpt lat="46.46674" lon="-1.46674">
        <ele>45.5</ele>
        <time>2013-03-01T14:12:36Z</time>
      </trkpt>
      <trkpt lat="46.46675" lon="-1.46679">
        <ele>45.8</ele>
        <time>2013-03-01T14:12:39Z</time>
      </trkpt>
      <trkpt lat="46.46676" lon="-1.46684">
        <ele>45.9</ele>
        <time>2013-03-01T14:12:42Z</time>
      </trkpt>
      <trkpt lat="46.46677" lon="-1.4669">
        <ele>45.3</ele>
        <time>2013-03-01T14:12:46Z</time>
      </trkpt>
      <trkpt lat="46.46678" lon="-1.46695">
        <ele>45.1</ele>
        <time>2013-03-01T14:12:49Z</time>
      </trkpt>
      <trkpt lat="46.46678" lon="-1.467">
        <ele>45.7</ele>
        <time>2013-03-01T14:12:52Z</time>
      </trkpt>
      <trkpt lat="46.46679" lon="-1.46705">
        <ele>45.3</ele>
        <time>2013-03-01T14:12:55Z</time>
      </trkpt>
      <trkpt lat="46.4668" lon="-1.4671">
        <ele>45.1</ele>
        <time>2013-03-01T14:12:58Z</time>
      </trkpt>
      <trkpt lat="46.46681" lon="-1.46716">
        <ele>45.6</ele>
        <time>2013-03-01T14:13:02Z</time>
      </trkpt>
      <trkpt lat="46.46681" lon="-1.46722">
        <ele>46.2</ele>
        <time>2013-03-01T14:13:06Z</time>
      </trkpt>
      <trkpt lat="46.46682" lon="-1.46727">
        <ele>46.2</ele>
        <time>2013-03-01T14:13:09Z</time>
      </trkpt>
      <trkpt lat="46.46683" lon="-1.46733">
        <ele>45.2</ele>
        <time>2013-03-01T14:13:13Z</time>
      </trkpt>
      <trkpt lat="46.46684" lon="-1.46738">
        <ele>45.4</ele>
        <time>2013-03-01T14:13:16Z</time>
      </trkpt>
      <trkpt lat="46.46685" lon="-1.46744">
        <ele>45.9</ele>
        <time>2013-03-01T14:13:20Z</time>
      </trkpt>
      <trkpt lat="46.46685" lon="-1.4675">
        <ele>45.8</ele>
        <time>2013-03-01T14:13:24Z</time>
      </trkpt>
      <trkpt lat="46.46686" lon="-1.46752">
        <ele>45.7</ele>
        <time>2013-03-01T14:13:25Z</time>
      </trkpt>
      <trkpt lat="46.46687" lon="-1.4676">
        <ele>46.3</ele>
        <time>2013-03-01T14:13:30Z</time>
      </trkpt>
      <trkpt lat="46.46687" lon="-1.46765">
        <ele>46.4</ele>
        <time>2013-03-01T14:13:33Z</time>
      </trkpt>
      <trkpt lat="46.46687" lon="-1.46771">
        <ele>46</ele>
        <time>2013-03-01T14:13:36Z</time>
      </trkpt>
      <trkpt lat="46.46687" lon="-1.46777">
        <ele>45.8</ele>
        <time>2013-03-01T14:13:40Z</time>
      </trkpt>
      <trkpt lat="46.46687" lon="-1.46783">
        <ele>45.9</ele>
        <time>2013-03-01T14:13:44Z</time>
      </trkpt>
      <trkpt lat="46.46688" lon="-1.46789">
        <ele>45.9</ele>
        <time>2013-03-01T14:13:48Z</time>
      </trkpt>
      <trkpt lat="46.46688" lon="-1.46795">
        <ele>46.4</ele>
        <time>2013-03-01T14:13:52Z</time>
      </trkpt>
      <trkpt lat="46.46687" lon="-1.468">
        <ele>45.7</ele>
        <time>2013-03-01T14:13:55Z</time>
      </trkpt>
      <trkpt lat="46.46687" lon="-1.46805">
        <ele>45.5</ele>
        <time>2013-03-01T14:13:58Z</time>
      </trkpt>
      <trkpt lat="46.46686" lon="-1.4681">
        <ele>45.9</ele>
        <time>2013-03-01T14:14:01Z</time>
      </trkpt>
      <trkpt lat="46.46686" lon="-1.46815">
        <ele>45.4</ele>
        <time>2013-03-01T14:14:04Z</time>
      </trkpt>
      <trkpt lat="46.46685" lon="-1.46821">
        <ele>45.9</ele>
        <time>2013-03-01T14:14:08Z</time>
      </trkpt>
      <trkpt lat="46.46685" lon="-1.46826">
        <ele>45.9</ele>
        <time>2013-03-01T14:14:11Z</time>
      </trkpt>
      <trkpt lat="46.46684" lon="-1.46831">
        <ele>45.6</ele>
        <time>2013-03-01T14:14:14Z</time>
      </trkpt>
      <trkpt lat="46.46684" lon="-1.46836">
        <ele>45.5</ele>
        <time>2013-03-01T14:14:17Z</time>
      </trkpt>
      <trkpt lat="46.46684" lon="-1.46841">
        <ele>45.5</ele>
        <time>2013-03-01T14:14:20Z</time>
      </trkpt>
      <trkpt lat="46.46684" lon="-1.46848">
        <ele>45</ele>
        <time>2013-03-01T14:14:24Z</time>
      </trkpt>
      <trkpt lat="46.46684" lon="-1.46854">
        <ele>44.7</ele>
        <time>2013-03-01T14:14:28Z</time>
      </trkpt>
      <trkpt lat="46.46684" lon="-1.46855">
        <ele>44.6</ele>
        <time>2013-03-01T14:14:29Z</time>
      </trkpt>
      <trkpt lat="46.46684" lon="-1.46865">
        <ele>44.9</ele>
        <time>2013-03-01T14:14:36Z</time>
      </trkpt>
      <trkpt lat="46.46683" lon="-1.46872">
        <ele>45.1</ele>
        <time>2013-03-01T14:14:40Z</time>
      </trkpt>
      <trkpt lat="46.46682" lon="-1.46876">
        <ele>45</ele>
        <time>2013-03-01T14:14:43Z</time>
      </trkpt>
      <trkpt lat="46.46681" lon="-1.46882">
        <ele>44.7</ele>
        <time>2013-03-01T14:14:48Z</time>
      </trkpt>
      <trkpt lat="46.46682" lon="-1.46888">
        <ele>44.4</ele>
        <time>2013-03-01T14:15:03Z</time>
      </trkpt>
      <trkpt lat="46.46682" lon="-1.46894">
        <ele>44.1</ele>
        <time>2013-03-01T14:15:27Z</time>
      </trkpt>
      <trkpt lat="46.46682" lon="-1.469">
        <ele>44.2</ele>
        <time>2013-03-01T14:15:32Z</time>
      </trkpt>
      <trkpt lat="46.46682" lon="-1.46901">
        <ele>44.3</ele>
        <time>2013-03-01T14:15:33Z</time>
      </trkpt>
      <trkpt lat="46.46684" lon="-1.46912">
        <ele>43.1</ele>
        <time>2013-03-01T14:15:48Z</time>
      </trkpt>
      <trkpt lat="46.46684" lon="-1.46918">
        <ele>43.4</ele>
        <time>2013-03-01T14:15:53Z</time>
      </trkpt>
      <trkpt lat="46.46684" lon="-1.46924">
        <ele>43.5</ele>
        <time>2013-03-01T14:15:59Z</time>
      </trkpt>
      <trkpt lat="46.46684" lon="-1.4693">
        <ele>43</ele>
        <time>2013-03-01T14:16:04Z</time>
      </trkpt>
      <trkpt lat="46.46684" lon="-1.46936">
        <ele>42.7</ele>
        <time>2013-03-01T14:16:08Z</time>
      </trkpt>
      <trkpt lat="46.46685" lon="-1.46941">
        <ele>42.6</ele>
        <time>2013-03-01T14:16:12Z</time>
      </trkpt>
      <trkpt lat="46.46685" lon="-1.46948">
        <ele>41.9</ele>
        <time>2013-03-01T14:16:16Z</time>
      </trkpt>
      <trkpt lat="46.46685" lon="-1.46954">
        <ele>42.1</ele>
        <time>2013-03-01T14:16:20Z</time>
      </trkpt>
      <trkpt lat="46.46685" lon="-1.4696">
        <ele>41.6</ele>
        <time>2013-03-01T14:16:23Z</time>
      </trkpt>
      <trkpt lat="46.46686" lon="-1.46965">
        <ele>41.5</ele>
        <time>2013-03-01T14:16:27Z</time>
      </trkpt>
      <trkpt lat="46.46686" lon="-1.46972">
        <ele>41.9</ele>
        <time>2013-03-01T14:16:31Z</time>
      </trkpt>
      <trkpt lat="46.46686" lon="-1.46978">
        <ele>41.6</ele>
        <time>2013-03-01T14:16:35Z</time>
      </trkpt>
      <trkpt lat="46.46686" lon="-1.46979">
        <ele>41.2</ele>
        <time>2013-03-01T14:16:36Z</time>
      </trkpt>
      <trkpt lat="46.46687" lon="-1.4699">
        <ele>40.9</ele>
        <time>2013-03-01T14:16:43Z</time>
      </trkpt>
      <trkpt lat="46.46688" lon="-1.46996">
        <ele>40.6</ele>
        <time>2013-03-01T14:16:47Z</time>
      </trkpt>
      <trkpt lat="46.46689" lon="-1.47002">
        <ele>40.3</ele>
        <time>2013-03-01T14:16:51Z</time>
      </trkpt>
      <trkpt lat="46.4669" lon="-1.47009">
        <ele>39.6</ele>
        <time>2013-03-01T14:16:55Z</time>
      </trkpt>
      <trkpt lat="46.4669" lon="-1.47015">
        <ele>39.7</ele>
        <time>2013-03-01T14:16:59Z</time>
      </trkpt>
      <trkpt lat="46.46692" lon="-1.47021">
        <ele>40.1</ele>
        <time>2013-03-01T14:17:03Z</time>
      </trkpt>
      <trkpt lat="46.46693" lon="-1.47027">
        <ele>40</ele>
        <time>2013-03-01T14:17:07Z</time>
      </trkpt>
      <trkpt lat="46.46694" lon="-1.47033">
        <ele>39.3</ele>
        <time>2013-03-01T14:17:11Z</time>
      </trkpt>
      <trkpt lat="46.46695" lon="-1.47039">
        <ele>39.4</ele>
        <time>2013-03-01T14:17:15Z</time>
      </trkpt>
      <trkpt lat="46.46695" lon="-1.47044">
        <ele>39.2</ele>
        <time>2013-03-01T14:17:18Z</time>
      </trkpt>
      <trkpt lat="46.46696" lon="-1.47049">
        <ele>39.2</ele>
        <time>2013-03-01T14:17:21Z</time>
      </trkpt>
      <trkpt lat="46.46698" lon="-1.47055">
        <ele>39.2</ele>
        <time>2013-03-01T14:17:25Z</time>
      </trkpt>
      <trkpt lat="46.46699" lon="-1.4706">
        <ele>39.2</ele>
        <time>2013-03-01T14:17:28Z</time>
      </trkpt>
      <trkpt lat="46.46698" lon="-1.47066">
        <ele>38.5</ele>
        <time>2013-03-01T14:17:32Z</time>
      </trkpt>
      <trkpt lat="46.46698" lon="-1.47072">
        <ele>38.9</ele>
        <time>2013-03-01T14:17:37Z</time>
      </trkpt>
      <trkpt lat="46.46698" lon="-1.47073">
        <ele>38.6</ele>
        <time>2013-03-01T14:17:38Z</time>
      </trkpt>
      <trkpt lat="46.46698" lon="-1.47084">
        <ele>38.1</ele>
        <time>2013-03-01T14:17:46Z</time>
      </trkpt>
      <trkpt lat="46.46699" lon="-1.47089">
        <ele>38.4</ele>
        <time>2013-03-01T14:17:50Z</time>
      </trkpt>
      <trkpt lat="46.46701" lon="-1.47094">
        <ele>38.1</ele>
        <time>2013-03-01T14:17:54Z</time>
      </trkpt>
      <trkpt lat="46.46703" lon="-1.471">
        <ele>38.6</ele>
        <time>2013-03-01T14:17:58Z</time>
      </trkpt>
      <trkpt lat="46.46705" lon="-1.47106">
        <ele>38.8</ele>
        <time>2013-03-01T14:18:02Z</time>
      </trkpt>
      <trkpt lat="46.46707" lon="-1.47111">
        <ele>38.3</ele>
        <time>2013-03-01T14:18:06Z</time>
      </trkpt>
      <trkpt lat="46.46708" lon="-1.47116">
        <ele>38.4</ele>
        <time>2013-03-01T14:18:09Z</time>
      </trkpt>
      <trkpt lat="46.4671" lon="-1.47122">
        <ele>38.7</ele>
        <time>2013-03-01T14:18:13Z</time>
      </trkpt>
      <trkpt lat="46.46713" lon="-1.47126">
        <ele>38.7</ele>
        <time>2013-03-01T14:18:17Z</time>
      </trkpt>
      <trkpt lat="46.46715" lon="-1.47132">
        <ele>38.7</ele>
        <time>2013-03-01T14:18:21Z</time>
      </trkpt>
      <trkpt lat="46.46718" lon="-1.47137">
        <ele>38.8</ele>
        <time>2013-03-01T14:18:25Z</time>
      </trkpt>
      <trkpt lat="46.46719" lon="-1.47141">
        <ele>38.4</ele>
        <time>2013-03-01T14:18:28Z</time>
      </trkpt>
      <trkpt lat="46.46721" lon="-1.47146">
        <ele>38.4</ele>
        <time>2013-03-01T14:18:31Z</time>
      </trkpt>
      <trkpt lat="46.46723" lon="-1.47151">
        <ele>38.6</ele>
        <time>2013-03-01T14:18:34Z</time>
      </trkpt>
      <trkpt lat="46.46724" lon="-1.47156">
        <ele>38.1</ele>
        <time>2013-03-01T14:18:37Z</time>
      </trkpt>
      <trkpt lat="46.46725" lon="-1.47162">
        <ele>38.4</ele>
        <time>2013-03-01T14:18:41Z</time>
      </trkpt>
      <trkpt lat="46.46726" lon="-1.47163">
        <ele>38.4</ele>
        <time>2013-03-01T14:18:42Z</time>
      </trkpt>
      <trkpt lat="46.46729" lon="-1.47171">
        <ele>38.9</ele>
        <time>2013-03-01T14:18:47Z</time>
      </trkpt>
      <trkpt lat="46.46731" lon="-1.47176">
        <ele>38.6</ele>
        <time>2013-03-01T14:18:51Z</time>
      </trkpt>
      <trkpt lat="46.46734" lon="-1.47181">
        <ele>39.2</ele>
        <time>2013-03-01T14:18:55Z</time>
      </trkpt>
      <trkpt lat="46.46735" lon="-1.47187">
        <ele>38.9</ele>
        <time>2013-03-01T14:18:59Z</time>
      </trkpt>
      <trkpt lat="46.46737" lon="-1.47192">
        <ele>38.7</ele>
        <time>2013-03-01T14:19:03Z</time>
      </trkpt>
      <trkpt lat="46.46738" lon="-1.47198">
        <ele>38.7</ele>
        <time>2013-03-01T14:19:07Z</time>
      </trkpt>
      <trkpt lat="46.4674" lon="-1.47204">
        <ele>40</ele>
        <time>2013-03-01T14:19:11Z</time>
      </trkpt>
      <trkpt lat="46.46741" lon="-1.47208">
        <ele>39.5</ele>
        <time>2013-03-01T14:19:14Z</time>
      </trkpt>
      <trkpt lat="46.46743" lon="-1.47214">
        <ele>39.6</ele>
        <time>2013-03-01T14:19:18Z</time>
      </trkpt>
      <trkpt lat="46.46744" lon="-1.47219">
        <ele>40.2</ele>
        <time>2013-03-01T14:19:21Z</time>
      </trkpt>
      <trkpt lat="46.46745" lon="-1.47224">
        <ele>40.5</ele>
        <time>2013-03-01T14:19:24Z</time>
      </trkpt>
      <trkpt lat="46.46747" lon="-1.47229">
        <ele>40.5</ele>
        <time>2013-03-01T14:19:27Z</time>
      </trkpt>
      <trkpt lat="46.46749" lon="-1.47234">
        <ele>40.4</ele>
        <time>2013-03-01T14:19:31Z</time>
      </trkpt>
      <trkpt lat="46.46752" lon="-1.47239">
        <ele>40</ele>
        <time>2013-03-01T14:19:35Z</time>
      </trkpt>
      <trkpt lat="46.46754" lon="-1.47244">
        <ele>40.3</ele>
        <time>2013-03-01T14:19:39Z</time>
      </trkpt>
      <trkpt lat="46.46756" lon="-1.47249">
        <ele>41.4</ele>
        <time>2013-03-01T14:19:43Z</time>
      </trkpt>
      <trkpt lat="46.46756" lon="-1.47251">
        <ele>41.4</ele>
        <time>2013-03-01T14:19:44Z</time>
      </trkpt>
      <trkpt lat="46.4676" lon="-1.4726">
        <ele>41.5</ele>
        <time>2013-03-01T14:19:50Z</time>
      </trkpt>
      <trkpt lat="46.46761" lon="-1.47265">
        <ele>42</ele>
        <time>2013-03-01T14:19:53Z</time>
      </trkpt>
      <trkpt lat="46.46763" lon="-1.47271">
        <ele>41.8</ele>
        <time>2013-03-01T14:19:57Z</time>
      </trkpt>
      <trkpt lat="46.46764" lon="-1.47277">
        <ele>41.8</ele>
        <time>2013-03-01T14:20:01Z</time>
      </trkpt>
      <trkpt lat="46.46765" lon="-1.47283">
        <ele>42.1</ele>
        <time>2013-03-01T14:20:05Z</time>
      </trkpt>
      <trkpt lat="46.46766" lon="-1.47288">
        <ele>42.4</ele>
        <time>2013-03-01T14:20:08Z</time>
      </trkpt>
      <trkpt lat="46.46768" lon="-1.47292">
        <ele>42.2</ele>
        <time>2013-03-01T14:20:11Z</time>
      </trkpt>
      <trkpt lat="46.4677" lon="-1.47298">
        <ele>42.2</ele>
        <time>2013-03-01T14:20:15Z</time>
      </trkpt>
      <trkpt lat="46.46772" lon="-1.47303">
        <ele>42</ele>
        <time>2013-03-01T14:20:18Z</time>
      </trkpt>
      <trkpt lat="46.46773" lon="-1.47307">
        <ele>41.8</ele>
        <time>2013-03-01T14:20:21Z</time>
      </trkpt>
      <trkpt lat="46.46774" lon="-1.47313">
        <ele>42.6</ele>
        <time>2013-03-01T14:20:24Z</time>
      </trkpt>
      <trkpt lat="46.46775" lon="-1.47318">
        <ele>43</ele>
        <time>2013-03-01T14:20:27Z</time>
      </trkpt>
      <trkpt lat="46.46776" lon="-1.47323">
        <ele>43.4</ele>
        <time>2013-03-01T14:20:30Z</time>
      </trkpt>
      <trkpt lat="46.46777" lon="-1.47328">
        <ele>43.3</ele>
        <time>2013-03-01T14:20:33Z</time>
      </trkpt>
      <trkpt lat="46.46778" lon="-1.47334">
        <ele>43.6</ele>
        <time>2013-03-01T14:20:36Z</time>
      </trkpt>
      <trkpt lat="46.46779" lon="-1.47339">
        <ele>43.7</ele>
        <time>2013-03-01T14:20:39Z</time>
      </trkpt>
      <trkpt lat="46.4678" lon="-1.47345">
        <ele>44</ele>
        <time>2013-03-01T14:20:42Z</time>
      </trkpt>
      <trkpt lat="46.46781" lon="-1.47349">
        <ele>42.8</ele>
        <time>2013-03-01T14:20:45Z</time>
      </trkpt>
      <trkpt lat="46.46782" lon="-1.47351">
        <ele>42.7</ele>
        <time>2013-03-01T14:20:46Z</time>
      </trkpt>
      <trkpt lat="46.46784" lon="-1.47361">
        <ele>43.5</ele>
        <time>2013-03-01T14:20:52Z</time>
      </trkpt>
      <trkpt lat="46.46785" lon="-1.47366">
        <ele>43.5</ele>
        <time>2013-03-01T14:20:55Z</time>
      </trkpt>
      <trkpt lat="46.46787" lon="-1.47371">
        <ele>44</ele>
        <time>2013-03-01T14:20:59Z</time>
      </trkpt>
      <trkpt lat="46.4679" lon="-1.47377">
        <ele>43.3</ele>
        <time>2013-03-01T14:21:03Z</time>
      </trkpt>
      <trkpt lat="46.46791" lon="-1.47383">
        <ele>43.6</ele>
        <time>2013-03-01T14:21:07Z</time>
      </trkpt>
      <trkpt lat="46.46793" lon="-1.47388">
        <ele>43.9</ele>
        <time>2013-03-01T14:21:11Z</time>
      </trkpt>
      <trkpt lat="46.46795" lon="-1.47393">
        <ele>43.9</ele>
        <time>2013-03-01T14:21:15Z</time>
      </trkpt>
      <trkpt lat="46.46797" lon="-1.47398">
        <ele>44.1</ele>
        <time>2013-03-01T14:21:19Z</time>
      </trkpt>
      <trkpt lat="46.46799" lon="-1.47403">
        <ele>44.3</ele>
        <time>2013-03-01T14:21:23Z</time>
      </trkpt>
      <trkpt lat="46.46802" lon="-1.47407">
        <ele>45.1</ele>
        <time>2013-03-01T14:21:27Z</time>
      </trkpt>
      <trkpt lat="46.46804" lon="-1.47413">
        <ele>44.5</ele>
        <time>2013-03-01T14:21:31Z</time>
      </trkpt>
      <trkpt lat="46.46805" lon="-1.47418">
        <ele>44.6</ele>
        <time>2013-03-01T14:21:35Z</time>
      </trkpt>
      <trkpt lat="46.46807" lon="-1.47423">
        <ele>44.6</ele>
        <time>2013-03-01T14:21:39Z</time>
      </trkpt>
      <trkpt lat="46.46808" lon="-1.47429">
        <ele>44.7</ele>
        <time>2013-03-01T14:21:43Z</time>
      </trkpt>
      <trkpt lat="46.46808" lon="-1.47435">
        <ele>44.9</ele>
        <time>2013-03-01T14:21:47Z</time>
      </trkpt>
      <trkpt lat="46.46808" lon="-1.47436">
        <ele>45.1</ele>
        <time>2013-03-01T14:21:48Z</time>
      </trkpt>
      <trkpt lat="46.46811" lon="-1.47446">
        <ele>44.9</ele>
        <time>2013-03-01T14:21:59Z</time>
      </trkpt>
      <trkpt lat="46.46813" lon="-1.47452">
        <ele>45.2</ele>
        <time>2013-03-01T14:22:03Z</time>
      </trkpt>
      <trkpt lat="46.46813" lon="-1.47458">
        <ele>45.5</ele>
        <time>2013-03-01T14:22:07Z</time>
      </trkpt>
      <trkpt lat="46.46814" lon="-1.47463">
        <ele>45.6</ele>
        <time>2013-03-01T14:22:11Z</time>
      </trkpt>
      <trkpt lat="46.46814" lon="-1.47469">
        <ele>45.7</ele>
        <time>2013-03-01T14:22:15Z</time>
      </trkpt>
      <trkpt lat="46.46815" lon="-1.47474">
        <ele>45.5</ele>
        <time>2013-03-01T14:22:19Z</time>
      </trkpt>
      <trkpt lat="46.46817" lon="-1.47479">
        <ele>45.3</ele>
        <time>2013-03-01T14:22:23Z</time>
      </trkpt>
      <trkpt lat="46.46819" lon="-1.47483">
        <ele>45.3</ele>
        <time>2013-03-01T14:22:27Z</time>
      </trkpt>
      <trkpt lat="46.4682" lon="-1.47488">
        <ele>45.1</ele>
        <time>2013-03-01T14:22:31Z</time>
      </trkpt>
      <trkpt lat="46.46822" lon="-1.47493">
        <ele>45</ele>
        <time>2013-03-01T14:22:36Z</time>
      </trkpt>
      <trkpt lat="46.46823" lon="-1.47499">
        <ele>45.7</ele>
        <time>2013-03-01T14:22:41Z</time>
      </trkpt>
      <trkpt lat="46.46823" lon="-1.47504">
        <ele>45.4</ele>
        <time>2013-03-01T14:22:45Z</time>
      </trkpt>
      <trkpt lat="46.46824" lon="-1.4751">
        <ele>45.2</ele>
        <time>2013-03-01T14:22:49Z</time>
      </trkpt>
      <trkpt lat="46.46824" lon="-1.47511">
        <ele>45.1</ele>
        <time>2013-03-01T14:22:50Z</time>
      </trkpt>
      <trkpt lat="46.46823" lon="-1.47522">
        <ele>45.8</ele>
        <time>2013-03-01T14:22:58Z</time>
      </trkpt>
      <trkpt lat="46.46822" lon="-1.47528">
        <ele>47</ele>
        <time>2013-03-01T14:23:34Z</time>
      </trkpt>
      <trkpt lat="46.4682" lon="-1.47534">
        <ele>46.4</ele>
        <time>2013-03-01T14:23:41Z</time>
      </trkpt>
      <trkpt lat="46.46824" lon="-1.47536">
        <ele>46.4</ele>
        <time>2013-03-01T14:24:21Z</time>
      </trkpt>
      <trkpt lat="46.46824" lon="-1.47536">
        <ele>46.7</ele>
        <time>2013-03-01T14:24:22Z</time>
      </trkpt>
      <trkpt lat="46.46818" lon="-1.4754">
        <ele>47.1</ele>
        <time>2013-03-01T14:25:36Z</time>
      </trkpt>
      <trkpt lat="46.46818" lon="-1.47541">
        <ele>47</ele>
        <time>2013-03-01T14:25:37Z</time>
      </trkpt>
      <trkpt lat="46.46811" lon="-1.47545">
        <ele>47.2</ele>
        <time>2013-03-01T14:25:46Z</time>
      </trkpt>
      <trkpt lat="46.46807" lon="-1.47547">
        <ele>46.4</ele>
        <time>2013-03-01T14:25:50Z</time>
      </trkpt>
      <trkpt lat="46.46803" lon="-1.4755">
        <ele>46.5</ele>
        <time>2013-03-01T14:25:54Z</time>
      </trkpt>
      <trkpt lat="46.468" lon="-1.47553">
        <ele>46.3</ele>
        <time>2013-03-01T14:25:57Z</time>
      </trkpt>
      <trkpt lat="46.46796" lon="-1.47555">
        <ele>46.8</ele>
        <time>2013-03-01T14:26:01Z</time>
      </trkpt>
      <trkpt lat="46.46792" lon="-1.47558">
        <ele>46.8</ele>
        <time>2013-03-01T14:26:05Z</time>
      </trkpt>
      <trkpt lat="46.46789" lon="-1.4756">
        <ele>46.7</ele>
        <time>2013-03-01T14:26:08Z</time>
      </trkpt>
      <trkpt lat="46.46786" lon="-1.47562">
        <ele>46.5</ele>
        <time>2013-03-01T14:26:11Z</time>
      </trkpt>
      <trkpt lat="46.46782" lon="-1.47564">
        <ele>46.2</ele>
        <time>2013-03-01T14:26:14Z</time>
      </trkpt>
      <trkpt lat="46.46778" lon="-1.47567">
        <ele>46.9</ele>
        <time>2013-03-01T14:26:18Z</time>
      </trkpt>
      <trkpt lat="46.46775" lon="-1.47568">
        <ele>46.6</ele>
        <time>2013-03-01T14:26:21Z</time>
      </trkpt>
      <trkpt lat="46.46771" lon="-1.47571">
        <ele>46.8</ele>
        <time>2013-03-01T14:26:25Z</time>
      </trkpt>
      <trkpt lat="46.46767" lon="-1.47574">
        <ele>47</ele>
        <time>2013-03-01T14:26:29Z</time>
      </trkpt>
      <trkpt lat="46.46763" lon="-1.47577">
        <ele>47</ele>
        <time>2013-03-01T14:26:33Z</time>
      </trkpt>
      <trkpt lat="46.4676" lon="-1.47579">
        <ele>46.8</ele>
        <time>2013-03-01T14:26:36Z</time>
      </trkpt>
      <trkpt lat="46.46757" lon="-1.47582">
        <ele>46.4</ele>
        <time>2013-03-01T14:26:39Z</time>
      </trkpt>
      <trkpt lat="46.46756" lon="-1.47582">
        <ele>46.2</ele>
        <time>2013-03-01T14:26:40Z</time>
      </trkpt>
      <trkpt lat="46.4675" lon="-1.47587">
        <ele>46.5</ele>
        <time>2013-03-01T14:26:45Z</time>
      </trkpt>
      <trkpt lat="46.46747" lon="-1.47589">
        <ele>46.5</ele>
        <time>2013-03-01T14:26:48Z</time>
      </trkpt>
      <trkpt lat="46.46743" lon="-1.47591">
        <ele>45.9</ele>
        <time>2013-03-01T14:26:52Z</time>
      </trkpt>
      <trkpt lat="46.4674" lon="-1.47593">
        <ele>45.7</ele>
        <time>2013-03-01T14:26:56Z</time>
      </trkpt>
      <trkpt lat="46.46736" lon="-1.47595">
        <ele>45.6</ele>
        <time>2013-03-01T14:26:59Z</time>
      </trkpt>
      <trkpt lat="46.46733" lon="-1.47598">
        <ele>45.6</ele>
        <time>2013-03-01T14:27:03Z</time>
      </trkpt>
      <trkpt lat="46.46729" lon="-1.47601">
        <ele>46</ele>
        <time>2013-03-01T14:27:07Z</time>
      </trkpt>
      <trkpt lat="46.46725" lon="-1.47603">
        <ele>45.4</ele>
        <time>2013-03-01T14:27:11Z</time>
      </trkpt>
      <trkpt lat="46.46721" lon="-1.47606">
        <ele>45.2</ele>
        <time>2013-03-01T14:27:15Z</time>
      </trkpt>
      <trkpt lat="46.46718" lon="-1.47609">
        <ele>45</ele>
        <time>2013-03-01T14:27:19Z</time>
      </trkpt>
      <trkpt lat="46.46714" lon="-1.47611">
        <ele>45.4</ele>
        <time>2013-03-01T14:27:22Z</time>
      </trkpt>
      <trkpt lat="46.46711" lon="-1.47614">
        <ele>45.6</ele>
        <time>2013-03-01T14:27:25Z</time>
      </trkpt>
      <trkpt lat="46.46707" lon="-1.47616">
        <ele>45.4</ele>
        <time>2013-03-01T14:27:29Z</time>
      </trkpt>
      <trkpt lat="46.46704" lon="-1.47619">
        <ele>45.2</ele>
        <time>2013-03-01T14:27:32Z</time>
      </trkpt>
      <trkpt lat="46.46701" lon="-1.47621">
        <ele>45.2</ele>
        <time>2013-03-01T14:27:35Z</time>
      </trkpt>
      <trkpt lat="46.46698" lon="-1.47624">
        <ele>45.2</ele>
        <time>2013-03-01T14:27:38Z</time>
      </trkpt>
      <trkpt lat="46.46695" lon="-1.47626">
        <ele>44.7</ele>
        <time>2013-03-01T14:27:41Z</time>
      </trkpt>
      <trkpt lat="46.46694" lon="-1.47627">
        <ele>44.4</ele>
        <time>2013-03-01T14:27:42Z</time>
      </trkpt>
      <trkpt lat="46.46687" lon="-1.47629">
        <ele>45.3</ele>
        <time>2013-03-01T14:28:19Z</time>
      </trkpt>
      <trkpt lat="46.46684" lon="-1.47631">
        <ele>45.4</ele>
        <time>2013-03-01T14:28:23Z</time>
      </trkpt>
      <trkpt lat="46.4668" lon="-1.47633">
        <ele>45</ele>
        <time>2013-03-01T14:28:27Z</time>
      </trkpt>
      <trkpt lat="46.46676" lon="-1.47635">
        <ele>44.7</ele>
        <time>2013-03-01T14:28:31Z</time>
      </trkpt>
      <trkpt lat="46.46673" lon="-1.47637">
        <ele>44.1</ele>
        <time>2013-03-01T14:28:34Z</time>
      </trkpt>
      <trkpt lat="46.46669" lon="-1.47638">
        <ele>44.2</ele>
        <time>2013-03-01T14:28:37Z</time>
      </trkpt>
      <trkpt lat="46.46666" lon="-1.4764">
        <ele>44.9</ele>
        <time>2013-03-01T14:28:40Z</time>
      </trkpt>
      <trkpt lat="46.46662" lon="-1.47642">
        <ele>44.7</ele>
        <time>2013-03-01T14:28:43Z</time>
      </trkpt>
      <trkpt lat="46.46661" lon="-1.47643">
        <ele>44.5</ele>
        <time>2013-03-01T14:28:44Z</time>
      </trkpt>
      <trkpt lat="46.46655" lon="-1.47648">
        <ele>44.6</ele>
        <time>2013-03-01T14:28:49Z</time>
      </trkpt>
      <trkpt lat="46.46652" lon="-1.47651">
        <ele>44.1</ele>
        <time>2013-03-01T14:28:52Z</time>
      </trkpt>
      <trkpt lat="46.46649" lon="-1.47653">
        <ele>44.6</ele>
        <time>2013-03-01T14:28:55Z</time>
      </trkpt>
      <trkpt lat="46.46646" lon="-1.47655">
        <ele>44.1</ele>
        <time>2013-03-01T14:28:58Z</time>
      </trkpt>
      <trkpt lat="46.46642" lon="-1.47657">
        <ele>44.1</ele>
        <time>2013-03-01T14:29:01Z</time>
      </trkpt>
      <trkpt lat="46.46639" lon="-1.4766">
        <ele>44.6</ele>
        <time>2013-03-01T14:29:04Z</time>
      </trkpt>
      <trkpt lat="46.46636" lon="-1.47662">
        <ele>44.6</ele>
        <time>2013-03-01T14:29:07Z</time>
      </trkpt>
      <trkpt lat="46.46633" lon="-1.47664">
        <ele>44.3</ele>
        <time>2013-03-01T14:29:10Z</time>
      </trkpt>
      <trkpt lat="46.46629" lon="-1.47667">
        <ele>43.9</ele>
        <time>2013-03-01T14:29:14Z</time>
      </trkpt>
      <trkpt lat="46.46626" lon="-1.47669">
        <ele>44.1</ele>
        <time>2013-03-01T14:29:17Z</time>
      </trkpt>
      <trkpt lat="46.46623" lon="-1.47672">
        <ele>43.3</ele>
        <time>2013-03-01T14:29:20Z</time>
      </trkpt>
      <trkpt lat="46.46619" lon="-1.47675">
        <ele>43.4</ele>
        <time>2013-03-01T14:29:23Z</time>
      </trkpt>
      <trkpt lat="46.46617" lon="-1.47677">
        <ele>43.5</ele>
        <time>2013-03-01T14:29:25Z</time>
      </trkpt>
      <trkpt lat="46.46613" lon="-1.47681">
        <ele>43</ele>
        <time>2013-03-01T14:29:28Z</time>
      </trkpt>
      <trkpt lat="46.4661" lon="-1.47683">
        <ele>42.9</ele>
        <time>2013-03-01T14:29:30Z</time>
      </trkpt>
      <trkpt lat="46.46607" lon="-1.47686">
        <ele>43.2</ele>
        <time>2013-03-01T14:29:33Z</time>
      </trkpt>
      <trkpt lat="46.46603" lon="-1.47689">
        <ele>42.9</ele>
        <time>2013-03-01T14:29:36Z</time>
      </trkpt>
      <trkpt lat="46.466" lon="-1.47691">
        <ele>42.1</ele>
        <time>2013-03-01T14:29:39Z</time>
      </trkpt>
      <trkpt lat="46.46596" lon="-1.47693">
        <ele>42.3</ele>
        <time>2013-03-01T14:29:42Z</time>
      </trkpt>
      <trkpt lat="46.46593" lon="-1.47696">
        <ele>42.3</ele>
        <time>2013-03-01T14:29:45Z</time>
      </trkpt>
      <trkpt lat="46.46592" lon="-1.47697">
        <ele>42.4</ele>
        <time>2013-03-01T14:29:46Z</time>
      </trkpt>
      <trkpt lat="46.46587" lon="-1.47701">
        <ele>42.5</ele>
        <time>2013-03-01T14:29:51Z</time>
      </trkpt>
      <trkpt lat="46.46584" lon="-1.47703">
        <ele>42.4</ele>
        <time>2013-03-01T14:29:54Z</time>
      </trkpt>
      <trkpt lat="46.4658" lon="-1.47706">
        <ele>42.3</ele>
        <time>2013-03-01T14:29:57Z</time>
      </trkpt>
      <trkpt lat="46.46577" lon="-1.47708">
        <ele>42.4</ele>
        <time>2013-03-01T14:30:00Z</time>
      </trkpt>
      <trkpt lat="46.46573" lon="-1.4771">
        <ele>41.7</ele>
        <time>2013-03-01T14:30:04Z</time>
      </trkpt>
      <trkpt lat="46.4657" lon="-1.47712">
        <ele>42.1</ele>
        <time>2013-03-01T14:30:07Z</time>
      </trkpt>
      <trkpt lat="46.46566" lon="-1.47715">
        <ele>42.3</ele>
        <time>2013-03-01T14:30:11Z</time>
      </trkpt>
      <trkpt lat="46.46563" lon="-1.47717">
        <ele>41.8</ele>
        <time>2013-03-01T14:30:14Z</time>
      </trkpt>
      <trkpt lat="46.46559" lon="-1.47719">
        <ele>42.1</ele>
        <time>2013-03-01T14:30:17Z</time>
      </trkpt>
      <trkpt lat="46.46555" lon="-1.47721">
        <ele>42</ele>
        <time>2013-03-01T14:30:20Z</time>
      </trkpt>
      <trkpt lat="46.46552" lon="-1.47723">
        <ele>41.7</ele>
        <time>2013-03-01T14:30:23Z</time>
      </trkpt>
      <trkpt lat="46.46548" lon="-1.47725">
        <ele>42.2</ele>
        <time>2013-03-01T14:30:27Z</time>
      </trkpt>
      <trkpt lat="46.46544" lon="-1.47726">
        <ele>42.5</ele>
        <time>2013-03-01T14:30:31Z</time>
      </trkpt>
      <trkpt lat="46.46541" lon="-1.47728">
        <ele>42.6</ele>
        <time>2013-03-01T14:30:34Z</time>
      </trkpt>
      <trkpt lat="46.46537" lon="-1.4773">
        <ele>42.4</ele>
        <time>2013-03-01T14:30:37Z</time>
      </trkpt>
      <trkpt lat="46.46533" lon="-1.47733">
        <ele>42.5</ele>
        <time>2013-03-01T14:30:40Z</time>
      </trkpt>
      <trkpt lat="46.4653" lon="-1.47735">
        <ele>42.8</ele>
        <time>2013-03-01T14:30:43Z</time>
      </trkpt>
      <trkpt lat="46.46526" lon="-1.47738">
        <ele>42.9</ele>
        <time>2013-03-01T14:30:46Z</time>
      </trkpt>
      <trkpt lat="46.46525" lon="-1.47738">
        <ele>42.6</ele>
        <time>2013-03-01T14:30:47Z</time>
      </trkpt>
      <trkpt lat="46.46518" lon="-1.47742">
        <ele>42.6</ele>
        <time>2013-03-01T14:30:52Z</time>
      </trkpt>
      <trkpt lat="46.46515" lon="-1.47744">
        <ele>42.3</ele>
        <time>2013-03-01T14:30:55Z</time>
      </trkpt>
      <trkpt lat="46.46511" lon="-1.47747">
        <ele>42.7</ele>
        <time>2013-03-01T14:30:58Z</time>
      </trkpt>
      <trkpt lat="46.46508" lon="-1.47749">
        <ele>42.8</ele>
        <time>2013-03-01T14:31:01Z</time>
      </trkpt>
      <trkpt lat="46.46503" lon="-1.47751">
        <ele>42.1</ele>
        <time>2013-03-01T14:31:04Z</time>
      </trkpt>
      <trkpt lat="46.465" lon="-1.47753">
        <ele>42.2</ele>
        <time>2013-03-01T14:31:07Z</time>
      </trkpt>
      <trkpt lat="46.46496" lon="-1.47755">
        <ele>42.2</ele>
        <time>2013-03-01T14:31:10Z</time>
      </trkpt>
      <trkpt lat="46.46493" lon="-1.47757">
        <ele>42.4</ele>
        <time>2013-03-01T14:31:13Z</time>
      </trkpt>
      <trkpt lat="46.46489" lon="-1.47759">
        <ele>42.7</ele>
        <time>2013-03-01T14:31:16Z</time>
      </trkpt>
      <trkpt lat="46.46485" lon="-1.47761">
        <ele>42.2</ele>
        <time>2013-03-01T14:31:20Z</time>
      </trkpt>
      <trkpt lat="46.46482" lon="-1.47763">
        <ele>42.3</ele>
        <time>2013-03-01T14:31:23Z</time>
      </trkpt>
      <trkpt lat="46.46479" lon="-1.47765">
        <ele>42.6</ele>
        <time>2013-03-01T14:31:26Z</time>
      </trkpt>
      <trkpt lat="46.46475" lon="-1.47767">
        <ele>42.4</ele>
        <time>2013-03-01T14:31:29Z</time>
      </trkpt>
      <trkpt lat="46.46472" lon="-1.47769">
        <ele>42.3</ele>
        <time>2013-03-01T14:31:32Z</time>
      </trkpt>
      <trkpt lat="46.46468" lon="-1.47772">
        <ele>43.1</ele>
        <time>2013-03-01T14:31:35Z</time>
      </trkpt>
      <trkpt lat="46.46464" lon="-1.47774">
        <ele>42.2</ele>
        <time>2013-03-01T14:31:38Z</time>
      </trkpt>
      <trkpt lat="46.4646" lon="-1.47776">
        <ele>41.9</ele>
        <time>2013-03-01T14:31:41Z</time>
      </trkpt>
      <trkpt lat="46.46457" lon="-1.47778">
        <ele>42.1</ele>
        <time>2013-03-01T14:31:43Z</time>
      </trkpt>
      <trkpt lat="46.46453" lon="-1.47781">
        <ele>41.9</ele>
        <time>2013-03-01T14:31:46Z</time>
      </trkpt>
      <trkpt lat="46.46449" lon="-1.47784">
        <ele>42.2</ele>
        <time>2013-03-01T14:31:49Z</time>
      </trkpt>
      <trkpt lat="46.46448" lon="-1.47784">
        <ele>42.5</ele>
        <time>2013-03-01T14:31:50Z</time>
      </trkpt>
      <trkpt lat="46.46442" lon="-1.47789">
        <ele>42.5</ele>
        <time>2013-03-01T14:31:55Z</time>
      </trkpt>
      <trkpt lat="46.46438" lon="-1.47792">
        <ele>42.3</ele>
        <time>2013-03-01T14:31:58Z</time>
      </trkpt>
      <trkpt lat="46.46435" lon="-1.47794">
        <ele>42.1</ele>
        <time>2013-03-01T14:32:01Z</time>
      </trkpt>
      <trkpt lat="46.46431" lon="-1.47797">
        <ele>41.8</ele>
        <time>2013-03-01T14:32:05Z</time>
      </trkpt>
      <trkpt lat="46.46427" lon="-1.47798">
        <ele>41.6</ele>
        <time>2013-03-01T14:32:30Z</time>
      </trkpt>
      <trkpt lat="46.46424" lon="-1.47801">
        <ele>41.7</ele>
        <time>2013-03-01T14:32:42Z</time>
      </trkpt>
      <trkpt lat="46.4642" lon="-1.47805">
        <ele>41.5</ele>
        <time>2013-03-01T14:32:47Z</time>
      </trkpt>
      <trkpt lat="46.46417" lon="-1.47808">
        <ele>41.9</ele>
        <time>2013-03-01T14:32:51Z</time>
      </trkpt>
      <trkpt lat="46.46416" lon="-1.47809">
        <ele>42.1</ele>
        <time>2013-03-01T14:32:52Z</time>
      </trkpt>
      <trkpt lat="46.4641" lon="-1.47813">
        <ele>41.6</ele>
        <time>2013-03-01T14:33:01Z</time>
      </trkpt>
      <trkpt lat="46.46406" lon="-1.47815">
        <ele>41.4</ele>
        <time>2013-03-01T14:33:05Z</time>
      </trkpt>
      <trkpt lat="46.46404" lon="-1.47818">
        <ele>40.7</ele>
        <time>2013-03-01T14:33:08Z</time>
      </trkpt>
      <trkpt lat="46.46407" lon="-1.47823">
        <ele>41</ele>
        <time>2013-03-01T14:33:37Z</time>
      </trkpt>
      <trkpt lat="46.46404" lon="-1.47827">
        <ele>41.2</ele>
        <time>2013-03-01T14:33:45Z</time>
      </trkpt>
      <trkpt lat="46.46401" lon="-1.4783">
        <ele>41.4</ele>
        <time>2013-03-01T14:33:48Z</time>
      </trkpt>
      <trkpt lat="46.46397" lon="-1.47832">
        <ele>41.1</ele>
        <time>2013-03-01T14:33:51Z</time>
      </trkpt>
      <trkpt lat="46.46393" lon="-1.47835">
        <ele>40.7</ele>
        <time>2013-03-01T14:33:54Z</time>
      </trkpt>
      <trkpt lat="46.46392" lon="-1.47835">
        <ele>40.3</ele>
        <time>2013-03-01T14:33:55Z</time>
      </trkpt>
      <trkpt lat="46.46386" lon="-1.4784">
        <ele>40.3</ele>
        <time>2013-03-01T14:34:00Z</time>
      </trkpt>
      <trkpt lat="46.46383" lon="-1.47842">
        <ele>40.3</ele>
        <time>2013-03-01T14:34:03Z</time>
      </trkpt>
      <trkpt lat="46.4638" lon="-1.47844">
        <ele>40.5</ele>
        <time>2013-03-01T14:34:06Z</time>
      </trkpt>
      <trkpt lat="46.46376" lon="-1.47847">
        <ele>40.5</ele>
        <time>2013-03-01T14:34:09Z</time>
      </trkpt>
      <trkpt lat="46.46373" lon="-1.4785">
        <ele>39.7</ele>
        <time>2013-03-01T14:34:12Z</time>
      </trkpt>
      <trkpt lat="46.4637" lon="-1.47853">
        <ele>39.5</ele>
        <time>2013-03-01T14:34:15Z</time>
      </trkpt>
      <trkpt lat="46.46366" lon="-1.47855">
        <ele>40.3</ele>
        <time>2013-03-01T14:34:18Z</time>
      </trkpt>
      <trkpt lat="46.46362" lon="-1.47858">
        <ele>39.5</ele>
        <time>2013-03-01T14:34:22Z</time>
      </trkpt>
      <trkpt lat="46.46359" lon="-1.47861">
        <ele>39.1</ele>
        <time>2013-03-01T14:34:25Z</time>
      </trkpt>
      <trkpt lat="46.46355" lon="-1.47863">
        <ele>39.4</ele>
        <time>2013-03-01T14:34:28Z</time>
      </trkpt>
      <trkpt lat="46.46352" lon="-1.47865">
        <ele>39.5</ele>
        <time>2013-03-01T14:34:31Z</time>
      </trkpt>
      <trkpt lat="46.46349" lon="-1.47868">
        <ele>39</ele>
        <time>2013-03-01T14:34:34Z</time>
      </trkpt>
      <trkpt lat="46.46346" lon="-1.47871">
        <ele>39.4</ele>
        <time>2013-03-01T14:34:37Z</time>
      </trkpt>
      <trkpt lat="46.46342" lon="-1.47874">
        <ele>39.2</ele>
        <time>2013-03-01T14:34:40Z</time>
      </trkpt>
      <trkpt lat="46.46339" lon="-1.47877">
        <ele>39.1</ele>
        <time>2013-03-01T14:34:43Z</time>
      </trkpt>
      <trkpt lat="46.46336" lon="-1.4788">
        <ele>38.8</ele>
        <time>2013-03-01T14:34:46Z</time>
      </trkpt>
      <trkpt lat="46.46333" lon="-1.47883">
        <ele>38.9</ele>
        <time>2013-03-01T14:34:49Z</time>
      </trkpt>
      <trkpt lat="46.46329" lon="-1.47887">
        <ele>38.7</ele>
        <time>2013-03-01T14:34:52Z</time>
      </trkpt>
      <trkpt lat="46.46326" lon="-1.4789">
        <ele>38.6</ele>
        <time>2013-03-01T14:34:55Z</time>
      </trkpt>
      <trkpt lat="46.46325" lon="-1.47892">
        <ele>38.5</ele>
        <time>2013-03-01T14:34:56Z</time>
      </trkpt>
      <trkpt lat="46.4632" lon="-1.47897">
        <ele>38.2</ele>
        <time>2013-03-01T14:35:01Z</time>
      </trkpt>
      <trkpt lat="46.46317" lon="-1.47901">
        <ele>38.1</ele>
        <time>2013-03-01T14:35:04Z</time>
      </trkpt>
      <trkpt lat="46.46314" lon="-1.47905">
        <ele>37.8</ele>
        <time>2013-03-01T14:35:07Z</time>
      </trkpt>
      <trkpt lat="46.46311" lon="-1.47908">
        <ele>37.5</ele>
        <time>2013-03-01T14:35:10Z</time>
      </trkpt>
      <trkpt lat="46.46309" lon="-1.47912">
        <ele>37.9</ele>
        <time>2013-03-01T14:35:13Z</time>
      </trkpt>
      <trkpt lat="46.46306" lon="-1.47916">
        <ele>37.6</ele>
        <time>2013-03-01T14:35:16Z</time>
      </trkpt>
      <trkpt lat="46.46304" lon="-1.4792">
        <ele>37.7</ele>
        <time>2013-03-01T14:35:19Z</time>
      </trkpt>
      <trkpt lat="46.46301" lon="-1.47923">
        <ele>37.2</ele>
        <time>2013-03-01T14:35:22Z</time>
      </trkpt>
      <trkpt lat="46.46298" lon="-1.47928">
        <ele>37.1</ele>
        <time>2013-03-01T14:35:26Z</time>
      </trkpt>
      <trkpt lat="46.46295" lon="-1.47931">
        <ele>37.1</ele>
        <time>2013-03-01T14:35:29Z</time>
      </trkpt>
      <trkpt lat="46.46292" lon="-1.47935">
        <ele>37.1</ele>
        <time>2013-03-01T14:35:32Z</time>
      </trkpt>
      <trkpt lat="46.46289" lon="-1.47939">
        <ele>37.1</ele>
        <time>2013-03-01T14:35:35Z</time>
      </trkpt>
      <trkpt lat="46.46287" lon="-1.47943">
        <ele>36.9</ele>
        <time>2013-03-01T14:35:38Z</time>
      </trkpt>
      <trkpt lat="46.46284" lon="-1.47946">
        <ele>36.7</ele>
        <time>2013-03-01T14:35:41Z</time>
      </trkpt>
      <trkpt lat="46.46281" lon="-1.4795">
        <ele>36.6</ele>
        <time>2013-03-01T14:35:44Z</time>
      </trkpt>
      <trkpt lat="46.46278" lon="-1.47953">
        <ele>36.8</ele>
        <time>2013-03-01T14:35:47Z</time>
      </trkpt>
      <trkpt lat="46.46275" lon="-1.47957">
        <ele>36.8</ele>
        <time>2013-03-01T14:35:50Z</time>
      </trkpt>
      <trkpt lat="46.46273" lon="-1.47961">
        <ele>36.6</ele>
        <time>2013-03-01T14:35:53Z</time>
      </trkpt>
      <trkpt lat="46.4627" lon="-1.47966">
        <ele>36.8</ele>
        <time>2013-03-01T14:35:56Z</time>
      </trkpt>
      <trkpt lat="46.46269" lon="-1.47967">
        <ele>36.9</ele>
        <time>2013-03-01T14:35:57Z</time>
      </trkpt>
      <trkpt lat="46.46264" lon="-1.47973">
        <ele>36.1</ele>
        <time>2013-03-01T14:36:02Z</time>
      </trkpt>
      <trkpt lat="46.46262" lon="-1.47977">
        <ele>36.4</ele>
        <time>2013-03-01T14:36:05Z</time>
      </trkpt>
      <trkpt lat="46.46259" lon="-1.47981">
        <ele>36.7</ele>
        <time>2013-03-01T14:36:08Z</time>
      </trkpt>
      <trkpt lat="46.46256" lon="-1.47985">
        <ele>36.3</ele>
        <time>2013-03-01T14:36:11Z</time>
      </trkpt>
      <trkpt lat="46.46254" lon="-1.47988">
        <ele>36.1</ele>
        <time>2013-03-01T14:36:14Z</time>
      </trkpt>
      <trkpt lat="46.46252" lon="-1.47991">
        <ele>35.7</ele>
        <time>2013-03-01T14:36:17Z</time>
      </trkpt>
      <trkpt lat="46.46249" lon="-1.47995">
        <ele>35.8</ele>
        <time>2013-03-01T14:36:20Z</time>
      </trkpt>
      <trkpt lat="46.46245" lon="-1.47999">
        <ele>35.8</ele>
        <time>2013-03-01T14:36:23Z</time>
      </trkpt>
      <trkpt lat="46.46243" lon="-1.48004">
        <ele>35.8</ele>
        <time>2013-03-01T14:36:26Z</time>
      </trkpt>
      <trkpt lat="46.4624" lon="-1.48008">
        <ele>36</ele>
        <time>2013-03-01T14:36:29Z</time>
      </trkpt>
      <trkpt lat="46.46237" lon="-1.48012">
        <ele>36</ele>
        <time>2013-03-01T14:36:32Z</time>
      </trkpt>
      <trkpt lat="46.46234" lon="-1.48016">
        <ele>35.8</ele>
        <time>2013-03-01T14:36:35Z</time>
      </trkpt>
      <trkpt lat="46.46231" lon="-1.48021">
        <ele>36.3</ele>
        <time>2013-03-01T14:36:38Z</time>
      </trkpt>
      <trkpt lat="46.46229" lon="-1.48024">
        <ele>36.5</ele>
        <time>2013-03-01T14:36:40Z</time>
      </trkpt>
      <trkpt lat="46.46227" lon="-1.48027">
        <ele>36.2</ele>
        <time>2013-03-01T14:36:42Z</time>
      </trkpt>
      <trkpt lat="46.46225" lon="-1.48031">
        <ele>35.6</ele>
        <time>2013-03-01T14:36:44Z</time>
      </trkpt>
      <trkpt lat="46.46222" lon="-1.48036">
        <ele>35.5</ele>
        <time>2013-03-01T14:36:47Z</time>
      </trkpt>
      <trkpt lat="46.46219" lon="-1.4804">
        <ele>35.5</ele>
        <time>2013-03-01T14:36:50Z</time>
      </trkpt>
      <trkpt lat="46.46216" lon="-1.48045">
        <ele>35.9</ele>
        <time>2013-03-01T14:36:53Z</time>
      </trkpt>
      <trkpt lat="46.46214" lon="-1.48048">
        <ele>36</ele>
        <time>2013-03-01T14:36:55Z</time>
      </trkpt>
      <trkpt lat="46.46211" lon="-1.48054">
        <ele>35.4</ele>
        <time>2013-03-01T14:36:58Z</time>
      </trkpt>
      <trkpt lat="46.46211" lon="-1.48055">
        <ele>35.5</ele>
        <time>2013-03-01T14:36:59Z</time>
      </trkpt>
      <trkpt lat="46.46206" lon="-1.48064">
        <ele>35.3</ele>
        <time>2013-03-01T14:37:04Z</time>
      </trkpt>
      <trkpt lat="46.46204" lon="-1.48068">
        <ele>35.3</ele>
        <time>2013-03-01T14:37:07Z</time>
      </trkpt>
      <trkpt lat="46.46201" lon="-1.48074">
        <ele>35.2</ele>
        <time>2013-03-01T14:37:11Z</time>
      </trkpt>
      <trkpt lat="46.46199" lon="-1.48077">
        <ele>35.1</ele>
        <time>2013-03-01T14:37:14Z</time>
      </trkpt>
      <trkpt lat="46.46197" lon="-1.48081">
        <ele>35</ele>
        <time>2013-03-01T14:37:17Z</time>
      </trkpt>
      <trkpt lat="46.46194" lon="-1.48085">
        <ele>35.1</ele>
        <time>2013-03-01T14:37:20Z</time>
      </trkpt>
      <trkpt lat="46.46192" lon="-1.4809">
        <ele>35</ele>
        <time>2013-03-01T14:37:23Z</time>
      </trkpt>
      <trkpt lat="46.46189" lon="-1.48095">
        <ele>34.9</ele>
        <time>2013-03-01T14:37:26Z</time>
      </trkpt>
      <trkpt lat="46.46187" lon="-1.48099">
        <ele>34.7</ele>
        <time>2013-03-01T14:37:28Z</time>
      </trkpt>
      <trkpt lat="46.46185" lon="-1.48103">
        <ele>34.3</ele>
        <time>2013-03-01T14:37:31Z</time>
      </trkpt>
      <trkpt lat="46.46183" lon="-1.48108">
        <ele>34.3</ele>
        <time>2013-03-01T14:37:34Z</time>
      </trkpt>
      <trkpt lat="46.46181" lon="-1.48112">
        <ele>34.5</ele>
        <time>2013-03-01T14:37:37Z</time>
      </trkpt>
      <trkpt lat="46.46178" lon="-1.48117">
        <ele>34.4</ele>
        <time>2013-03-01T14:37:40Z</time>
      </trkpt>
      <trkpt lat="46.46176" lon="-1.48121">
        <ele>35</ele>
        <time>2013-03-01T14:37:43Z</time>
      </trkpt>
      <trkpt lat="46.46174" lon="-1.48125">
        <ele>34.7</ele>
        <time>2013-03-01T14:37:46Z</time>
      </trkpt>
      <trkpt lat="46.46172" lon="-1.4813">
        <ele>35</ele>
        <time>2013-03-01T14:37:49Z</time>
      </trkpt>
      <trkpt lat="46.4617" lon="-1.48134">
        <ele>34.1</ele>
        <time>2013-03-01T14:37:52Z</time>
      </trkpt>
      <trkpt lat="46.46168" lon="-1.48138">
        <ele>33.7</ele>
        <time>2013-03-01T14:37:55Z</time>
      </trkpt>
      <trkpt lat="46.46165" lon="-1.48142">
        <ele>33.8</ele>
        <time>2013-03-01T14:37:58Z</time>
      </trkpt>
      <trkpt lat="46.46163" lon="-1.48147">
        <ele>34</ele>
        <time>2013-03-01T14:38:01Z</time>
      </trkpt>
      <trkpt lat="46.46162" lon="-1.48149">
        <ele>34</ele>
        <time>2013-03-01T14:38:02Z</time>
      </trkpt>
      <trkpt lat="46.46158" lon="-1.48156">
        <ele>33.1</ele>
        <time>2013-03-01T14:38:07Z</time>
      </trkpt>
      <trkpt lat="46.46156" lon="-1.4816">
        <ele>33</ele>
        <time>2013-03-01T14:38:10Z</time>
      </trkpt>
      <trkpt lat="46.46153" lon="-1.48164">
        <ele>33.2</ele>
        <time>2013-03-01T14:38:13Z</time>
      </trkpt>
      <trkpt lat="46.46151" lon="-1.48168">
        <ele>33.7</ele>
        <time>2013-03-01T14:38:16Z</time>
      </trkpt>
      <trkpt lat="46.46148" lon="-1.48173">
        <ele>33.2</ele>
        <time>2013-03-01T14:38:19Z</time>
      </trkpt>
      <trkpt lat="46.46146" lon="-1.48177">
        <ele>33.4</ele>
        <time>2013-03-01T14:38:22Z</time>
      </trkpt>
      <trkpt lat="46.46143" lon="-1.48181">
        <ele>33.3</ele>
        <time>2013-03-01T14:38:25Z</time>
      </trkpt>
      <trkpt lat="46.4614" lon="-1.48185">
        <ele>32.5</ele>
        <time>2013-03-01T14:38:28Z</time>
      </trkpt>
      <trkpt lat="46.46138" lon="-1.48189">
        <ele>32.3</ele>
        <time>2013-03-01T14:38:31Z</time>
      </trkpt>
      <trkpt lat="46.46135" lon="-1.48193">
        <ele>32.4</ele>
        <time>2013-03-01T14:38:34Z</time>
      </trkpt>
      <trkpt lat="46.46132" lon="-1.48197">
        <ele>32</ele>
        <time>2013-03-01T14:38:37Z</time>
      </trkpt>
      <trkpt lat="46.46129" lon="-1.48201">
        <ele>31.6</ele>
        <time>2013-03-01T14:38:40Z</time>
      </trkpt>
      <trkpt lat="46.46126" lon="-1.48204">
        <ele>32</ele>
        <time>2013-03-01T14:38:43Z</time>
      </trkpt>
      <trkpt lat="46.46124" lon="-1.48208">
        <ele>31.6</ele>
        <time>2013-03-01T14:38:46Z</time>
      </trkpt>
      <trkpt lat="46.46121" lon="-1.48211">
        <ele>31.6</ele>
        <time>2013-03-01T14:38:49Z</time>
      </trkpt>
      <trkpt lat="46.46118" lon="-1.48215">
        <ele>31.1</ele>
        <time>2013-03-01T14:38:53Z</time>
      </trkpt>
      <trkpt lat="46.46114" lon="-1.48218">
        <ele>30.6</ele>
        <time>2013-03-01T14:38:56Z</time>
      </trkpt>
      <trkpt lat="46.46111" lon="-1.48221">
        <ele>31</ele>
        <time>2013-03-01T14:38:59Z</time>
      </trkpt>
      <trkpt lat="46.46108" lon="-1.48224">
        <ele>31.2</ele>
        <time>2013-03-01T14:39:02Z</time>
      </trkpt>
      <trkpt lat="46.46107" lon="-1.48225">
        <ele>31.1</ele>
        <time>2013-03-01T14:39:03Z</time>
      </trkpt>
      <trkpt lat="46.46101" lon="-1.4823">
        <ele>30.9</ele>
        <time>2013-03-01T14:39:08Z</time>
      </trkpt>
      <trkpt lat="46.46098" lon="-1.48234">
        <ele>30.6</ele>
        <time>2013-03-01T14:39:11Z</time>
      </trkpt>
      <trkpt lat="46.46094" lon="-1.48237">
        <ele>30.4</ele>
        <time>2013-03-01T14:39:14Z</time>
      </trkpt>
      <trkpt lat="46.46092" lon="-1.48239">
        <ele>30.3</ele>
        <time>2013-03-01T14:39:16Z</time>
      </trkpt>
      <trkpt lat="46.46088" lon="-1.48243">
        <ele>30.2</ele>
        <time>2013-03-01T14:39:17Z</time>
      </trkpt>
      <trkpt lat="46.46085" lon="-1.48246">
        <ele>30.1</ele>
        <time>2013-03-01T14:39:20Z</time>
      </trkpt>
      <trkpt lat="46.46081" lon="-1.48249">
        <ele>29.6</ele>
        <time>2013-03-01T14:39:23Z</time>
      </trkpt>
      <trkpt lat="46.46078" lon="-1.48252">
        <ele>29.9</ele>
        <time>2013-03-01T14:39:26Z</time>
      </trkpt>
      <trkpt lat="46.46074" lon="-1.48256">
        <ele>29.5</ele>
        <time>2013-03-01T14:39:29Z</time>
      </trkpt>
      <trkpt lat="46.46071" lon="-1.4826">
        <ele>29.4</ele>
        <time>2013-03-01T14:39:32Z</time>
      </trkpt>
      <trkpt lat="46.46068" lon="-1.48263">
        <ele>29.4</ele>
        <time>2013-03-01T14:39:35Z</time>
      </trkpt>
      <trkpt lat="46.46066" lon="-1.48266">
        <ele>29.2</ele>
        <time>2013-03-01T14:39:38Z</time>
      </trkpt>
      <trkpt lat="46.46063" lon="-1.48269">
        <ele>28.6</ele>
        <time>2013-03-01T14:39:41Z</time>
      </trkpt>
      <trkpt lat="46.4606" lon="-1.48274">
        <ele>28.5</ele>
        <time>2013-03-01T14:39:49Z</time>
      </trkpt>
      <trkpt lat="46.46057" lon="-1.48277">
        <ele>29.1</ele>
        <time>2013-03-01T14:39:52Z</time>
      </trkpt>
      <trkpt lat="46.46054" lon="-1.4828">
        <ele>28.7</ele>
        <time>2013-03-01T14:39:55Z</time>
      </trkpt>
      <trkpt lat="46.4605" lon="-1.48282">
        <ele>28.9</ele>
        <time>2013-03-01T14:39:58Z</time>
      </trkpt>
      <trkpt lat="46.46047" lon="-1.48284">
        <ele>29</ele>
        <time>2013-03-01T14:40:01Z</time>
      </trkpt>
      <trkpt lat="46.46043" lon="-1.48287">
        <ele>28.8</ele>
        <time>2013-03-01T14:40:04Z</time>
      </trkpt>
      <trkpt lat="46.46042" lon="-1.48288">
        <ele>28.6</ele>
        <time>2013-03-01T14:40:05Z</time>
      </trkpt>
      <trkpt lat="46.46036" lon="-1.48292">
        <ele>29.1</ele>
        <time>2013-03-01T14:40:10Z</time>
      </trkpt>
      <trkpt lat="46.46033" lon="-1.48294">
        <ele>28.9</ele>
        <time>2013-03-01T14:40:13Z</time>
      </trkpt>
      <trkpt lat="46.4603" lon="-1.48297">
        <ele>28.9</ele>
        <time>2013-03-01T14:40:16Z</time>
      </trkpt>
      <trkpt lat="46.46027" lon="-1.48299">
        <ele>28.4</ele>
        <time>2013-03-01T14:40:19Z</time>
      </trkpt>
      <trkpt lat="46.46023" lon="-1.48301">
        <ele>28.8</ele>
        <time>2013-03-01T14:40:23Z</time>
      </trkpt>
      <trkpt lat="46.46019" lon="-1.48304">
        <ele>28.3</ele>
        <time>2013-03-01T14:40:28Z</time>
      </trkpt>
      <trkpt lat="46.46015" lon="-1.48303">
        <ele>27.8</ele>
        <time>2013-03-01T14:40:40Z</time>
      </trkpt>
      <trkpt lat="46.46011" lon="-1.48305">
        <ele>27.9</ele>
        <time>2013-03-01T14:41:08Z</time>
      </trkpt>
      <trkpt lat="46.4601" lon="-1.48305">
        <ele>28.3</ele>
        <time>2013-03-01T14:41:09Z</time>
      </trkpt>
      <trkpt lat="46.46003" lon="-1.4831">
        <ele>28.3</ele>
        <time>2013-03-01T14:41:42Z</time>
      </trkpt>
      <trkpt lat="46.46" lon="-1.48312">
        <ele>27.9</ele>
        <time>2013-03-01T14:41:47Z</time>
      </trkpt>
      <trkpt lat="46.45996" lon="-1.48314">
        <ele>28.2</ele>
        <time>2013-03-01T14:41:59Z</time>
      </trkpt>
      <trkpt lat="46.45992" lon="-1.48317">
        <ele>28.6</ele>
        <time>2013-03-01T14:42:05Z</time>
      </trkpt>
      <trkpt lat="46.45988" lon="-1.48319">
        <ele>27.9</ele>
        <time>2013-03-01T14:42:10Z</time>
      </trkpt>
      <trkpt lat="46.45987" lon="-1.48319">
        <ele>27.7</ele>
        <time>2013-03-01T14:42:11Z</time>
      </trkpt>
      <trkpt lat="46.4598" lon="-1.48323">
        <ele>27.8</ele>
        <time>2013-03-01T14:42:20Z</time>
      </trkpt>
      <trkpt lat="46.45977" lon="-1.48325">
        <ele>27.6</ele>
        <time>2013-03-01T14:42:24Z</time>
      </trkpt>
      <trkpt lat="46.45973" lon="-1.48327">
        <ele>27.6</ele>
        <time>2013-03-01T14:42:27Z</time>
      </trkpt>
      <trkpt lat="46.4597" lon="-1.48329">
        <ele>27.4</ele>
        <time>2013-03-01T14:42:30Z</time>
      </trkpt>
      <trkpt lat="46.45966" lon="-1.48331">
        <ele>26.6</ele>
        <time>2013-03-01T14:42:35Z</time>
      </trkpt>
      <trkpt lat="46.45963" lon="-1.48333">
        <ele>26.7</ele>
        <time>2013-03-01T14:42:39Z</time>
      </trkpt>
      <trkpt lat="46.4596" lon="-1.48335">
        <ele>25.7</ele>
        <time>2013-03-01T14:42:42Z</time>
      </trkpt>
      <trkpt lat="46.45956" lon="-1.48338">
        <ele>27.3</ele>
        <time>2013-03-01T14:42:46Z</time>
      </trkpt>
      <trkpt lat="46.45952" lon="-1.4834">
        <ele>26.8</ele>
        <time>2013-03-01T14:42:49Z</time>
      </trkpt>
      <trkpt lat="46.45949" lon="-1.48343">
        <ele>27.1</ele>
        <time>2013-03-01T14:42:53Z</time>
      </trkpt>
      <trkpt lat="46.45945" lon="-1.48346">
        <ele>26.8</ele>
        <time>2013-03-01T14:42:57Z</time>
      </trkpt>
      <trkpt lat="46.45942" lon="-1.48347">
        <ele>26.6</ele>
        <time>2013-03-01T14:43:00Z</time>
      </trkpt>
      <trkpt lat="46.45939" lon="-1.48349">
        <ele>26.5</ele>
        <time>2013-03-01T14:43:03Z</time>
      </trkpt>
      <trkpt lat="46.45935" lon="-1.48351">
        <ele>27</ele>
        <time>2013-03-01T14:43:06Z</time>
      </trkpt>
      <trkpt lat="46.45932" lon="-1.48352">
        <ele>26.8</ele>
        <time>2013-03-01T14:43:09Z</time>
      </trkpt>
      <trkpt lat="46.45928" lon="-1.48353">
        <ele>26.7</ele>
        <time>2013-03-01T14:43:12Z</time>
      </trkpt>
      <trkpt lat="46.45927" lon="-1.48353">
        <ele>26.7</ele>
        <time>2013-03-01T14:43:13Z</time>
      </trkpt>
      <trkpt lat="46.45921" lon="-1.48354">
        <ele>26.8</ele>
        <time>2013-03-01T14:43:18Z</time>
      </trkpt>
      <trkpt lat="46.45917" lon="-1.48354">
        <ele>26.8</ele>
        <time>2013-03-01T14:43:21Z</time>
      </trkpt>
      <trkpt lat="46.45914" lon="-1.48355">
        <ele>26.6</ele>
        <time>2013-03-01T14:43:24Z</time>
      </trkpt>
      <trkpt lat="46.45911" lon="-1.48355">
        <ele>26.6</ele>
        <time>2013-03-01T14:43:27Z</time>
      </trkpt>
      <trkpt lat="46.45907" lon="-1.48354">
        <ele>26.7</ele>
        <time>2013-03-01T14:43:30Z</time>
      </trkpt>
      <trkpt lat="46.45903" lon="-1.48355">
        <ele>26.4</ele>
        <time>2013-03-01T14:43:34Z</time>
      </trkpt>
      <trkpt lat="46.459" lon="-1.48355">
        <ele>26.4</ele>
        <time>2013-03-01T14:43:37Z</time>
      </trkpt>
      <trkpt lat="46.45896" lon="-1.48354">
        <ele>26.7</ele>
        <time>2013-03-01T14:43:40Z</time>
      </trkpt>
      <trkpt lat="46.45891" lon="-1.48354">
        <ele>27.1</ele>
        <time>2013-03-01T14:43:44Z</time>
      </trkpt>
      <trkpt lat="46.45887" lon="-1.48354">
        <ele>27.1</ele>
        <time>2013-03-01T14:43:48Z</time>
      </trkpt>
      <trkpt lat="46.45883" lon="-1.48354">
        <ele>26.7</ele>
        <time>2013-03-01T14:43:52Z</time>
      </trkpt>
      <trkpt lat="46.4588" lon="-1.48354">
        <ele>26.6</ele>
        <time>2013-03-01T14:43:55Z</time>
      </trkpt>
      <trkpt lat="46.45876" lon="-1.48355">
        <ele>26.3</ele>
        <time>2013-03-01T14:43:58Z</time>
      </trkpt>
      <trkpt lat="46.45872" lon="-1.48354">
        <ele>26.3</ele>
        <time>2013-03-01T14:44:01Z</time>
      </trkpt>
      <trkpt lat="46.45869" lon="-1.48355">
        <ele>26.1</ele>
        <time>2013-03-01T14:44:04Z</time>
      </trkpt>
      <trkpt lat="46.45866" lon="-1.48355">
        <ele>26.1</ele>
        <time>2013-03-01T14:44:07Z</time>
      </trkpt>
      <trkpt lat="46.45862" lon="-1.48356">
        <ele>26</ele>
        <time>2013-03-01T14:44:10Z</time>
      </trkpt>
      <trkpt lat="46.45858" lon="-1.48357">
        <ele>26</ele>
        <time>2013-03-01T14:44:13Z</time>
      </trkpt>
      <trkpt lat="46.45857" lon="-1.48357">
        <ele>26.1</ele>
        <time>2013-03-01T14:44:14Z</time>
      </trkpt>
      <trkpt lat="46.45851" lon="-1.48358">
        <ele>26.1</ele>
        <time>2013-03-01T14:44:19Z</time>
      </trkpt>
      <trkpt lat="46.45848" lon="-1.48358">
        <ele>25.9</ele>
        <time>2013-03-01T14:44:22Z</time>
      </trkpt>
      <trkpt lat="46.45844" lon="-1.48358">
        <ele>26.2</ele>
        <time>2013-03-01T14:44:26Z</time>
      </trkpt>
      <trkpt lat="46.4584" lon="-1.48358">
        <ele>26.5</ele>
        <time>2013-03-01T14:44:29Z</time>
      </trkpt>
      <trkpt lat="46.45836" lon="-1.48358">
        <ele>25.6</ele>
        <time>2013-03-01T14:44:33Z</time>
      </trkpt>
      <trkpt lat="46.45832" lon="-1.48358">
        <ele>26.1</ele>
        <time>2013-03-01T14:44:36Z</time>
      </trkpt>
      <trkpt lat="46.45829" lon="-1.48358">
        <ele>25.7</ele>
        <time>2013-03-01T14:44:39Z</time>
      </trkpt>
      <trkpt lat="46.45824" lon="-1.48358">
        <ele>25.9</ele>
        <time>2013-03-01T14:44:42Z</time>
      </trkpt>
      <trkpt lat="46.4582" lon="-1.48358">
        <ele>26.4</ele>
        <time>2013-03-01T14:44:45Z</time>
      </trkpt>
      <trkpt lat="46.45816" lon="-1.48359">
        <ele>26.1</ele>
        <time>2013-03-01T14:44:48Z</time>
      </trkpt>
      <trkpt lat="46.45812" lon="-1.4836">
        <ele>26</ele>
        <time>2013-03-01T14:44:51Z</time>
      </trkpt>
      <trkpt lat="46.45808" lon="-1.48361">
        <ele>25.9</ele>
        <time>2013-03-01T14:44:54Z</time>
      </trkpt>
      <trkpt lat="46.45804" lon="-1.48362">
        <ele>25.5</ele>
        <time>2013-03-01T14:44:57Z</time>
      </trkpt>
      <trkpt lat="46.45801" lon="-1.48363">
        <ele>26.1</ele>
        <time>2013-03-01T14:45:00Z</time>
      </trkpt>
      <trkpt lat="46.45797" lon="-1.48364">
        <ele>26.3</ele>
        <time>2013-03-01T14:45:03Z</time>
      </trkpt>
      <trkpt lat="46.45793" lon="-1.48366">
        <ele>25.8</ele>
        <time>2013-03-01T14:45:06Z</time>
      </trkpt>
      <trkpt lat="46.4579" lon="-1.48367">
        <ele>25.7</ele>
        <time>2013-03-01T14:45:09Z</time>
      </trkpt>
      <trkpt lat="46.45787" lon="-1.48368">
        <ele>25.9</ele>
        <time>2013-03-01T14:45:12Z</time>
      </trkpt>
      <trkpt lat="46.45783" lon="-1.4837">
        <ele>25.9</ele>
        <time>2013-03-01T14:45:15Z</time>
      </trkpt>
      <trkpt lat="46.45782" lon="-1.48371">
        <ele>25.9</ele>
        <time>2013-03-01T14:45:16Z</time>
      </trkpt>
      <trkpt lat="46.45777" lon="-1.48374">
        <ele>25.3</ele>
        <time>2013-03-01T14:45:21Z</time>
      </trkpt>
      <trkpt lat="46.45773" lon="-1.48376">
        <ele>25.5</ele>
        <time>2013-03-01T14:45:24Z</time>
      </trkpt>
      <trkpt lat="46.4577" lon="-1.48379">
        <ele>25.2</ele>
        <time>2013-03-01T14:45:27Z</time>
      </trkpt>
      <trkpt lat="46.45767" lon="-1.4838">
        <ele>25.2</ele>
        <time>2013-03-01T14:45:30Z</time>
      </trkpt>
      <trkpt lat="46.45763" lon="-1.48382">
        <ele>25.3</ele>
        <time>2013-03-01T14:45:33Z</time>
      </trkpt>
      <trkpt lat="46.4576" lon="-1.48384">
        <ele>25.5</ele>
        <time>2013-03-01T14:45:36Z</time>
      </trkpt>
      <trkpt lat="46.45757" lon="-1.48385">
        <ele>26</ele>
        <time>2013-03-01T14:45:39Z</time>
      </trkpt>
      <trkpt lat="46.45753" lon="-1.48387">
        <ele>25.8</ele>
        <time>2013-03-01T14:45:42Z</time>
      </trkpt>
      <trkpt lat="46.4575" lon="-1.48388">
        <ele>25.4</ele>
        <time>2013-03-01T14:45:45Z</time>
      </trkpt>
      <trkpt lat="46.45746" lon="-1.4839">
        <ele>25.4</ele>
        <time>2013-03-01T14:45:49Z</time>
      </trkpt>
      <trkpt lat="46.45742" lon="-1.48392">
        <ele>24.7</ele>
        <time>2013-03-01T14:45:53Z</time>
      </trkpt>
      <trkpt lat="46.45739" lon="-1.48392">
        <ele>24.6</ele>
        <time>2013-03-01T14:45:56Z</time>
      </trkpt>
      <trkpt lat="46.45735" lon="-1.48394">
        <ele>25</ele>
        <time>2013-03-01T14:45:59Z</time>
      </trkpt>
      <trkpt lat="46.45732" lon="-1.48395">
        <ele>24.9</ele>
        <time>2013-03-01T14:46:02Z</time>
      </trkpt>
      <trkpt lat="46.45728" lon="-1.48396">
        <ele>24.9</ele>
        <time>2013-03-01T14:46:05Z</time>
      </trkpt>
      <trkpt lat="46.45725" lon="-1.48398">
        <ele>24.5</ele>
        <time>2013-03-01T14:46:08Z</time>
      </trkpt>
      <trkpt lat="46.45721" lon="-1.484">
        <ele>24.9</ele>
        <time>2013-03-01T14:46:11Z</time>
      </trkpt>
      <trkpt lat="46.45718" lon="-1.48401">
        <ele>25</ele>
        <time>2013-03-01T14:46:14Z</time>
      </trkpt>
      <trkpt lat="46.45714" lon="-1.48403">
        <ele>24.7</ele>
        <time>2013-03-01T14:46:17Z</time>
      </trkpt>
      <trkpt lat="46.45713" lon="-1.48404">
        <ele>24.7</ele>
        <time>2013-03-01T14:46:18Z</time>
      </trkpt>
      <trkpt lat="46.45708" lon="-1.48406">
        <ele>24.8</ele>
        <time>2013-03-01T14:46:23Z</time>
      </trkpt>
      <trkpt lat="46.45704" lon="-1.48408">
        <ele>24.9</ele>
        <time>2013-03-01T14:46:26Z</time>
      </trkpt>
      <trkpt lat="46.457" lon="-1.4841">
        <ele>24.6</ele>
        <time>2013-03-01T14:46:30Z</time>
      </trkpt>
      <trkpt lat="46.45696" lon="-1.48413">
        <ele>24.2</ele>
        <time>2013-03-01T14:46:34Z</time>
      </trkpt>
      <trkpt lat="46.45693" lon="-1.48414">
        <ele>23.8</ele>
        <time>2013-03-01T14:46:37Z</time>
      </trkpt>
      <trkpt lat="46.4569" lon="-1.48416">
        <ele>23.7</ele>
        <time>2013-03-01T14:46:40Z</time>
      </trkpt>
      <trkpt lat="46.45686" lon="-1.48418">
        <ele>23.8</ele>
        <time>2013-03-01T14:46:43Z</time>
      </trkpt>
      <trkpt lat="46.45682" lon="-1.4842">
        <ele>23.3</ele>
        <time>2013-03-01T14:46:47Z</time>
      </trkpt>
      <trkpt lat="46.45679" lon="-1.48421">
        <ele>23.4</ele>
        <time>2013-03-01T14:46:50Z</time>
      </trkpt>
      <trkpt lat="46.45675" lon="-1.48424">
        <ele>23.6</ele>
        <time>2013-03-01T14:46:54Z</time>
      </trkpt>
      <trkpt lat="46.4567" lon="-1.48426">
        <ele>23.6</ele>
        <time>2013-03-01T14:46:58Z</time>
      </trkpt>
      <trkpt lat="46.45666" lon="-1.48427">
        <ele>24.3</ele>
        <time>2013-03-01T14:47:02Z</time>
      </trkpt>
      <trkpt lat="46.45663" lon="-1.48428">
        <ele>24.1</ele>
        <time>2013-03-01T14:47:05Z</time>
      </trkpt>
      <trkpt lat="46.45659" lon="-1.48429">
        <ele>23.5</ele>
        <time>2013-03-01T14:47:08Z</time>
      </trkpt>
      <trkpt lat="46.45656" lon="-1.48432">
        <ele>22.7</ele>
        <time>2013-03-01T14:47:12Z</time>
      </trkpt>
      <trkpt lat="46.45652" lon="-1.48435">
        <ele>24.6</ele>
        <time>2013-03-01T14:47:19Z</time>
      </trkpt>
      <trkpt lat="46.45651" lon="-1.48435">
        <ele>24.5</ele>
        <time>2013-03-01T14:47:20Z</time>
      </trkpt>
      <trkpt lat="46.45644" lon="-1.48439">
        <ele>24.1</ele>
        <time>2013-03-01T14:47:27Z</time>
      </trkpt>
      <trkpt lat="46.45641" lon="-1.4844">
        <ele>23.7</ele>
        <time>2013-03-01T14:47:30Z</time>
      </trkpt>
      <trkpt lat="46.45637" lon="-1.48441">
        <ele>23.1</ele>
        <time>2013-03-01T14:47:34Z</time>
      </trkpt>
      <trkpt lat="46.45632" lon="-1.4844">
        <ele>23.1</ele>
        <time>2013-03-01T14:47:38Z</time>
      </trkpt>
      <trkpt lat="46.45629" lon="-1.48438">
        <ele>23.3</ele>
        <time>2013-03-01T14:47:41Z</time>
      </trkpt>
      <trkpt lat="46.45625" lon="-1.48436">
        <ele>23.4</ele>
        <time>2013-03-01T14:47:44Z</time>
      </trkpt>
      <trkpt lat="46.45621" lon="-1.48434">
        <ele>23.9</ele>
        <time>2013-03-01T14:47:48Z</time>
      </trkpt>
      <trkpt lat="46.45617" lon="-1.48432">
        <ele>23.8</ele>
        <time>2013-03-01T14:47:51Z</time>
      </trkpt>
      <trkpt lat="46.45614" lon="-1.4843">
        <ele>23.7</ele>
        <time>2013-03-01T14:47:54Z</time>
      </trkpt>
      <trkpt lat="46.4561" lon="-1.48427">
        <ele>23.8</ele>
        <time>2013-03-01T14:47:58Z</time>
      </trkpt>
      <trkpt lat="46.45607" lon="-1.48425">
        <ele>24</ele>
        <time>2013-03-01T14:48:01Z</time>
      </trkpt>
      <trkpt lat="46.45604" lon="-1.48423">
        <ele>24.2</ele>
        <time>2013-03-01T14:48:04Z</time>
      </trkpt>
      <trkpt lat="46.456" lon="-1.48421">
        <ele>23.8</ele>
        <time>2013-03-01T14:48:07Z</time>
      </trkpt>
      <trkpt lat="46.45597" lon="-1.48419">
        <ele>23.7</ele>
        <time>2013-03-01T14:48:10Z</time>
      </trkpt>
      <trkpt lat="46.45594" lon="-1.48417">
        <ele>23.5</ele>
        <time>2013-03-01T14:48:14Z</time>
      </trkpt>
      <trkpt lat="46.4559" lon="-1.48416">
        <ele>24</ele>
        <time>2013-03-01T14:48:18Z</time>
      </trkpt>
      <trkpt lat="46.4559" lon="-1.48416">
        <ele>24</ele>
        <time>2013-03-01T14:48:18Z</time>
      </trkpt>
      <trkpt lat="46.45587" lon="-1.48413">
        <ele>23.8</ele>
        <time>2013-03-01T14:48:21Z</time>
      </trkpt>
      <trkpt lat="46.45586" lon="-1.48412">
        <ele>23.7</ele>
        <time>2013-03-01T14:48:22Z</time>
      </trkpt>
      <trkpt lat="46.45581" lon="-1.48403">
        <ele>23</ele>
        <time>2013-03-01T14:48:29Z</time>
      </trkpt>
      <trkpt lat="46.45581" lon="-1.48397">
        <ele>23</ele>
        <time>2013-03-01T14:48:33Z</time>
      </trkpt>
      <trkpt lat="46.45581" lon="-1.48391">
        <ele>23.3</ele>
        <time>2013-03-01T14:48:37Z</time>
      </trkpt>
      <trkpt lat="46.45583" lon="-1.48386">
        <ele>23.3</ele>
        <time>2013-03-01T14:48:41Z</time>
      </trkpt>
      <trkpt lat="46.45585" lon="-1.48381">
        <ele>23.8</ele>
        <time>2013-03-01T14:48:46Z</time>
      </trkpt>
      <trkpt lat="46.45587" lon="-1.48376">
        <ele>22.5</ele>
        <time>2013-03-01T14:48:49Z</time>
      </trkpt>
      <trkpt lat="46.45589" lon="-1.48372">
        <ele>22.7</ele>
        <time>2013-03-01T14:48:54Z</time>
      </trkpt>
      <trkpt lat="46.45591" lon="-1.48367">
        <ele>22.8</ele>
        <time>2013-03-01T14:48:58Z</time>
      </trkpt>
      <trkpt lat="46.45592" lon="-1.48362">
        <ele>22.7</ele>
        <time>2013-03-01T14:49:01Z</time>
      </trkpt>
      <trkpt lat="46.45593" lon="-1.48358">
        <ele>22.5</ele>
        <time>2013-03-01T14:49:04Z</time>
      </trkpt>
      <trkpt lat="46.45594" lon="-1.48353">
        <ele>22.6</ele>
        <time>2013-03-01T14:49:07Z</time>
      </trkpt>
      <trkpt lat="46.45596" lon="-1.48348">
        <ele>22.6</ele>
        <time>2013-03-01T14:49:11Z</time>
      </trkpt>
      <trkpt lat="46.45598" lon="-1.48342">
        <ele>22.7</ele>
        <time>2013-03-01T14:49:15Z</time>
      </trkpt>
      <trkpt lat="46.456" lon="-1.48338">
        <ele>22.6</ele>
        <time>2013-03-01T14:49:18Z</time>
      </trkpt>
      <trkpt lat="46.45601" lon="-1.48333">
        <ele>22.5</ele>
        <time>2013-03-01T14:49:21Z</time>
      </trkpt>
      <trkpt lat="46.45603" lon="-1.48327">
        <ele>22.4</ele>
        <time>2013-03-01T14:49:25Z</time>
      </trkpt>
      <trkpt lat="46.45603" lon="-1.48326">
        <ele>22.3</ele>
        <time>2013-03-01T14:49:26Z</time>
      </trkpt>
      <trkpt lat="46.45606" lon="-1.48316">
        <ele>21.7</ele>
        <time>2013-03-01T14:49:33Z</time>
      </trkpt>
      <trkpt lat="46.45607" lon="-1.48311">
        <ele>22.1</ele>
        <time>2013-03-01T14:49:36Z</time>
      </trkpt>
      <trkpt lat="46.45608" lon="-1.48306">
        <ele>22.1</ele>
        <time>2013-03-01T14:49:39Z</time>
      </trkpt>
      <trkpt lat="46.4561" lon="-1.483">
        <ele>22.5</ele>
        <time>2013-03-01T14:49:43Z</time>
      </trkpt>
      <trkpt lat="46.45612" lon="-1.48295">
        <ele>22.8</ele>
        <time>2013-03-01T14:49:48Z</time>
      </trkpt>
      <trkpt lat="46.45614" lon="-1.4829">
        <ele>22.9</ele>
        <time>2013-03-01T14:49:52Z</time>
      </trkpt>
      <trkpt lat="46.45615" lon="-1.48285">
        <ele>23.1</ele>
        <time>2013-03-01T14:49:55Z</time>
      </trkpt>
      <trkpt lat="46.45617" lon="-1.4828">
        <ele>23.1</ele>
        <time>2013-03-01T14:49:58Z</time>
      </trkpt>
      <trkpt lat="46.4562" lon="-1.48277">
        <ele>22.9</ele>
        <time>2013-03-01T14:50:01Z</time>
      </trkpt>
      <trkpt lat="46.45622" lon="-1.48272">
        <ele>22.4</ele>
        <time>2013-03-01T14:50:04Z</time>
      </trkpt>
      <trkpt lat="46.45624" lon="-1.48266">
        <ele>22.3</ele>
        <time>2013-03-01T14:50:11Z</time>
      </trkpt>
      <trkpt lat="46.45624" lon="-1.48262">
        <ele>22.6</ele>
        <time>2013-03-01T14:50:15Z</time>
      </trkpt>
      <trkpt lat="46.45624" lon="-1.48255">
        <ele>22.6</ele>
        <time>2013-03-01T14:50:19Z</time>
      </trkpt>
      <trkpt lat="46.45627" lon="-1.48251">
        <ele>22.3</ele>
        <time>2013-03-01T14:50:23Z</time>
      </trkpt>
      <trkpt lat="46.45628" lon="-1.48245">
        <ele>22</ele>
        <time>2013-03-01T14:50:26Z</time>
      </trkpt>
      <trkpt lat="46.45628" lon="-1.48243">
        <ele>22</ele>
        <time>2013-03-01T14:50:27Z</time>
      </trkpt>
      <trkpt lat="46.45631" lon="-1.48235">
        <ele>22.6</ele>
        <time>2013-03-01T14:50:32Z</time>
      </trkpt>
      <trkpt lat="46.45633" lon="-1.48229">
        <ele>22.1</ele>
        <time>2013-03-01T14:50:35Z</time>
      </trkpt>
      <trkpt lat="46.45635" lon="-1.48223">
        <ele>22.2</ele>
        <time>2013-03-01T14:50:38Z</time>
      </trkpt>
      <trkpt lat="46.45635" lon="-1.48218">
        <ele>22.4</ele>
        <time>2013-03-01T14:50:41Z</time>
      </trkpt>
      <trkpt lat="46.45636" lon="-1.48212">
        <ele>22.2</ele>
        <time>2013-03-01T14:50:44Z</time>
      </trkpt>
      <trkpt lat="46.45637" lon="-1.48207">
        <ele>22.2</ele>
        <time>2013-03-01T14:50:47Z</time>
      </trkpt>
      <trkpt lat="46.45638" lon="-1.48201">
        <ele>22</ele>
        <time>2013-03-01T14:50:50Z</time>
      </trkpt>
      <trkpt lat="46.45639" lon="-1.48196">
        <ele>22.3</ele>
        <time>2013-03-01T14:50:53Z</time>
      </trkpt>
      <trkpt lat="46.4564" lon="-1.4819">
        <ele>21.5</ele>
        <time>2013-03-01T14:50:57Z</time>
      </trkpt>
      <trkpt lat="46.45642" lon="-1.48184">
        <ele>21.9</ele>
        <time>2013-03-01T14:51:01Z</time>
      </trkpt>
      <trkpt lat="46.45643" lon="-1.48179">
        <ele>21.8</ele>
        <time>2013-03-01T14:51:05Z</time>
      </trkpt>
      <trkpt lat="46.45644" lon="-1.48173">
        <ele>21.4</ele>
        <time>2013-03-01T14:51:09Z</time>
      </trkpt>
      <trkpt lat="46.45646" lon="-1.48167">
        <ele>21.2</ele>
        <time>2013-03-01T14:51:12Z</time>
      </trkpt>
      <trkpt lat="46.45646" lon="-1.48161">
        <ele>21.1</ele>
        <time>2013-03-01T14:51:15Z</time>
      </trkpt>
      <trkpt lat="46.45647" lon="-1.48156">
        <ele>21.2</ele>
        <time>2013-03-01T14:51:18Z</time>
      </trkpt>
      <trkpt lat="46.45648" lon="-1.48149">
        <ele>21.3</ele>
        <time>2013-03-01T14:51:22Z</time>
      </trkpt>
      <trkpt lat="46.45649" lon="-1.48143">
        <ele>21</ele>
        <time>2013-03-01T14:51:26Z</time>
      </trkpt>
      <trkpt lat="46.4565" lon="-1.48137">
        <ele>21.6</ele>
        <time>2013-03-01T14:51:30Z</time>
      </trkpt>
      <trkpt lat="46.4565" lon="-1.48136">
        <ele>21.6</ele>
        <time>2013-03-01T14:51:31Z</time>
      </trkpt>
      <trkpt lat="46.45652" lon="-1.48126">
        <ele>21.8</ele>
        <time>2013-03-01T14:51:38Z</time>
      </trkpt>
      <trkpt lat="46.45653" lon="-1.48121">
        <ele>21.6</ele>
        <time>2013-03-01T14:51:42Z</time>
      </trkpt>
      <trkpt lat="46.45654" lon="-1.48114">
        <ele>21.3</ele>
        <time>2013-03-01T14:51:46Z</time>
      </trkpt>
      <trkpt lat="46.45654" lon="-1.48108">
        <ele>21.3</ele>
        <time>2013-03-01T14:51:50Z</time>
      </trkpt>
      <trkpt lat="46.45656" lon="-1.48103">
        <ele>21.9</ele>
        <time>2013-03-01T14:51:53Z</time>
      </trkpt>
      <trkpt lat="46.45656" lon="-1.48097">
        <ele>21.9</ele>
        <time>2013-03-01T14:51:56Z</time>
      </trkpt>
      <trkpt lat="46.45658" lon="-1.48093">
        <ele>22.2</ele>
        <time>2013-03-01T14:51:59Z</time>
      </trkpt>
      <trkpt lat="46.45659" lon="-1.48088">
        <ele>21.8</ele>
        <time>2013-03-01T14:52:02Z</time>
      </trkpt>
      <trkpt lat="46.4566" lon="-1.48082">
        <ele>22.2</ele>
        <time>2013-03-01T14:52:06Z</time>
      </trkpt>
      <trkpt lat="46.45661" lon="-1.48076">
        <ele>22.2</ele>
        <time>2013-03-01T14:52:10Z</time>
      </trkpt>
      <trkpt lat="46.45661" lon="-1.48071">
        <ele>22.4</ele>
        <time>2013-03-01T14:52:14Z</time>
      </trkpt>
      <trkpt lat="46.45662" lon="-1.48065">
        <ele>22.5</ele>
        <time>2013-03-01T14:52:19Z</time>
      </trkpt>
      <trkpt lat="46.45662" lon="-1.48059">
        <ele>22</ele>
        <time>2013-03-01T14:52:24Z</time>
      </trkpt>
      <trkpt lat="46.45663" lon="-1.48053">
        <ele>21.7</ele>
        <time>2013-03-01T14:52:34Z</time>
      </trkpt>
      <trkpt lat="46.45663" lon="-1.48052">
        <ele>21.7</ele>
        <time>2013-03-01T14:52:35Z</time>
      </trkpt>
      <trkpt lat="46.45665" lon="-1.48041">
        <ele>21.9</ele>
        <time>2013-03-01T14:52:43Z</time>
      </trkpt>
      <trkpt lat="46.45666" lon="-1.48034">
        <ele>22.7</ele>
        <time>2013-03-01T14:52:48Z</time>
      </trkpt>
      <trkpt lat="46.45666" lon="-1.48029">
        <ele>22.2</ele>
        <time>2013-03-01T14:52:52Z</time>
      </trkpt>
      <trkpt lat="46.45666" lon="-1.48023">
        <ele>23</ele>
        <time>2013-03-01T14:52:56Z</time>
      </trkpt>
      <trkpt lat="46.45667" lon="-1.48018">
        <ele>23.6</ele>
        <time>2013-03-01T14:52:59Z</time>
      </trkpt>
      <trkpt lat="46.45668" lon="-1.48012">
        <ele>23.1</ele>
        <time>2013-03-01T14:53:03Z</time>
      </trkpt>
      <trkpt lat="46.45668" lon="-1.48007">
        <ele>22.7</ele>
        <time>2013-03-01T14:53:06Z</time>
      </trkpt>
      <trkpt lat="46.45668" lon="-1.48">
        <ele>22.7</ele>
        <time>2013-03-01T14:53:10Z</time>
      </trkpt>
      <trkpt lat="46.45667" lon="-1.47994">
        <ele>23.1</ele>
        <time>2013-03-01T14:53:14Z</time>
      </trkpt>
      <trkpt lat="46.45667" lon="-1.47988">
        <ele>23.5</ele>
        <time>2013-03-01T14:53:18Z</time>
      </trkpt>
      <trkpt lat="46.45667" lon="-1.47982">
        <ele>24</ele>
        <time>2013-03-01T14:53:22Z</time>
      </trkpt>
      <trkpt lat="46.45668" lon="-1.47976">
        <ele>24.2</ele>
        <time>2013-03-01T14:53:26Z</time>
      </trkpt>
      <trkpt lat="46.45668" lon="-1.4797">
        <ele>24.4</ele>
        <time>2013-03-01T14:53:30Z</time>
      </trkpt>
      <trkpt lat="46.45668" lon="-1.47964">
        <ele>24.4</ele>
        <time>2013-03-01T14:53:34Z</time>
      </trkpt>
      <trkpt lat="46.45668" lon="-1.47959">
        <ele>24.6</ele>
        <time>2013-03-01T14:53:37Z</time>
      </trkpt>
      <trkpt lat="46.45668" lon="-1.47957">
        <ele>24.9</ele>
        <time>2013-03-01T14:53:38Z</time>
      </trkpt>
      <trkpt lat="46.45669" lon="-1.47948">
        <ele>25.5</ele>
        <time>2013-03-01T14:53:45Z</time>
      </trkpt>
      <trkpt lat="46.4567" lon="-1.47942">
        <ele>25</ele>
        <time>2013-03-01T14:53:49Z</time>
      </trkpt>
      <trkpt lat="46.45669" lon="-1.47937">
        <ele>24.9</ele>
        <time>2013-03-01T14:53:52Z</time>
      </trkpt>
      <trkpt lat="46.45669" lon="-1.47931">
        <ele>24.4</ele>
        <time>2013-03-01T14:53:56Z</time>
      </trkpt>
      <trkpt lat="46.45669" lon="-1.47925">
        <ele>25.4</ele>
        <time>2013-03-01T14:54:00Z</time>
      </trkpt>
      <trkpt lat="46.45669" lon="-1.47919">
        <ele>25.3</ele>
        <time>2013-03-01T14:54:05Z</time>
      </trkpt>
      <trkpt lat="46.45669" lon="-1.47913">
        <ele>26.2</ele>
        <time>2013-03-01T14:54:09Z</time>
      </trkpt>
      <trkpt lat="46.45669" lon="-1.47909">
        <ele>25.4</ele>
        <time>2013-03-01T14:54:12Z</time>
      </trkpt>
      <trkpt lat="46.4567" lon="-1.47903">
        <ele>26</ele>
        <time>2013-03-01T14:54:15Z</time>
      </trkpt>
      <trkpt lat="46.4567" lon="-1.47899">
        <ele>26.4</ele>
        <time>2013-03-01T14:54:18Z</time>
      </trkpt>
      <trkpt lat="46.45671" lon="-1.47894">
        <ele>26.5</ele>
        <time>2013-03-01T14:54:21Z</time>
      </trkpt>
      <trkpt lat="46.45672" lon="-1.47888">
        <ele>26.9</ele>
        <time>2013-03-01T14:54:24Z</time>
      </trkpt>
      <trkpt lat="46.45672" lon="-1.47883">
        <ele>26.7</ele>
        <time>2013-03-01T14:54:26Z</time>
      </trkpt>
      <trkpt lat="46.45673" lon="-1.47879">
        <ele>26.9</ele>
        <time>2013-03-01T14:54:28Z</time>
      </trkpt>
      <trkpt lat="46.45674" lon="-1.47875">
        <ele>27</ele>
        <time>2013-03-01T14:54:30Z</time>
      </trkpt>
      <trkpt lat="46.45675" lon="-1.4787">
        <ele>27.4</ele>
        <time>2013-03-01T14:54:32Z</time>
      </trkpt>
      <trkpt lat="46.45675" lon="-1.47865">
        <ele>27.8</ele>
        <time>2013-03-01T14:54:35Z</time>
      </trkpt>
      <trkpt lat="46.45677" lon="-1.47859">
        <ele>27.8</ele>
        <time>2013-03-01T14:54:39Z</time>
      </trkpt>
      <trkpt lat="46.45677" lon="-1.47858">
        <ele>27.6</ele>
        <time>2013-03-01T14:54:40Z</time>
      </trkpt>
      <trkpt lat="46.45679" lon="-1.47849">
        <ele>28.1</ele>
        <time>2013-03-01T14:54:46Z</time>
      </trkpt>
      <trkpt lat="46.45681" lon="-1.47844">
        <ele>28.6</ele>
        <time>2013-03-01T14:54:49Z</time>
      </trkpt>
      <trkpt lat="46.45683" lon="-1.47838">
        <ele>28.4</ele>
        <time>2013-03-01T14:54:53Z</time>
      </trkpt>
      <trkpt lat="46.45683" lon="-1.47833">
        <ele>28.9</ele>
        <time>2013-03-01T14:54:56Z</time>
      </trkpt>
      <trkpt lat="46.45684" lon="-1.47828">
        <ele>29.1</ele>
        <time>2013-03-01T14:54:59Z</time>
      </trkpt>
      <trkpt lat="46.45685" lon="-1.47824">
        <ele>29.2</ele>
        <time>2013-03-01T14:55:01Z</time>
      </trkpt>
      <trkpt lat="46.45685" lon="-1.47819">
        <ele>29.1</ele>
        <time>2013-03-01T14:55:03Z</time>
      </trkpt>
      <trkpt lat="46.45685" lon="-1.47814">
        <ele>29.1</ele>
        <time>2013-03-01T14:55:05Z</time>
      </trkpt>
      <trkpt lat="46.45686" lon="-1.47808">
        <ele>29.2</ele>
        <time>2013-03-01T14:55:08Z</time>
      </trkpt>
      <trkpt lat="46.45687" lon="-1.47802">
        <ele>28.7</ele>
        <time>2013-03-01T14:55:11Z</time>
      </trkpt>
      <trkpt lat="46.45688" lon="-1.47797">
        <ele>28.8</ele>
        <time>2013-03-01T14:55:14Z</time>
      </trkpt>
      <trkpt lat="46.45689" lon="-1.47792">
        <ele>29.3</ele>
        <time>2013-03-01T14:55:17Z</time>
      </trkpt>
      <trkpt lat="46.4569" lon="-1.47786">
        <ele>29.7</ele>
        <time>2013-03-01T14:55:20Z</time>
      </trkpt>
      <trkpt lat="46.4569" lon="-1.4778">
        <ele>29.8</ele>
        <time>2013-03-01T14:55:23Z</time>
      </trkpt>
      <trkpt lat="46.45691" lon="-1.47774">
        <ele>29.4</ele>
        <time>2013-03-01T14:55:26Z</time>
      </trkpt>
      <trkpt lat="46.45692" lon="-1.47768">
        <ele>29.2</ele>
        <time>2013-03-01T14:55:29Z</time>
      </trkpt>
      <trkpt lat="46.45693" lon="-1.47763">
        <ele>29.3</ele>
        <time>2013-03-01T14:55:32Z</time>
      </trkpt>
      <trkpt lat="46.45694" lon="-1.47758">
        <ele>30.1</ele>
        <time>2013-03-01T14:55:35Z</time>
      </trkpt>
      <trkpt lat="46.45696" lon="-1.47752">
        <ele>30.3</ele>
        <time>2013-03-01T14:55:38Z</time>
      </trkpt>
      <trkpt lat="46.45697" lon="-1.47746">
        <ele>30.2</ele>
        <time>2013-03-01T14:55:41Z</time>
      </trkpt>
      <trkpt lat="46.45697" lon="-1.47744">
        <ele>30.2</ele>
        <time>2013-03-01T14:55:42Z</time>
      </trkpt>
      <trkpt lat="46.45699" lon="-1.47735">
        <ele>29.8</ele>
        <time>2013-03-01T14:55:51Z</time>
      </trkpt>
      <trkpt lat="46.45701" lon="-1.4773">
        <ele>30.5</ele>
        <time>2013-03-01T14:55:59Z</time>
      </trkpt>
      <trkpt lat="46.45701" lon="-1.47725">
        <ele>30.4</ele>
        <time>2013-03-01T14:56:02Z</time>
      </trkpt>
      <trkpt lat="46.45702" lon="-1.4772">
        <ele>29.7</ele>
        <time>2013-03-01T14:56:05Z</time>
      </trkpt>
      <trkpt lat="46.45703" lon="-1.47715">
        <ele>29.9</ele>
        <time>2013-03-01T14:56:08Z</time>
      </trkpt>
      <trkpt lat="46.45705" lon="-1.4771">
        <ele>29.8</ele>
        <time>2013-03-01T14:56:11Z</time>
      </trkpt>
      <trkpt lat="46.45706" lon="-1.47704">
        <ele>29.4</ele>
        <time>2013-03-01T14:56:15Z</time>
      </trkpt>
      <trkpt lat="46.45707" lon="-1.47699">
        <ele>29.7</ele>
        <time>2013-03-01T14:56:18Z</time>
      </trkpt>
      <trkpt lat="46.45708" lon="-1.47693">
        <ele>30</ele>
        <time>2013-03-01T14:56:21Z</time>
      </trkpt>
      <trkpt lat="46.45709" lon="-1.47688">
        <ele>30.2</ele>
        <time>2013-03-01T14:56:24Z</time>
      </trkpt>
      <trkpt lat="46.45711" lon="-1.47683">
        <ele>30.4</ele>
        <time>2013-03-01T14:56:27Z</time>
      </trkpt>
      <trkpt lat="46.45712" lon="-1.47677">
        <ele>30.7</ele>
        <time>2013-03-01T14:56:30Z</time>
      </trkpt>
      <trkpt lat="46.45713" lon="-1.47673">
        <ele>30</ele>
        <time>2013-03-01T14:56:33Z</time>
      </trkpt>
      <trkpt lat="46.45714" lon="-1.47668">
        <ele>29.8</ele>
        <time>2013-03-01T14:56:36Z</time>
      </trkpt>
      <trkpt lat="46.45715" lon="-1.47663">
        <ele>30.3</ele>
        <time>2013-03-01T14:56:39Z</time>
      </trkpt>
      <trkpt lat="46.45716" lon="-1.47657">
        <ele>30.9</ele>
        <time>2013-03-01T14:56:42Z</time>
      </trkpt>
      <trkpt lat="46.45716" lon="-1.47656">
        <ele>30.9</ele>
        <time>2013-03-01T14:56:43Z</time>
      </trkpt>
      <trkpt lat="46.45718" lon="-1.47647">
        <ele>30.8</ele>
        <time>2013-03-01T14:56:48Z</time>
      </trkpt>
      <trkpt lat="46.45719" lon="-1.4764">
        <ele>31.2</ele>
        <time>2013-03-01T14:56:51Z</time>
      </trkpt>
      <trkpt lat="46.4572" lon="-1.47635">
        <ele>30.8</ele>
        <time>2013-03-01T14:56:54Z</time>
      </trkpt>
      <trkpt lat="46.45721" lon="-1.4763">
        <ele>31.1</ele>
        <time>2013-03-01T14:56:57Z</time>
      </trkpt>
      <trkpt lat="46.45722" lon="-1.47624">
        <ele>31.1</ele>
        <time>2013-03-01T14:57:00Z</time>
      </trkpt>
      <trkpt lat="46.45724" lon="-1.47619">
        <ele>31.3</ele>
        <time>2013-03-01T14:57:03Z</time>
      </trkpt>
      <trkpt lat="46.45725" lon="-1.47613">
        <ele>31.6</ele>
        <time>2013-03-01T14:57:06Z</time>
      </trkpt>
      <trkpt lat="46.45726" lon="-1.47607">
        <ele>31.6</ele>
        <time>2013-03-01T14:57:09Z</time>
      </trkpt>
      <trkpt lat="46.45726" lon="-1.47602">
        <ele>31.3</ele>
        <time>2013-03-01T14:57:12Z</time>
      </trkpt>
      <trkpt lat="46.45727" lon="-1.47597">
        <ele>30.6</ele>
        <time>2013-03-01T14:57:15Z</time>
      </trkpt>
      <trkpt lat="46.45728" lon="-1.47591">
        <ele>31.1</ele>
        <time>2013-03-01T14:57:18Z</time>
      </trkpt>
      <trkpt lat="46.45729" lon="-1.47586">
        <ele>31.3</ele>
        <time>2013-03-01T14:57:21Z</time>
      </trkpt>
      <trkpt lat="46.4573" lon="-1.4758">
        <ele>31.1</ele>
        <time>2013-03-01T14:57:24Z</time>
      </trkpt>
      <trkpt lat="46.4573" lon="-1.47576">
        <ele>32</ele>
        <time>2013-03-01T14:57:27Z</time>
      </trkpt>
      <trkpt lat="46.45731" lon="-1.4757">
        <ele>31.3</ele>
        <time>2013-03-01T14:57:30Z</time>
      </trkpt>
      <trkpt lat="46.45732" lon="-1.47565">
        <ele>31.3</ele>
        <time>2013-03-01T14:57:33Z</time>
      </trkpt>
      <trkpt lat="46.45733" lon="-1.47559">
        <ele>31.3</ele>
        <time>2013-03-01T14:57:36Z</time>
      </trkpt>
      <trkpt lat="46.45733" lon="-1.47553">
        <ele>31.7</ele>
        <time>2013-03-01T14:57:39Z</time>
      </trkpt>
      <trkpt lat="46.45734" lon="-1.47548">
        <ele>31.8</ele>
        <time>2013-03-01T14:57:42Z</time>
      </trkpt>
      <trkpt lat="46.45735" lon="-1.47543">
        <ele>31.4</ele>
        <time>2013-03-01T14:57:45Z</time>
      </trkpt>
      <trkpt lat="46.45735" lon="-1.47541">
        <ele>31.3</ele>
        <time>2013-03-01T14:57:46Z</time>
      </trkpt>
      <trkpt lat="46.45736" lon="-1.47532">
        <ele>32</ele>
        <time>2013-03-01T14:57:51Z</time>
      </trkpt>
      <trkpt lat="46.45737" lon="-1.47527">
        <ele>32.6</ele>
        <time>2013-03-01T14:57:54Z</time>
      </trkpt>
      <trkpt lat="46.45737" lon="-1.47521">
        <ele>32.5</ele>
        <time>2013-03-01T14:57:57Z</time>
      </trkpt>
      <trkpt lat="46.45738" lon="-1.47517">
        <ele>32.6</ele>
        <time>2013-03-01T14:58:00Z</time>
      </trkpt>
      <trkpt lat="46.45739" lon="-1.4751">
        <ele>32.5</ele>
        <time>2013-03-01T14:58:04Z</time>
      </trkpt>
      <trkpt lat="46.45739" lon="-1.47504">
        <ele>32.6</ele>
        <time>2013-03-01T14:58:08Z</time>
      </trkpt>
      <trkpt lat="46.45739" lon="-1.47498">
        <ele>32.6</ele>
        <time>2013-03-01T14:58:12Z</time>
      </trkpt>
      <trkpt lat="46.45737" lon="-1.47494">
        <ele>32.6</ele>
        <time>2013-03-01T14:58:15Z</time>
      </trkpt>
      <trkpt lat="46.45737" lon="-1.47494">
        <ele>32.6</ele>
        <time>2013-03-01T14:58:15Z</time>
      </trkpt>
      <trkpt lat="46.45732" lon="-1.47493">
        <ele>32.5</ele>
        <time>2013-03-01T14:58:19Z</time>
      </trkpt>
      <trkpt lat="46.45729" lon="-1.47493">
        <ele>32.5</ele>
        <time>2013-03-01T14:58:22Z</time>
      </trkpt>
      <trkpt lat="46.45726" lon="-1.47494">
        <ele>32.6</ele>
        <time>2013-03-01T14:58:25Z</time>
      </trkpt>
      <trkpt lat="46.45722" lon="-1.47495">
        <ele>33.2</ele>
        <time>2013-03-01T14:58:28Z</time>
      </trkpt>
      <trkpt lat="46.45719" lon="-1.47495">
        <ele>33</ele>
        <time>2013-03-01T14:58:31Z</time>
      </trkpt>
      <trkpt lat="46.45715" lon="-1.47496">
        <ele>32.5</ele>
        <time>2013-03-01T14:58:34Z</time>
      </trkpt>
      <trkpt lat="46.45712" lon="-1.47497">
        <ele>31.9</ele>
        <time>2013-03-01T14:58:37Z</time>
      </trkpt>
      <trkpt lat="46.45708" lon="-1.47498">
        <ele>32.6</ele>
        <time>2013-03-01T14:58:40Z</time>
      </trkpt>
      <trkpt lat="46.45704" lon="-1.47498">
        <ele>32.4</ele>
        <time>2013-03-01T14:58:43Z</time>
      </trkpt>
      <trkpt lat="46.457" lon="-1.47498">
        <ele>32.3</ele>
        <time>2013-03-01T14:58:46Z</time>
      </trkpt>
      <trkpt lat="46.45699" lon="-1.47499">
        <ele>32.2</ele>
        <time>2013-03-01T14:58:47Z</time>
      </trkpt>
      <trkpt lat="46.45693" lon="-1.475">
        <ele>32.3</ele>
        <time>2013-03-01T14:58:52Z</time>
      </trkpt>
      <trkpt lat="46.45689" lon="-1.475">
        <ele>32.2</ele>
        <time>2013-03-01T14:58:55Z</time>
      </trkpt>
      <trkpt lat="46.45686" lon="-1.47501">
        <ele>32.6</ele>
        <time>2013-03-01T14:58:58Z</time>
      </trkpt>
      <trkpt lat="46.45682" lon="-1.47502">
        <ele>32.6</ele>
        <time>2013-03-01T14:59:01Z</time>
      </trkpt>
      <trkpt lat="46.45678" lon="-1.47503">
        <ele>32.2</ele>
        <time>2013-03-01T14:59:04Z</time>
      </trkpt>
      <trkpt lat="46.45674" lon="-1.47504">
        <ele>32.2</ele>
        <time>2013-03-01T14:59:07Z</time>
      </trkpt>
      <trkpt lat="46.4567" lon="-1.47505">
        <ele>32.1</ele>
        <time>2013-03-01T14:59:10Z</time>
      </trkpt>
      <trkpt lat="46.45666" lon="-1.47505">
        <ele>32.3</ele>
        <time>2013-03-01T14:59:13Z</time>
      </trkpt>
      <trkpt lat="46.45662" lon="-1.47506">
        <ele>32.3</ele>
        <time>2013-03-01T14:59:16Z</time>
      </trkpt>
      <trkpt lat="46.45659" lon="-1.47506">
        <ele>32</ele>
        <time>2013-03-01T14:59:19Z</time>
      </trkpt>
      <trkpt lat="46.45655" lon="-1.47507">
        <ele>31.9</ele>
        <time>2013-03-01T14:59:22Z</time>
      </trkpt>
      <trkpt lat="46.45651" lon="-1.47508">
        <ele>32.5</ele>
        <time>2013-03-01T14:59:25Z</time>
      </trkpt>
      <trkpt lat="46.45648" lon="-1.47509">
        <ele>32.2</ele>
        <time>2013-03-01T14:59:28Z</time>
      </trkpt>
      <trkpt lat="46.45644" lon="-1.47509">
        <ele>32.2</ele>
        <time>2013-03-01T14:59:31Z</time>
      </trkpt>
      <trkpt lat="46.4564" lon="-1.4751">
        <ele>32.6</ele>
        <time>2013-03-01T14:59:34Z</time>
      </trkpt>
      <trkpt lat="46.45636" lon="-1.4751">
        <ele>32.4</ele>
        <time>2013-03-01T14:59:38Z</time>
      </trkpt>
      <trkpt lat="46.45632" lon="-1.47511">
        <ele>32.5</ele>
        <time>2013-03-01T14:59:41Z</time>
      </trkpt>
      <trkpt lat="46.45629" lon="-1.47512">
        <ele>32.3</ele>
        <time>2013-03-01T14:59:44Z</time>
      </trkpt>
      <trkpt lat="46.45625" lon="-1.47512">
        <ele>32.5</ele>
        <time>2013-03-01T14:59:47Z</time>
      </trkpt>
      <trkpt lat="46.45624" lon="-1.47512">
        <ele>32.5</ele>
        <time>2013-03-01T14:59:48Z</time>
      </trkpt>
      <trkpt lat="46.45618" lon="-1.47514">
        <ele>32.5</ele>
        <time>2013-03-01T14:59:53Z</time>
      </trkpt>
      <trkpt lat="46.45614" lon="-1.47515">
        <ele>32.3</ele>
        <time>2013-03-01T14:59:56Z</time>
      </trkpt>
      <trkpt lat="46.45611" lon="-1.47517">
        <ele>32.4</ele>
        <time>2013-03-01T14:59:59Z</time>
      </trkpt>
      <trkpt lat="46.45607" lon="-1.47518">
        <ele>32.7</ele>
        <time>2013-03-01T15:00:02Z</time>
      </trkpt>
      <trkpt lat="46.45603" lon="-1.47519">
        <ele>32.3</ele>
        <time>2013-03-01T15:00:05Z</time>
      </trkpt>
      <trkpt lat="46.45599" lon="-1.47521">
        <ele>31.9</ele>
        <time>2013-03-01T15:00:09Z</time>
      </trkpt>
      <trkpt lat="46.45596" lon="-1.47523">
        <ele>31.9</ele>
        <time>2013-03-01T15:00:12Z</time>
      </trkpt>
      <trkpt lat="46.45592" lon="-1.47524">
        <ele>32</ele>
        <time>2013-03-01T15:00:15Z</time>
      </trkpt>
      <trkpt lat="46.45589" lon="-1.47525">
        <ele>32.1</ele>
        <time>2013-03-01T15:00:18Z</time>
      </trkpt>
      <trkpt lat="46.45585" lon="-1.47527">
        <ele>32.7</ele>
        <time>2013-03-01T15:00:22Z</time>
      </trkpt>
      <trkpt lat="46.4558" lon="-1.47529">
        <ele>32.8</ele>
        <time>2013-03-01T15:00:26Z</time>
      </trkpt>
      <trkpt lat="46.45576" lon="-1.4753">
        <ele>32.4</ele>
        <time>2013-03-01T15:00:30Z</time>
      </trkpt>
      <trkpt lat="46.45572" lon="-1.47531">
        <ele>31.7</ele>
        <time>2013-03-01T15:00:34Z</time>
      </trkpt>
      <trkpt lat="46.45567" lon="-1.47533">
        <ele>31.9</ele>
        <time>2013-03-01T15:00:38Z</time>
      </trkpt>
      <trkpt lat="46.45564" lon="-1.47534">
        <ele>31.2</ele>
        <time>2013-03-01T15:00:41Z</time>
      </trkpt>
      <trkpt lat="46.45561" lon="-1.47536">
        <ele>31.5</ele>
        <time>2013-03-01T15:00:44Z</time>
      </trkpt>
      <trkpt lat="46.45557" lon="-1.47537">
        <ele>31.5</ele>
        <time>2013-03-01T15:00:47Z</time>
      </trkpt>
      <trkpt lat="46.45553" lon="-1.47539">
        <ele>31.5</ele>
        <time>2013-03-01T15:00:50Z</time>
      </trkpt>
      <trkpt lat="46.45551" lon="-1.47539">
        <ele>31.5</ele>
        <time>2013-03-01T15:00:51Z</time>
      </trkpt>
      <trkpt lat="46.45544" lon="-1.47542">
        <ele>31.7</ele>
        <time>2013-03-01T15:00:56Z</time>
      </trkpt>
      <trkpt lat="46.4554" lon="-1.47544">
        <ele>31.3</ele>
        <time>2013-03-01T15:00:59Z</time>
      </trkpt>
      <trkpt lat="46.45536" lon="-1.47545">
        <ele>30.8</ele>
        <time>2013-03-01T15:01:02Z</time>
      </trkpt>
      <trkpt lat="46.45533" lon="-1.47546">
        <ele>30.7</ele>
        <time>2013-03-01T15:01:05Z</time>
      </trkpt>
      <trkpt lat="46.45529" lon="-1.47548">
        <ele>30</ele>
        <time>2013-03-01T15:01:08Z</time>
      </trkpt>
      <trkpt lat="46.45525" lon="-1.47548">
        <ele>29.8</ele>
        <time>2013-03-01T15:01:11Z</time>
      </trkpt>
      <trkpt lat="46.45521" lon="-1.4755">
        <ele>29.3</ele>
        <time>2013-03-01T15:01:14Z</time>
      </trkpt>
      <trkpt lat="46.45517" lon="-1.47551">
        <ele>29.1</ele>
        <time>2013-03-01T15:01:17Z</time>
      </trkpt>
      <trkpt lat="46.45514" lon="-1.47551">
        <ele>29.7</ele>
        <time>2013-03-01T15:01:20Z</time>
      </trkpt>
      <trkpt lat="46.45511" lon="-1.47551">
        <ele>29.2</ele>
        <time>2013-03-01T15:01:21Z</time>
      </trkpt>
      <trkpt lat="46.45506" lon="-1.47551">
        <ele>27.9</ele>
        <time>2013-03-01T15:01:24Z</time>
      </trkpt>
      <trkpt lat="46.45502" lon="-1.4755">
        <ele>28.9</ele>
        <time>2013-03-01T15:01:27Z</time>
      </trkpt>
      <trkpt lat="46.45499" lon="-1.47547">
        <ele>29.7</ele>
        <time>2013-03-01T15:01:30Z</time>
      </trkpt>
      <trkpt lat="46.45496" lon="-1.47543">
        <ele>28.4</ele>
        <time>2013-03-01T15:01:33Z</time>
      </trkpt>
      <trkpt lat="46.45496" lon="-1.47543">
        <ele>28.4</ele>
        <time>2013-03-01T15:01:33Z</time>
      </trkpt>
      <trkpt lat="46.45494" lon="-1.47538">
        <ele>27.7</ele>
        <time>2013-03-01T15:01:36Z</time>
      </trkpt>
      <trkpt lat="46.45493" lon="-1.47534">
        <ele>28.8</ele>
        <time>2013-03-01T15:01:39Z</time>
      </trkpt>
      <trkpt lat="46.45492" lon="-1.47529">
        <ele>29.4</ele>
        <time>2013-03-01T15:01:42Z</time>
      </trkpt>
      <trkpt lat="46.45491" lon="-1.47524">
        <ele>29.3</ele>
        <time>2013-03-01T15:01:45Z</time>
      </trkpt>
      <trkpt lat="46.45491" lon="-1.47517">
        <ele>29.1</ele>
        <time>2013-03-01T15:01:49Z</time>
      </trkpt>
      <trkpt lat="46.4549" lon="-1.47512">
        <ele>28.8</ele>
        <time>2013-03-01T15:01:52Z</time>
      </trkpt>
      <trkpt lat="46.4549" lon="-1.4751">
        <ele>28.6</ele>
        <time>2013-03-01T15:01:53Z</time>
      </trkpt>
      <trkpt lat="46.45488" lon="-1.475">
        <ele>28.8</ele>
        <time>2013-03-01T15:01:59Z</time>
      </trkpt>
      <trkpt lat="46.45487" lon="-1.47495">
        <ele>28.9</ele>
        <time>2013-03-01T15:02:02Z</time>
      </trkpt>
      <trkpt lat="46.45487" lon="-1.4749">
        <ele>28.6</ele>
        <time>2013-03-01T15:02:05Z</time>
      </trkpt>
      <trkpt lat="46.45486" lon="-1.47484">
        <ele>28.5</ele>
        <time>2013-03-01T15:02:08Z</time>
      </trkpt>
      <trkpt lat="46.45486" lon="-1.47479">
        <ele>28.3</ele>
        <time>2013-03-01T15:02:11Z</time>
      </trkpt>
      <trkpt lat="46.45485" lon="-1.47473">
        <ele>28.2</ele>
        <time>2013-03-01T15:02:14Z</time>
      </trkpt>
      <trkpt lat="46.45485" lon="-1.47468">
        <ele>28.6</ele>
        <time>2013-03-01T15:02:17Z</time>
      </trkpt>
      <trkpt lat="46.45484" lon="-1.47463">
        <ele>28.5</ele>
        <time>2013-03-01T15:02:20Z</time>
      </trkpt>
      <trkpt lat="46.45483" lon="-1.47457">
        <ele>28</ele>
        <time>2013-03-01T15:02:24Z</time>
      </trkpt>
      <trkpt lat="46.45482" lon="-1.47452">
        <ele>28.1</ele>
        <time>2013-03-01T15:02:28Z</time>
      </trkpt>
      <trkpt lat="46.45481" lon="-1.47447">
        <ele>27.4</ele>
        <time>2013-03-01T15:02:32Z</time>
      </trkpt>
      <trkpt lat="46.45479" lon="-1.47441">
        <ele>27.8</ele>
        <time>2013-03-01T15:02:36Z</time>
      </trkpt>
      <trkpt lat="46.45478" lon="-1.47436">
        <ele>28.2</ele>
        <time>2013-03-01T15:02:39Z</time>
      </trkpt>
      <trkpt lat="46.45478" lon="-1.47431">
        <ele>28.3</ele>
        <time>2013-03-01T15:02:42Z</time>
      </trkpt>
      <trkpt lat="46.45477" lon="-1.47425">
        <ele>28.3</ele>
        <time>2013-03-01T15:02:45Z</time>
      </trkpt>
      <trkpt lat="46.45476" lon="-1.4742">
        <ele>27.4</ele>
        <time>2013-03-01T15:02:48Z</time>
      </trkpt>
      <trkpt lat="46.45475" lon="-1.47415">
        <ele>26.8</ele>
        <time>2013-03-01T15:02:51Z</time>
      </trkpt>
      <trkpt lat="46.45474" lon="-1.4741">
        <ele>27.6</ele>
        <time>2013-03-01T15:02:54Z</time>
      </trkpt>
      <trkpt lat="46.45474" lon="-1.47408">
        <ele>27.7</ele>
        <time>2013-03-01T15:02:55Z</time>
      </trkpt>
      <trkpt lat="46.45473" lon="-1.47399">
        <ele>27.9</ele>
        <time>2013-03-01T15:03:00Z</time>
      </trkpt>
      <trkpt lat="46.45472" lon="-1.47393">
        <ele>27.3</ele>
        <time>2013-03-01T15:03:04Z</time>
      </trkpt>
      <trkpt lat="46.45471" lon="-1.47388">
        <ele>27.3</ele>
        <time>2013-03-01T15:03:07Z</time>
      </trkpt>
      <trkpt lat="46.4547" lon="-1.47382">
        <ele>27.4</ele>
        <time>2013-03-01T15:03:11Z</time>
      </trkpt>
      <trkpt lat="46.45468" lon="-1.47376">
        <ele>27.6</ele>
        <time>2013-03-01T15:03:15Z</time>
      </trkpt>
      <trkpt lat="46.45468" lon="-1.47371">
        <ele>27.4</ele>
        <time>2013-03-01T15:03:17Z</time>
      </trkpt>
      <trkpt lat="46.45467" lon="-1.47365">
        <ele>26.9</ele>
        <time>2013-03-01T15:03:21Z</time>
      </trkpt>
      <trkpt lat="46.45466" lon="-1.4736">
        <ele>27.4</ele>
        <time>2013-03-01T15:03:24Z</time>
      </trkpt>
      <trkpt lat="46.45465" lon="-1.47355">
        <ele>27.3</ele>
        <time>2013-03-01T15:03:28Z</time>
      </trkpt>
      <trkpt lat="46.45465" lon="-1.47349">
        <ele>27.4</ele>
        <time>2013-03-01T15:03:31Z</time>
      </trkpt>
      <trkpt lat="46.45464" lon="-1.47343">
        <ele>27.4</ele>
        <time>2013-03-01T15:03:34Z</time>
      </trkpt>
      <trkpt lat="46.45463" lon="-1.47337">
        <ele>27.2</ele>
        <time>2013-03-01T15:03:37Z</time>
      </trkpt>
      <trkpt lat="46.45462" lon="-1.47332">
        <ele>27.2</ele>
        <time>2013-03-01T15:03:40Z</time>
      </trkpt>
      <trkpt lat="46.45461" lon="-1.47327">
        <ele>27.1</ele>
        <time>2013-03-01T15:03:43Z</time>
      </trkpt>
      <trkpt lat="46.4546" lon="-1.47321">
        <ele>27.1</ele>
        <time>2013-03-01T15:03:46Z</time>
      </trkpt>
      <trkpt lat="46.45459" lon="-1.47316">
        <ele>28</ele>
        <time>2013-03-01T15:03:49Z</time>
      </trkpt>
      <trkpt lat="46.45458" lon="-1.47311">
        <ele>28.5</ele>
        <time>2013-03-01T15:03:52Z</time>
      </trkpt>
      <trkpt lat="46.45458" lon="-1.47306">
        <ele>28.6</ele>
        <time>2013-03-01T15:03:55Z</time>
      </trkpt>
      <trkpt lat="46.45458" lon="-1.47305">
        <ele>28.7</ele>
        <time>2013-03-01T15:03:56Z</time>
      </trkpt>
      <trkpt lat="46.45455" lon="-1.47295">
        <ele>28.2</ele>
        <time>2013-03-01T15:04:02Z</time>
      </trkpt>
      <trkpt lat="46.45455" lon="-1.4729">
        <ele>27.6</ele>
        <time>2013-03-01T15:04:05Z</time>
      </trkpt>
      <trkpt lat="46.45454" lon="-1.47285">
        <ele>27.9</ele>
        <time>2013-03-01T15:04:09Z</time>
      </trkpt>
      <trkpt lat="46.45453" lon="-1.47278">
        <ele>27.8</ele>
        <time>2013-03-01T15:04:13Z</time>
      </trkpt>
      <trkpt lat="46.45453" lon="-1.47273">
        <ele>28</ele>
        <time>2013-03-01T15:04:16Z</time>
      </trkpt>
      <trkpt lat="46.45453" lon="-1.47268">
        <ele>28</ele>
        <time>2013-03-01T15:04:25Z</time>
      </trkpt>
      <trkpt lat="46.45452" lon="-1.47263">
        <ele>28.2</ele>
        <time>2013-03-01T15:04:28Z</time>
      </trkpt>
      <trkpt lat="46.45451" lon="-1.47258">
        <ele>28.3</ele>
        <time>2013-03-01T15:04:31Z</time>
      </trkpt>
      <trkpt lat="46.4545" lon="-1.47254">
        <ele>28.4</ele>
        <time>2013-03-01T15:04:34Z</time>
      </trkpt>
      <trkpt lat="46.4545" lon="-1.47248">
        <ele>28.2</ele>
        <time>2013-03-01T15:04:37Z</time>
      </trkpt>
      <trkpt lat="46.45449" lon="-1.47242">
        <ele>27.8</ele>
        <time>2013-03-01T15:04:40Z</time>
      </trkpt>
      <trkpt lat="46.45448" lon="-1.47236">
        <ele>27.6</ele>
        <time>2013-03-01T15:04:43Z</time>
      </trkpt>
      <trkpt lat="46.45447" lon="-1.4723">
        <ele>27.6</ele>
        <time>2013-03-01T15:04:47Z</time>
      </trkpt>
      <trkpt lat="46.45446" lon="-1.47224">
        <ele>27.1</ele>
        <time>2013-03-01T15:04:51Z</time>
      </trkpt>
      <trkpt lat="46.45448" lon="-1.47218">
        <ele>26.9</ele>
        <time>2013-03-01T15:04:55Z</time>
      </trkpt>
      <trkpt lat="46.45448" lon="-1.47212">
        <ele>27.7</ele>
        <time>2013-03-01T15:04:58Z</time>
      </trkpt>
      <trkpt lat="46.45448" lon="-1.4721">
        <ele>27.8</ele>
        <time>2013-03-01T15:04:59Z</time>
      </trkpt>
      <trkpt lat="46.45447" lon="-1.47201">
        <ele>27.1</ele>
        <time>2013-03-01T15:05:04Z</time>
      </trkpt>
      <trkpt lat="46.45446" lon="-1.47196">
        <ele>27.1</ele>
        <time>2013-03-01T15:05:07Z</time>
      </trkpt>
      <trkpt lat="46.45445" lon="-1.47191">
        <ele>26.7</ele>
        <time>2013-03-01T15:05:10Z</time>
      </trkpt>
      <trkpt lat="46.45444" lon="-1.47186">
        <ele>27.1</ele>
        <time>2013-03-01T15:05:13Z</time>
      </trkpt>
      <trkpt lat="46.45443" lon="-1.47181">
        <ele>27</ele>
        <time>2013-03-01T15:05:16Z</time>
      </trkpt>
      <trkpt lat="46.45442" lon="-1.47176">
        <ele>26.6</ele>
        <time>2013-03-01T15:05:19Z</time>
      </trkpt>
      <trkpt lat="46.45441" lon="-1.47171">
        <ele>26.7</ele>
        <time>2013-03-01T15:05:22Z</time>
      </trkpt>
      <trkpt lat="46.4544" lon="-1.47166">
        <ele>26.7</ele>
        <time>2013-03-01T15:05:25Z</time>
      </trkpt>
      <trkpt lat="46.45439" lon="-1.4716">
        <ele>27.4</ele>
        <time>2013-03-01T15:05:31Z</time>
      </trkpt>
      <trkpt lat="46.45438" lon="-1.47156">
        <ele>27.3</ele>
        <time>2013-03-01T15:05:34Z</time>
      </trkpt>
      <trkpt lat="46.45437" lon="-1.4715">
        <ele>27.5</ele>
        <time>2013-03-01T15:05:37Z</time>
      </trkpt>
      <trkpt lat="46.45436" lon="-1.47144">
        <ele>27.6</ele>
        <time>2013-03-01T15:05:40Z</time>
      </trkpt>
      <trkpt lat="46.45435" lon="-1.47138">
        <ele>26.7</ele>
        <time>2013-03-01T15:05:43Z</time>
      </trkpt>
      <trkpt lat="46.45434" lon="-1.47133">
        <ele>26.5</ele>
        <time>2013-03-01T15:05:46Z</time>
      </trkpt>
      <trkpt lat="46.45433" lon="-1.47127">
        <ele>26.8</ele>
        <time>2013-03-01T15:05:49Z</time>
      </trkpt>
      <trkpt lat="46.45432" lon="-1.47122">
        <ele>26.8</ele>
        <time>2013-03-01T15:05:52Z</time>
      </trkpt>
      <trkpt lat="46.45431" lon="-1.47117">
        <ele>26.8</ele>
        <time>2013-03-01T15:05:55Z</time>
      </trkpt>
      <trkpt lat="46.45431" lon="-1.47112">
        <ele>26.5</ele>
        <time>2013-03-01T15:05:58Z</time>
      </trkpt>
      <trkpt lat="46.4543" lon="-1.47107">
        <ele>26.4</ele>
        <time>2013-03-01T15:06:01Z</time>
      </trkpt>
      <trkpt lat="46.4543" lon="-1.47105">
        <ele>26.4</ele>
        <time>2013-03-01T15:06:02Z</time>
      </trkpt>
      <trkpt lat="46.45428" lon="-1.47096">
        <ele>26.8</ele>
        <time>2013-03-01T15:06:07Z</time>
      </trkpt>
      <trkpt lat="46.45427" lon="-1.47091">
        <ele>26.8</ele>
        <time>2013-03-01T15:06:10Z</time>
      </trkpt>
      <trkpt lat="46.45426" lon="-1.47086">
        <ele>27.3</ele>
        <time>2013-03-01T15:06:13Z</time>
      </trkpt>
      <trkpt lat="46.45425" lon="-1.47081">
        <ele>27.1</ele>
        <time>2013-03-01T15:06:16Z</time>
      </trkpt>
      <trkpt lat="46.45424" lon="-1.47075">
        <ele>26.5</ele>
        <time>2013-03-01T15:06:19Z</time>
      </trkpt>
      <trkpt lat="46.45422" lon="-1.47071">
        <ele>26.3</ele>
        <time>2013-03-01T15:06:22Z</time>
      </trkpt>
      <trkpt lat="46.45421" lon="-1.47066">
        <ele>26.6</ele>
        <time>2013-03-01T15:06:25Z</time>
      </trkpt>
      <trkpt lat="46.45419" lon="-1.4706">
        <ele>25.9</ele>
        <time>2013-03-01T15:06:29Z</time>
      </trkpt>
      <trkpt lat="46.45418" lon="-1.47055">
        <ele>25.8</ele>
        <time>2013-03-01T15:06:32Z</time>
      </trkpt>
      <trkpt lat="46.45418" lon="-1.4705">
        <ele>26.2</ele>
        <time>2013-03-01T15:06:35Z</time>
      </trkpt>
      <trkpt lat="46.45417" lon="-1.47044">
        <ele>26.3</ele>
        <time>2013-03-01T15:06:38Z</time>
      </trkpt>
      <trkpt lat="46.45417" lon="-1.47039">
        <ele>26.3</ele>
        <time>2013-03-01T15:06:41Z</time>
      </trkpt>
      <trkpt lat="46.45416" lon="-1.47033">
        <ele>25.7</ele>
        <time>2013-03-01T15:06:44Z</time>
      </trkpt>
      <trkpt lat="46.45415" lon="-1.47028">
        <ele>25.8</ele>
        <time>2013-03-01T15:06:47Z</time>
      </trkpt>
      <trkpt lat="46.45414" lon="-1.47022">
        <ele>25.9</ele>
        <time>2013-03-01T15:06:50Z</time>
      </trkpt>
      <trkpt lat="46.45414" lon="-1.47016">
        <ele>26.2</ele>
        <time>2013-03-01T15:06:53Z</time>
      </trkpt>
      <trkpt lat="46.45413" lon="-1.4701">
        <ele>26.2</ele>
        <time>2013-03-01T15:06:56Z</time>
      </trkpt>
      <trkpt lat="46.45412" lon="-1.47004">
        <ele>26.1</ele>
        <time>2013-03-01T15:06:59Z</time>
      </trkpt>
      <trkpt lat="46.45411" lon="-1.46999">
        <ele>26.4</ele>
        <time>2013-03-01T15:07:02Z</time>
      </trkpt>
      <trkpt lat="46.45411" lon="-1.46997">
        <ele>26.2</ele>
        <time>2013-03-01T15:07:03Z</time>
      </trkpt>
      <trkpt lat="46.45409" lon="-1.46989">
        <ele>26.2</ele>
        <time>2013-03-01T15:07:08Z</time>
      </trkpt>
      <trkpt lat="46.45408" lon="-1.46984">
        <ele>26.6</ele>
        <time>2013-03-01T15:07:11Z</time>
      </trkpt>
      <trkpt lat="46.45407" lon="-1.46978">
        <ele>26.4</ele>
        <time>2013-03-01T15:07:14Z</time>
      </trkpt>
      <trkpt lat="46.45406" lon="-1.46974">
        <ele>26.3</ele>
        <time>2013-03-01T15:07:17Z</time>
      </trkpt>
      <trkpt lat="46.45405" lon="-1.46968">
        <ele>26</ele>
        <time>2013-03-01T15:07:20Z</time>
      </trkpt>
      <trkpt lat="46.45404" lon="-1.46963">
        <ele>26.5</ele>
        <time>2013-03-01T15:07:23Z</time>
      </trkpt>
      <trkpt lat="46.45403" lon="-1.46958">
        <ele>26.8</ele>
        <time>2013-03-01T15:07:26Z</time>
      </trkpt>
      <trkpt lat="46.45402" lon="-1.46953">
        <ele>26.6</ele>
        <time>2013-03-01T15:07:29Z</time>
      </trkpt>
      <trkpt lat="46.45402" lon="-1.46948">
        <ele>26.9</ele>
        <time>2013-03-01T15:07:32Z</time>
      </trkpt>
      <trkpt lat="46.45401" lon="-1.46942">
        <ele>26.7</ele>
        <time>2013-03-01T15:07:35Z</time>
      </trkpt>
      <trkpt lat="46.454" lon="-1.46937">
        <ele>26.5</ele>
        <time>2013-03-01T15:07:38Z</time>
      </trkpt>
      <trkpt lat="46.45399" lon="-1.46932">
        <ele>27</ele>
        <time>2013-03-01T15:07:41Z</time>
      </trkpt>
      <trkpt lat="46.45398" lon="-1.46927">
        <ele>26.8</ele>
        <time>2013-03-01T15:07:44Z</time>
      </trkpt>
      <trkpt lat="46.45397" lon="-1.46921">
        <ele>26.6</ele>
        <time>2013-03-01T15:07:47Z</time>
      </trkpt>
      <trkpt lat="46.45396" lon="-1.46916">
        <ele>26.4</ele>
        <time>2013-03-01T15:07:50Z</time>
      </trkpt>
      <trkpt lat="46.45395" lon="-1.46911">
        <ele>26.3</ele>
        <time>2013-03-01T15:07:53Z</time>
      </trkpt>
      <trkpt lat="46.45394" lon="-1.46906">
        <ele>26.5</ele>
        <time>2013-03-01T15:07:56Z</time>
      </trkpt>
      <trkpt lat="46.45393" lon="-1.469">
        <ele>26.9</ele>
        <time>2013-03-01T15:08:00Z</time>
      </trkpt>
      <trkpt lat="46.45391" lon="-1.46894">
        <ele>26.6</ele>
        <time>2013-03-01T15:08:03Z</time>
      </trkpt>
      <trkpt lat="46.45391" lon="-1.46892">
        <ele>26.6</ele>
        <time>2013-03-01T15:08:04Z</time>
      </trkpt>
      <trkpt lat="46.45389" lon="-1.46884">
        <ele>26.7</ele>
        <time>2013-03-01T15:08:09Z</time>
      </trkpt>
      <trkpt lat="46.45388" lon="-1.46879">
        <ele>26.9</ele>
        <time>2013-03-01T15:08:12Z</time>
      </trkpt>
      <trkpt lat="46.45388" lon="-1.46874">
        <ele>26.6</ele>
        <time>2013-03-01T15:08:15Z</time>
      </trkpt>
      <trkpt lat="46.45387" lon="-1.46869">
        <ele>26.7</ele>
        <time>2013-03-01T15:08:18Z</time>
      </trkpt>
      <trkpt lat="46.45386" lon="-1.46864">
        <ele>26.5</ele>
        <time>2013-03-01T15:08:21Z</time>
      </trkpt>
      <trkpt lat="46.45385" lon="-1.46859">
        <ele>26.3</ele>
        <time>2013-03-01T15:08:24Z</time>
      </trkpt>
      <trkpt lat="46.45385" lon="-1.46854">
        <ele>26.2</ele>
        <time>2013-03-01T15:08:27Z</time>
      </trkpt>
      <trkpt lat="46.45384" lon="-1.4685">
        <ele>26</ele>
        <time>2013-03-01T15:08:29Z</time>
      </trkpt>
      <trkpt lat="46.45383" lon="-1.46845">
        <ele>26.3</ele>
        <time>2013-03-01T15:08:31Z</time>
      </trkpt>
      <trkpt lat="46.45383" lon="-1.4684">
        <ele>24.9</ele>
        <time>2013-03-01T15:08:33Z</time>
      </trkpt>
      <trkpt lat="46.45382" lon="-1.46834">
        <ele>25.5</ele>
        <time>2013-03-01T15:08:36Z</time>
      </trkpt>
      <trkpt lat="46.45381" lon="-1.46828">
        <ele>23.9</ele>
        <time>2013-03-01T15:08:39Z</time>
      </trkpt>
      <trkpt lat="46.4538" lon="-1.46823">
        <ele>24</ele>
        <time>2013-03-01T15:08:42Z</time>
      </trkpt>
      <trkpt lat="46.45378" lon="-1.46818">
        <ele>25.4</ele>
        <time>2013-03-01T15:08:45Z</time>
      </trkpt>
      <trkpt lat="46.45377" lon="-1.46813">
        <ele>27.6</ele>
        <time>2013-03-01T15:08:48Z</time>
      </trkpt>
      <trkpt lat="46.45374" lon="-1.46808">
        <ele>27.6</ele>
        <time>2013-03-01T15:08:51Z</time>
      </trkpt>
      <trkpt lat="46.45371" lon="-1.46804">
        <ele>27.4</ele>
        <time>2013-03-01T15:08:54Z</time>
      </trkpt>
      <trkpt lat="46.45368" lon="-1.468">
        <ele>27.1</ele>
        <time>2013-03-01T15:08:57Z</time>
      </trkpt>
      <trkpt lat="46.45368" lon="-1.468">
        <ele>27.1</ele>
        <time>2013-03-01T15:08:57Z</time>
      </trkpt>
      <trkpt lat="46.45364" lon="-1.46799">
        <ele>27.5</ele>
        <time>2013-03-01T15:09:00Z</time>
      </trkpt>
      <trkpt lat="46.4536" lon="-1.46798">
        <ele>26.6</ele>
        <time>2013-03-01T15:09:03Z</time>
      </trkpt>
      <trkpt lat="46.45357" lon="-1.46799">
        <ele>26.3</ele>
        <time>2013-03-01T15:09:06Z</time>
      </trkpt>
      <trkpt lat="46.45356" lon="-1.468">
        <ele>26.2</ele>
        <time>2013-03-01T15:09:07Z</time>
      </trkpt>
      <trkpt lat="46.45351" lon="-1.46804">
        <ele>26.2</ele>
        <time>2013-03-01T15:09:12Z</time>
      </trkpt>
      <trkpt lat="46.45347" lon="-1.46806">
        <ele>26</ele>
        <time>2013-03-01T15:09:16Z</time>
      </trkpt>
      <trkpt lat="46.45344" lon="-1.46811">
        <ele>25.2</ele>
        <time>2013-03-01T15:09:20Z</time>
      </trkpt>
      <trkpt lat="46.45341" lon="-1.46814">
        <ele>24.7</ele>
        <time>2013-03-01T15:09:26Z</time>
      </trkpt>
      <trkpt lat="46.45339" lon="-1.46818">
        <ele>24.8</ele>
        <time>2013-03-01T15:09:29Z</time>
      </trkpt>
      <trkpt lat="46.45336" lon="-1.46822">
        <ele>24.7</ele>
        <time>2013-03-01T15:09:33Z</time>
      </trkpt>
      <trkpt lat="46.45333" lon="-1.46826">
        <ele>24.6</ele>
        <time>2013-03-01T15:09:36Z</time>
      </trkpt>
      <trkpt lat="46.4533" lon="-1.4683">
        <ele>24.6</ele>
        <time>2013-03-01T15:09:39Z</time>
      </trkpt>
      <trkpt lat="46.45328" lon="-1.46833">
        <ele>24.9</ele>
        <time>2013-03-01T15:09:42Z</time>
      </trkpt>
      <trkpt lat="46.45325" lon="-1.46838">
        <ele>24.6</ele>
        <time>2013-03-01T15:09:45Z</time>
      </trkpt>
      <trkpt lat="46.45322" lon="-1.46842">
        <ele>24.6</ele>
        <time>2013-03-01T15:09:53Z</time>
      </trkpt>
      <trkpt lat="46.45319" lon="-1.46846">
        <ele>24.3</ele>
        <time>2013-03-01T15:09:56Z</time>
      </trkpt>
      <trkpt lat="46.45317" lon="-1.46849">
        <ele>23.9</ele>
        <time>2013-03-01T15:09:59Z</time>
      </trkpt>
      <trkpt lat="46.45314" lon="-1.46854">
        <ele>23</ele>
        <time>2013-03-01T15:10:03Z</time>
      </trkpt>
      <trkpt lat="46.45311" lon="-1.46858">
        <ele>22.9</ele>
        <time>2013-03-01T15:10:06Z</time>
      </trkpt>
      <trkpt lat="46.45309" lon="-1.46862">
        <ele>22.8</ele>
        <time>2013-03-01T15:10:09Z</time>
      </trkpt>
      <trkpt lat="46.45308" lon="-1.46864">
        <ele>22.7</ele>
        <time>2013-03-01T15:10:10Z</time>
      </trkpt>
      <trkpt lat="46.45303" lon="-1.46871">
        <ele>22.8</ele>
        <time>2013-03-01T15:10:15Z</time>
      </trkpt>
      <trkpt lat="46.45301" lon="-1.46875">
        <ele>23.2</ele>
        <time>2013-03-01T15:10:18Z</time>
      </trkpt>
      <trkpt lat="46.45298" lon="-1.46879">
        <ele>23</ele>
        <time>2013-03-01T15:10:21Z</time>
      </trkpt>
      <trkpt lat="46.45295" lon="-1.46884">
        <ele>22.8</ele>
        <time>2013-03-01T15:10:24Z</time>
      </trkpt>
      <trkpt lat="46.45293" lon="-1.46888">
        <ele>23.1</ele>
        <time>2013-03-01T15:10:27Z</time>
      </trkpt>
      <trkpt lat="46.4529" lon="-1.46892">
        <ele>22.7</ele>
        <time>2013-03-01T15:10:30Z</time>
      </trkpt>
      <trkpt lat="46.45287" lon="-1.46896">
        <ele>22.5</ele>
        <time>2013-03-01T15:10:33Z</time>
      </trkpt>
      <trkpt lat="46.45284" lon="-1.469">
        <ele>22</ele>
        <time>2013-03-01T15:10:36Z</time>
      </trkpt>
      <trkpt lat="46.45281" lon="-1.46904">
        <ele>21.7</ele>
        <time>2013-03-01T15:10:39Z</time>
      </trkpt>
      <trkpt lat="46.45279" lon="-1.46909">
        <ele>22</ele>
        <time>2013-03-01T15:10:42Z</time>
      </trkpt>
      <trkpt lat="46.45276" lon="-1.46913">
        <ele>22.5</ele>
        <time>2013-03-01T15:10:45Z</time>
      </trkpt>
      <trkpt lat="46.45273" lon="-1.46917">
        <ele>22.2</ele>
        <time>2013-03-01T15:10:48Z</time>
      </trkpt>
      <trkpt lat="46.45271" lon="-1.46921">
        <ele>21.8</ele>
        <time>2013-03-01T15:10:51Z</time>
      </trkpt>
      <trkpt lat="46.45268" lon="-1.46924">
        <ele>22.2</ele>
        <time>2013-03-01T15:10:54Z</time>
      </trkpt>
      <trkpt lat="46.45265" lon="-1.46928">
        <ele>22.1</ele>
        <time>2013-03-01T15:10:57Z</time>
      </trkpt>
      <trkpt lat="46.45262" lon="-1.46932">
        <ele>21.9</ele>
        <time>2013-03-01T15:11:00Z</time>
      </trkpt>
      <trkpt lat="46.45259" lon="-1.46936">
        <ele>21.6</ele>
        <time>2013-03-01T15:11:03Z</time>
      </trkpt>
      <trkpt lat="46.45256" lon="-1.4694">
        <ele>22</ele>
        <time>2013-03-01T15:11:06Z</time>
      </trkpt>
      <trkpt lat="46.45253" lon="-1.46943">
        <ele>22.5</ele>
        <time>2013-03-01T15:11:09Z</time>
      </trkpt>
      <trkpt lat="46.4525" lon="-1.46947">
        <ele>22.1</ele>
        <time>2013-03-01T15:11:13Z</time>
      </trkpt>
      <trkpt lat="46.45249" lon="-1.46948">
        <ele>21.9</ele>
        <time>2013-03-01T15:11:14Z</time>
      </trkpt>
      <trkpt lat="46.45244" lon="-1.46953">
        <ele>21.6</ele>
        <time>2013-03-01T15:11:19Z</time>
      </trkpt>
      <trkpt lat="46.45241" lon="-1.46956">
        <ele>21.8</ele>
        <time>2013-03-01T15:11:22Z</time>
      </trkpt>
      <trkpt lat="46.45238" lon="-1.46959">
        <ele>21.2</ele>
        <time>2013-03-01T15:11:25Z</time>
      </trkpt>
      <trkpt lat="46.45235" lon="-1.46962">
        <ele>20.8</ele>
        <time>2013-03-01T15:11:28Z</time>
      </trkpt>
      <trkpt lat="46.45232" lon="-1.46965">
        <ele>21.3</ele>
        <time>2013-03-01T15:11:31Z</time>
      </trkpt>
      <trkpt lat="46.45229" lon="-1.46968">
        <ele>21.5</ele>
        <time>2013-03-01T15:11:34Z</time>
      </trkpt>
      <trkpt lat="46.45226" lon="-1.46972">
        <ele>21.3</ele>
        <time>2013-03-01T15:11:37Z</time>
      </trkpt>
      <trkpt lat="46.45222" lon="-1.46974">
        <ele>21</ele>
        <time>2013-03-01T15:11:40Z</time>
      </trkpt>
      <trkpt lat="46.45219" lon="-1.46977">
        <ele>20.9</ele>
        <time>2013-03-01T15:11:43Z</time>
      </trkpt>
      <trkpt lat="46.45216" lon="-1.4698">
        <ele>21.3</ele>
        <time>2013-03-01T15:11:46Z</time>
      </trkpt>
      <trkpt lat="46.45213" lon="-1.46983">
        <ele>20.7</ele>
        <time>2013-03-01T15:11:49Z</time>
      </trkpt>
      <trkpt lat="46.45209" lon="-1.46986">
        <ele>20.5</ele>
        <time>2013-03-01T15:11:52Z</time>
      </trkpt>
      <trkpt lat="46.45205" lon="-1.46989">
        <ele>21.1</ele>
        <time>2013-03-01T15:11:55Z</time>
      </trkpt>
      <trkpt lat="46.45202" lon="-1.46992">
        <ele>21</ele>
        <time>2013-03-01T15:11:58Z</time>
      </trkpt>
      <trkpt lat="46.45198" lon="-1.46994">
        <ele>20.8</ele>
        <time>2013-03-01T15:12:01Z</time>
      </trkpt>
      <trkpt lat="46.45194" lon="-1.46996">
        <ele>21.3</ele>
        <time>2013-03-01T15:12:05Z</time>
      </trkpt>
      <trkpt lat="46.4519" lon="-1.46995">
        <ele>21.2</ele>
        <time>2013-03-01T15:12:08Z</time>
      </trkpt>
      <trkpt lat="46.45187" lon="-1.46997">
        <ele>19.8</ele>
        <time>2013-03-01T15:12:56Z</time>
      </trkpt>
      <trkpt lat="46.45184" lon="-1.47001">
        <ele>20.2</ele>
        <time>2013-03-01T15:13:01Z</time>
      </trkpt>
      <trkpt lat="46.4518" lon="-1.47004">
        <ele>21.1</ele>
        <time>2013-03-01T15:13:05Z</time>
      </trkpt>
      <trkpt lat="46.45177" lon="-1.47008">
        <ele>22</ele>
        <time>2013-03-01T15:13:09Z</time>
      </trkpt>
      <trkpt lat="46.45174" lon="-1.47011">
        <ele>21.6</ele>
        <time>2013-03-01T15:13:12Z</time>
      </trkpt>
      <trkpt lat="46.45171" lon="-1.47013">
        <ele>21.5</ele>
        <time>2013-03-01T15:13:15Z</time>
      </trkpt>
      <trkpt lat="46.4517" lon="-1.47014">
        <ele>21.4</ele>
        <time>2013-03-01T15:13:16Z</time>
      </trkpt>
      <trkpt lat="46.45164" lon="-1.47019">
        <ele>21.1</ele>
        <time>2013-03-01T15:13:21Z</time>
      </trkpt>
      <trkpt lat="46.45161" lon="-1.47022">
        <ele>21.5</ele>
        <time>2013-03-01T15:13:24Z</time>
      </trkpt>
      <trkpt lat="46.45158" lon="-1.47024">
        <ele>21</ele>
        <time>2013-03-01T15:13:27Z</time>
      </trkpt>
      <trkpt lat="46.45155" lon="-1.47027">
        <ele>20.9</ele>
        <time>2013-03-01T15:13:30Z</time>
      </trkpt>
      <trkpt lat="46.45152" lon="-1.4703">
        <ele>20.9</ele>
        <time>2013-03-01T15:13:33Z</time>
      </trkpt>
      <trkpt lat="46.45148" lon="-1.47033">
        <ele>21.6</ele>
        <time>2013-03-01T15:13:37Z</time>
      </trkpt>
      <trkpt lat="46.45145" lon="-1.47035">
        <ele>22.2</ele>
        <time>2013-03-01T15:13:40Z</time>
      </trkpt>
      <trkpt lat="46.45142" lon="-1.47039">
        <ele>21</ele>
        <time>2013-03-01T15:13:47Z</time>
      </trkpt>
      <trkpt lat="46.45138" lon="-1.47041">
        <ele>21</ele>
        <time>2013-03-01T15:13:50Z</time>
      </trkpt>
      <trkpt lat="46.45135" lon="-1.47044">
        <ele>21.2</ele>
        <time>2013-03-01T15:13:53Z</time>
      </trkpt>
      <trkpt lat="46.45132" lon="-1.47047">
        <ele>21</ele>
        <time>2013-03-01T15:13:56Z</time>
      </trkpt>
      <trkpt lat="46.45129" lon="-1.47049">
        <ele>20.7</ele>
        <time>2013-03-01T15:13:59Z</time>
      </trkpt>
      <trkpt lat="46.45126" lon="-1.47052">
        <ele>21.2</ele>
        <time>2013-03-01T15:14:02Z</time>
      </trkpt>
      <trkpt lat="46.45123" lon="-1.47054">
        <ele>21.2</ele>
        <time>2013-03-01T15:14:05Z</time>
      </trkpt>
      <trkpt lat="46.45119" lon="-1.47057">
        <ele>21.7</ele>
        <time>2013-03-01T15:14:09Z</time>
      </trkpt>
      <trkpt lat="46.45116" lon="-1.4706">
        <ele>21.5</ele>
        <time>2013-03-01T15:14:12Z</time>
      </trkpt>
      <trkpt lat="46.45113" lon="-1.47061">
        <ele>21.8</ele>
        <time>2013-03-01T15:14:15Z</time>
      </trkpt>
      <trkpt lat="46.45109" lon="-1.47064">
        <ele>21.4</ele>
        <time>2013-03-01T15:14:18Z</time>
      </trkpt>
      <trkpt lat="46.45108" lon="-1.47065">
        <ele>21.4</ele>
        <time>2013-03-01T15:14:19Z</time>
      </trkpt>
      <trkpt lat="46.45102" lon="-1.47069">
        <ele>21.4</ele>
        <time>2013-03-01T15:14:24Z</time>
      </trkpt>
      <trkpt lat="46.45099" lon="-1.47071">
        <ele>20.7</ele>
        <time>2013-03-01T15:14:27Z</time>
      </trkpt>
      <trkpt lat="46.45095" lon="-1.47074">
        <ele>20.7</ele>
        <time>2013-03-01T15:14:30Z</time>
      </trkpt>
      <trkpt lat="46.45092" lon="-1.47077">
        <ele>21</ele>
        <time>2013-03-01T15:14:34Z</time>
      </trkpt>
      <trkpt lat="46.45088" lon="-1.4708">
        <ele>21.8</ele>
        <time>2013-03-01T15:14:37Z</time>
      </trkpt>
      <trkpt lat="46.45085" lon="-1.47082">
        <ele>21.9</ele>
        <time>2013-03-01T15:14:40Z</time>
      </trkpt>
      <trkpt lat="46.45081" lon="-1.47085">
        <ele>21.7</ele>
        <time>2013-03-01T15:14:43Z</time>
      </trkpt>
      <trkpt lat="46.45078" lon="-1.47087">
        <ele>21.8</ele>
        <time>2013-03-01T15:14:46Z</time>
      </trkpt>
      <trkpt lat="46.45075" lon="-1.4709">
        <ele>21.4</ele>
        <time>2013-03-01T15:14:49Z</time>
      </trkpt>
      <trkpt lat="46.45071" lon="-1.47093">
        <ele>21.6</ele>
        <time>2013-03-01T15:14:52Z</time>
      </trkpt>
      <trkpt lat="46.45068" lon="-1.47095">
        <ele>21.2</ele>
        <time>2013-03-01T15:14:55Z</time>
      </trkpt>
      <trkpt lat="46.45064" lon="-1.47097">
        <ele>21.1</ele>
        <time>2013-03-01T15:14:58Z</time>
      </trkpt>
      <trkpt lat="46.45061" lon="-1.47099">
        <ele>20.9</ele>
        <time>2013-03-01T15:15:01Z</time>
      </trkpt>
      <trkpt lat="46.45058" lon="-1.47102">
        <ele>21.2</ele>
        <time>2013-03-01T15:15:04Z</time>
      </trkpt>
      <trkpt lat="46.45054" lon="-1.47104">
        <ele>21.1</ele>
        <time>2013-03-01T15:15:10Z</time>
      </trkpt>
      <trkpt lat="46.45051" lon="-1.47107">
        <ele>21</ele>
        <time>2013-03-01T15:15:13Z</time>
      </trkpt>
      <trkpt lat="46.45047" lon="-1.47109">
        <ele>20.9</ele>
        <time>2013-03-01T15:15:17Z</time>
      </trkpt>
      <trkpt lat="46.45043" lon="-1.47112">
        <ele>21.1</ele>
        <time>2013-03-01T15:15:20Z</time>
      </trkpt>
      <trkpt lat="46.45041" lon="-1.47113">
        <ele>21.2</ele>
        <time>2013-03-01T15:15:21Z</time>
      </trkpt>
      <trkpt lat="46.45035" lon="-1.47117">
        <ele>21.4</ele>
        <time>2013-03-01T15:15:26Z</time>
      </trkpt>
      <trkpt lat="46.45031" lon="-1.47118">
        <ele>21.6</ele>
        <time>2013-03-01T15:15:29Z</time>
      </trkpt>
      <trkpt lat="46.45027" lon="-1.47121">
        <ele>20.7</ele>
        <time>2013-03-01T15:15:32Z</time>
      </trkpt>
      <trkpt lat="46.45024" lon="-1.47123">
        <ele>20.7</ele>
        <time>2013-03-01T15:15:35Z</time>
      </trkpt>
      <trkpt lat="46.4502" lon="-1.47125">
        <ele>20.5</ele>
        <time>2013-03-01T15:15:38Z</time>
      </trkpt>
      <trkpt lat="46.45016" lon="-1.47127">
        <ele>20.7</ele>
        <time>2013-03-01T15:15:41Z</time>
      </trkpt>
      <trkpt lat="46.45013" lon="-1.47129">
        <ele>20.5</ele>
        <time>2013-03-01T15:15:44Z</time>
      </trkpt>
      <trkpt lat="46.4501" lon="-1.4713">
        <ele>20.8</ele>
        <time>2013-03-01T15:15:47Z</time>
      </trkpt>
      <trkpt lat="46.45005" lon="-1.47132">
        <ele>20.3</ele>
        <time>2013-03-01T15:15:51Z</time>
      </trkpt>
      <trkpt lat="46.45002" lon="-1.47134">
        <ele>20.3</ele>
        <time>2013-03-01T15:15:54Z</time>
      </trkpt>
      <trkpt lat="46.44998" lon="-1.47136">
        <ele>20.3</ele>
        <time>2013-03-01T15:15:58Z</time>
      </trkpt>
      <trkpt lat="46.44995" lon="-1.47137">
        <ele>20</ele>
        <time>2013-03-01T15:16:01Z</time>
      </trkpt>
      <trkpt lat="46.44991" lon="-1.47138">
        <ele>19.7</ele>
        <time>2013-03-01T15:16:04Z</time>
      </trkpt>
      <trkpt lat="46.44987" lon="-1.47139">
        <ele>19.5</ele>
        <time>2013-03-01T15:16:07Z</time>
      </trkpt>
      <trkpt lat="46.44984" lon="-1.4714">
        <ele>20.2</ele>
        <time>2013-03-01T15:16:10Z</time>
      </trkpt>
      <trkpt lat="46.4498" lon="-1.4714">
        <ele>19.7</ele>
        <time>2013-03-01T15:16:13Z</time>
      </trkpt>
      <trkpt lat="46.44976" lon="-1.47141">
        <ele>19.8</ele>
        <time>2013-03-01T15:16:17Z</time>
      </trkpt>
      <trkpt lat="46.44972" lon="-1.47143">
        <ele>19.8</ele>
        <time>2013-03-01T15:16:23Z</time>
      </trkpt>
      <trkpt lat="46.44971" lon="-1.47143">
        <ele>19.6</ele>
        <time>2013-03-01T15:16:24Z</time>
      </trkpt>
      <trkpt lat="46.44965" lon="-1.47143">
        <ele>19.5</ele>
        <time>2013-03-01T15:16:29Z</time>
      </trkpt>
      <trkpt lat="46.44961" lon="-1.47143">
        <ele>19.2</ele>
        <time>2013-03-01T15:16:33Z</time>
      </trkpt>
      <trkpt lat="46.44957" lon="-1.47144">
        <ele>19.1</ele>
        <time>2013-03-01T15:16:36Z</time>
      </trkpt>
      <trkpt lat="46.44953" lon="-1.47145">
        <ele>19</ele>
        <time>2013-03-01T15:16:39Z</time>
      </trkpt>
      <trkpt lat="46.44948" lon="-1.47145">
        <ele>19.1</ele>
        <time>2013-03-01T15:16:42Z</time>
      </trkpt>
      <trkpt lat="46.44944" lon="-1.47145">
        <ele>18.9</ele>
        <time>2013-03-01T15:16:45Z</time>
      </trkpt>
      <trkpt lat="46.4494" lon="-1.47145">
        <ele>18.9</ele>
        <time>2013-03-01T15:16:48Z</time>
      </trkpt>
      <trkpt lat="46.44936" lon="-1.47145">
        <ele>19.1</ele>
        <time>2013-03-01T15:16:53Z</time>
      </trkpt>
      <trkpt lat="46.44932" lon="-1.47145">
        <ele>19.3</ele>
        <time>2013-03-01T15:16:56Z</time>
      </trkpt>
      <trkpt lat="46.44929" lon="-1.47145">
        <ele>18.4</ele>
        <time>2013-03-01T15:16:59Z</time>
      </trkpt>
      <trkpt lat="46.44924" lon="-1.47145">
        <ele>17.7</ele>
        <time>2013-03-01T15:17:03Z</time>
      </trkpt>
      <trkpt lat="46.44921" lon="-1.47146">
        <ele>17.6</ele>
        <time>2013-03-01T15:17:06Z</time>
      </trkpt>
      <trkpt lat="46.44917" lon="-1.47146">
        <ele>17.5</ele>
        <time>2013-03-01T15:17:09Z</time>
      </trkpt>
      <trkpt lat="46.44913" lon="-1.47147">
        <ele>17.5</ele>
        <time>2013-03-01T15:17:12Z</time>
      </trkpt>
      <trkpt lat="46.44909" lon="-1.47148">
        <ele>17.8</ele>
        <time>2013-03-01T15:17:15Z</time>
      </trkpt>
      <trkpt lat="46.44906" lon="-1.47149">
        <ele>17.4</ele>
        <time>2013-03-01T15:17:18Z</time>
      </trkpt>
      <trkpt lat="46.44903" lon="-1.47151">
        <ele>17.9</ele>
        <time>2013-03-01T15:17:21Z</time>
      </trkpt>
      <trkpt lat="46.44899" lon="-1.47152">
        <ele>17.9</ele>
        <time>2013-03-01T15:17:24Z</time>
      </trkpt>
      <trkpt lat="46.44898" lon="-1.47153">
        <ele>17.8</ele>
        <time>2013-03-01T15:17:25Z</time>
      </trkpt>
      <trkpt lat="46.44892" lon="-1.47154">
        <ele>18.1</ele>
        <time>2013-03-01T15:17:31Z</time>
      </trkpt>
      <trkpt lat="46.44888" lon="-1.47155">
        <ele>18.4</ele>
        <time>2013-03-01T15:17:37Z</time>
      </trkpt>
      <trkpt lat="46.44884" lon="-1.47157">
        <ele>18</ele>
        <time>2013-03-01T15:17:41Z</time>
      </trkpt>
      <trkpt lat="46.44881" lon="-1.47159">
        <ele>18.1</ele>
        <time>2013-03-01T15:17:44Z</time>
      </trkpt>
      <trkpt lat="46.44877" lon="-1.47161">
        <ele>18.2</ele>
        <time>2013-03-01T15:17:47Z</time>
      </trkpt>
      <trkpt lat="46.44874" lon="-1.47163">
        <ele>17.8</ele>
        <time>2013-03-01T15:17:50Z</time>
      </trkpt>
      <trkpt lat="46.4487" lon="-1.47165">
        <ele>17.6</ele>
        <time>2013-03-01T15:17:53Z</time>
      </trkpt>
      <trkpt lat="46.44867" lon="-1.47167">
        <ele>17.2</ele>
        <time>2013-03-01T15:17:56Z</time>
      </trkpt>
      <trkpt lat="46.44863" lon="-1.47169">
        <ele>17.5</ele>
        <time>2013-03-01T15:17:59Z</time>
      </trkpt>
      <trkpt lat="46.44861" lon="-1.47172">
        <ele>17.5</ele>
        <time>2013-03-01T15:18:02Z</time>
      </trkpt>
      <trkpt lat="46.44857" lon="-1.47174">
        <ele>17.7</ele>
        <time>2013-03-01T15:18:05Z</time>
      </trkpt>
      <trkpt lat="46.44854" lon="-1.47177">
        <ele>17.5</ele>
        <time>2013-03-01T15:18:08Z</time>
      </trkpt>
      <trkpt lat="46.44851" lon="-1.47179">
        <ele>16.8</ele>
        <time>2013-03-01T15:18:11Z</time>
      </trkpt>
      <trkpt lat="46.44847" lon="-1.47181">
        <ele>16.7</ele>
        <time>2013-03-01T15:18:14Z</time>
      </trkpt>
      <trkpt lat="46.44844" lon="-1.47183">
        <ele>16.8</ele>
        <time>2013-03-01T15:18:17Z</time>
      </trkpt>
      <trkpt lat="46.44841" lon="-1.47185">
        <ele>16.4</ele>
        <time>2013-03-01T15:18:20Z</time>
      </trkpt>
      <trkpt lat="46.44837" lon="-1.47187">
        <ele>16.7</ele>
        <time>2013-03-01T15:18:23Z</time>
      </trkpt>
      <trkpt lat="46.44834" lon="-1.4719">
        <ele>16.8</ele>
        <time>2013-03-01T15:18:26Z</time>
      </trkpt>
      <trkpt lat="46.44832" lon="-1.47191">
        <ele>16.7</ele>
        <time>2013-03-01T15:18:27Z</time>
      </trkpt>
      <trkpt lat="46.44827" lon="-1.47194">
        <ele>16.7</ele>
        <time>2013-03-01T15:18:32Z</time>
      </trkpt>
      <trkpt lat="46.44823" lon="-1.47197">
        <ele>16.7</ele>
        <time>2013-03-01T15:18:35Z</time>
      </trkpt>
      <trkpt lat="46.44819" lon="-1.472">
        <ele>16.7</ele>
        <time>2013-03-01T15:18:38Z</time>
      </trkpt>
      <trkpt lat="46.44816" lon="-1.47202">
        <ele>16.1</ele>
        <time>2013-03-01T15:18:41Z</time>
      </trkpt>
      <trkpt lat="46.44812" lon="-1.47204">
        <ele>16.6</ele>
        <time>2013-03-01T15:18:44Z</time>
      </trkpt>
      <trkpt lat="46.44809" lon="-1.47206">
        <ele>17</ele>
        <time>2013-03-01T15:18:47Z</time>
      </trkpt>
      <trkpt lat="46.44805" lon="-1.47209">
        <ele>16.4</ele>
        <time>2013-03-01T15:18:50Z</time>
      </trkpt>
      <trkpt lat="46.44802" lon="-1.47211">
        <ele>16.2</ele>
        <time>2013-03-01T15:18:53Z</time>
      </trkpt>
      <trkpt lat="46.44799" lon="-1.47214">
        <ele>16.5</ele>
        <time>2013-03-01T15:18:56Z</time>
      </trkpt>
      <trkpt lat="46.44795" lon="-1.47216">
        <ele>16.4</ele>
        <time>2013-03-01T15:18:59Z</time>
      </trkpt>
      <trkpt lat="46.44792" lon="-1.47219">
        <ele>16.3</ele>
        <time>2013-03-01T15:19:02Z</time>
      </trkpt>
      <trkpt lat="46.44788" lon="-1.47221">
        <ele>16.3</ele>
        <time>2013-03-01T15:19:05Z</time>
      </trkpt>
      <trkpt lat="46.44785" lon="-1.47224">
        <ele>16.6</ele>
        <time>2013-03-01T15:19:08Z</time>
      </trkpt>
      <trkpt lat="46.44782" lon="-1.47226">
        <ele>16.3</ele>
        <time>2013-03-01T15:19:11Z</time>
      </trkpt>
      <trkpt lat="46.44779" lon="-1.47228">
        <ele>16.6</ele>
        <time>2013-03-01T15:19:14Z</time>
      </trkpt>
      <trkpt lat="46.44775" lon="-1.47231">
        <ele>16.2</ele>
        <time>2013-03-01T15:19:17Z</time>
      </trkpt>
      <trkpt lat="46.44772" lon="-1.47233">
        <ele>15.7</ele>
        <time>2013-03-01T15:19:20Z</time>
      </trkpt>
      <trkpt lat="46.44768" lon="-1.47237">
        <ele>16</ele>
        <time>2013-03-01T15:19:24Z</time>
      </trkpt>
      <trkpt lat="46.44765" lon="-1.47239">
        <ele>15.6</ele>
        <time>2013-03-01T15:19:27Z</time>
      </trkpt>
      <trkpt lat="46.44764" lon="-1.4724">
        <ele>15.6</ele>
        <time>2013-03-01T15:19:28Z</time>
      </trkpt>
      <trkpt lat="46.44759" lon="-1.47243">
        <ele>15.8</ele>
        <time>2013-03-01T15:19:30Z</time>
      </trkpt>
      <trkpt lat="46.44756" lon="-1.47245">
        <ele>16.1</ele>
        <time>2013-03-01T15:19:33Z</time>
      </trkpt>
      <trkpt lat="46.44752" lon="-1.47248">
        <ele>16</ele>
        <time>2013-03-01T15:19:37Z</time>
      </trkpt>
      <trkpt lat="46.44749" lon="-1.47252">
        <ele>16</ele>
        <time>2013-03-01T15:19:41Z</time>
      </trkpt>
      <trkpt lat="46.44746" lon="-1.47255">
        <ele>15.8</ele>
        <time>2013-03-01T15:19:44Z</time>
      </trkpt>
      <trkpt lat="46.44743" lon="-1.47258">
        <ele>16</ele>
        <time>2013-03-01T15:19:47Z</time>
      </trkpt>
      <trkpt lat="46.4474" lon="-1.47261">
        <ele>16.2</ele>
        <time>2013-03-01T15:19:50Z</time>
      </trkpt>
      <trkpt lat="46.44736" lon="-1.47264">
        <ele>16.1</ele>
        <time>2013-03-01T15:19:53Z</time>
      </trkpt>
      <trkpt lat="46.44733" lon="-1.47268">
        <ele>16.2</ele>
        <time>2013-03-01T15:19:56Z</time>
      </trkpt>
      <trkpt lat="46.4473" lon="-1.47271">
        <ele>15.9</ele>
        <time>2013-03-01T15:19:59Z</time>
      </trkpt>
      <trkpt lat="46.44726" lon="-1.47275">
        <ele>15.3</ele>
        <time>2013-03-01T15:20:02Z</time>
      </trkpt>
      <trkpt lat="46.44723" lon="-1.47278">
        <ele>15.7</ele>
        <time>2013-03-01T15:20:05Z</time>
      </trkpt>
      <trkpt lat="46.4472" lon="-1.47281">
        <ele>15.3</ele>
        <time>2013-03-01T15:20:08Z</time>
      </trkpt>
      <trkpt lat="46.44716" lon="-1.47283">
        <ele>14.8</ele>
        <time>2013-03-01T15:20:11Z</time>
      </trkpt>
      <trkpt lat="46.44713" lon="-1.47286">
        <ele>15</ele>
        <time>2013-03-01T15:20:14Z</time>
      </trkpt>
      <trkpt lat="46.4471" lon="-1.47289">
        <ele>15.4</ele>
        <time>2013-03-01T15:20:17Z</time>
      </trkpt>
      <trkpt lat="46.44706" lon="-1.47292">
        <ele>15.4</ele>
        <time>2013-03-01T15:20:20Z</time>
      </trkpt>
      <trkpt lat="46.44703" lon="-1.47294">
        <ele>15.1</ele>
        <time>2013-03-01T15:20:23Z</time>
      </trkpt>
      <trkpt lat="46.447" lon="-1.47297">
        <ele>14.9</ele>
        <time>2013-03-01T15:20:26Z</time>
      </trkpt>
      <trkpt lat="46.44697" lon="-1.473">
        <ele>14.8</ele>
        <time>2013-03-01T15:20:29Z</time>
      </trkpt>
      <trkpt lat="46.44695" lon="-1.47301">
        <ele>15</ele>
        <time>2013-03-01T15:20:30Z</time>
      </trkpt>
      <trkpt lat="46.4469" lon="-1.47305">
        <ele>14.9</ele>
        <time>2013-03-01T15:20:35Z</time>
      </trkpt>
      <trkpt lat="46.44686" lon="-1.47308">
        <ele>15.3</ele>
        <time>2013-03-01T15:20:38Z</time>
      </trkpt>
      <trkpt lat="46.44683" lon="-1.4731">
        <ele>15.6</ele>
        <time>2013-03-01T15:20:41Z</time>
      </trkpt>
      <trkpt lat="46.4468" lon="-1.47312">
        <ele>14.8</ele>
        <time>2013-03-01T15:20:44Z</time>
      </trkpt>
      <trkpt lat="46.44676" lon="-1.47314">
        <ele>14.8</ele>
        <time>2013-03-01T15:20:47Z</time>
      </trkpt>
      <trkpt lat="46.44673" lon="-1.47316">
        <ele>15.2</ele>
        <time>2013-03-01T15:20:50Z</time>
      </trkpt>
      <trkpt lat="46.4467" lon="-1.47317">
        <ele>14.7</ele>
        <time>2013-03-01T15:20:53Z</time>
      </trkpt>
      <trkpt lat="46.44667" lon="-1.4732">
        <ele>14.7</ele>
        <time>2013-03-01T15:20:56Z</time>
      </trkpt>
      <trkpt lat="46.44663" lon="-1.47322">
        <ele>14.9</ele>
        <time>2013-03-01T15:20:59Z</time>
      </trkpt>
      <trkpt lat="46.4466" lon="-1.47324">
        <ele>15</ele>
        <time>2013-03-01T15:21:02Z</time>
      </trkpt>
      <trkpt lat="46.44657" lon="-1.47326">
        <ele>14.2</ele>
        <time>2013-03-01T15:21:05Z</time>
      </trkpt>
      <trkpt lat="46.44653" lon="-1.47328">
        <ele>13.9</ele>
        <time>2013-03-01T15:21:08Z</time>
      </trkpt>
      <trkpt lat="46.4465" lon="-1.47329">
        <ele>13.9</ele>
        <time>2013-03-01T15:21:11Z</time>
      </trkpt>
      <trkpt lat="46.44647" lon="-1.47331">
        <ele>14.3</ele>
        <time>2013-03-01T15:21:14Z</time>
      </trkpt>
      <trkpt lat="46.44643" lon="-1.47334">
        <ele>14.5</ele>
        <time>2013-03-01T15:21:18Z</time>
      </trkpt>
      <trkpt lat="46.4464" lon="-1.47336">
        <ele>14.5</ele>
        <time>2013-03-01T15:21:21Z</time>
      </trkpt>
      <trkpt lat="46.44636" lon="-1.47338">
        <ele>14.9</ele>
        <time>2013-03-01T15:21:24Z</time>
      </trkpt>
      <trkpt lat="46.44632" lon="-1.47341">
        <ele>14.4</ele>
        <time>2013-03-01T15:21:28Z</time>
      </trkpt>
      <trkpt lat="46.44629" lon="-1.47343">
        <ele>14.5</ele>
        <time>2013-03-01T15:21:31Z</time>
      </trkpt>
      <trkpt lat="46.44628" lon="-1.47343">
        <ele>14.5</ele>
        <time>2013-03-01T15:21:32Z</time>
      </trkpt>
      <trkpt lat="46.44623" lon="-1.47347">
        <ele>14.4</ele>
        <time>2013-03-01T15:21:37Z</time>
      </trkpt>
      <trkpt lat="46.44619" lon="-1.47348">
        <ele>14.4</ele>
        <time>2013-03-01T15:21:40Z</time>
      </trkpt>
      <trkpt lat="46.44616" lon="-1.47351">
        <ele>14.5</ele>
        <time>2013-03-01T15:21:44Z</time>
      </trkpt>
      <trkpt lat="46.44612" lon="-1.47353">
        <ele>14.9</ele>
        <time>2013-03-01T15:21:48Z</time>
      </trkpt>
      <trkpt lat="46.44608" lon="-1.47355">
        <ele>14.6</ele>
        <time>2013-03-01T15:21:51Z</time>
      </trkpt>
      <trkpt lat="46.44605" lon="-1.47357">
        <ele>14.7</ele>
        <time>2013-03-01T15:21:54Z</time>
      </trkpt>
      <trkpt lat="46.44601" lon="-1.47358">
        <ele>14.4</ele>
        <time>2013-03-01T15:21:57Z</time>
      </trkpt>
      <trkpt lat="46.44597" lon="-1.4736">
        <ele>14.3</ele>
        <time>2013-03-01T15:22:01Z</time>
      </trkpt>
      <trkpt lat="46.44593" lon="-1.47362">
        <ele>14.8</ele>
        <time>2013-03-01T15:22:05Z</time>
      </trkpt>
      <trkpt lat="46.4459" lon="-1.47363">
        <ele>15.7</ele>
        <time>2013-03-01T15:22:08Z</time>
      </trkpt>
      <trkpt lat="46.44586" lon="-1.47365">
        <ele>14.9</ele>
        <time>2013-03-01T15:22:12Z</time>
      </trkpt>
      <trkpt lat="46.44582" lon="-1.47366">
        <ele>15.5</ele>
        <time>2013-03-01T15:22:15Z</time>
      </trkpt>
      <trkpt lat="46.44578" lon="-1.47368">
        <ele>14.4</ele>
        <time>2013-03-01T15:22:19Z</time>
      </trkpt>
      <trkpt lat="46.44574" lon="-1.47369">
        <ele>12.6</ele>
        <time>2013-03-01T15:22:23Z</time>
      </trkpt>
      <trkpt lat="46.4457" lon="-1.47371">
        <ele>14.3</ele>
        <time>2013-03-01T15:22:27Z</time>
      </trkpt>
      <trkpt lat="46.44567" lon="-1.47372">
        <ele>12.4</ele>
        <time>2013-03-01T15:22:32Z</time>
      </trkpt>
      <trkpt lat="46.44566" lon="-1.47371">
        <ele>11.7</ele>
        <time>2013-03-01T15:22:33Z</time>
      </trkpt>
      <trkpt lat="46.44559" lon="-1.47369">
        <ele>13.3</ele>
        <time>2013-03-01T15:22:41Z</time>
      </trkpt>
      <trkpt lat="46.44555" lon="-1.47369">
        <ele>12.4</ele>
        <time>2013-03-01T15:22:47Z</time>
      </trkpt>
      <trkpt lat="46.44551" lon="-1.4737">
        <ele>13.1</ele>
        <time>2013-03-01T15:22:52Z</time>
      </trkpt>
      <trkpt lat="46.44547" lon="-1.4737">
        <ele>13.2</ele>
        <time>2013-03-01T15:22:56Z</time>
      </trkpt>
      <trkpt lat="46.44543" lon="-1.4737">
        <ele>13.5</ele>
        <time>2013-03-01T15:23:00Z</time>
      </trkpt>
      <trkpt lat="46.44539" lon="-1.47371">
        <ele>13.5</ele>
        <time>2013-03-01T15:23:04Z</time>
      </trkpt>
      <trkpt lat="46.44535" lon="-1.4737">
        <ele>13.1</ele>
        <time>2013-03-01T15:23:08Z</time>
      </trkpt>
      <trkpt lat="46.44532" lon="-1.4737">
        <ele>13</ele>
        <time>2013-03-01T15:23:11Z</time>
      </trkpt>
      <trkpt lat="46.44528" lon="-1.47368">
        <ele>12.9</ele>
        <time>2013-03-01T15:23:15Z</time>
      </trkpt>
      <trkpt lat="46.44524" lon="-1.47367">
        <ele>13.3</ele>
        <time>2013-03-01T15:23:18Z</time>
      </trkpt>
      <trkpt lat="46.4452" lon="-1.47366">
        <ele>13.2</ele>
        <time>2013-03-01T15:23:21Z</time>
      </trkpt>
      <trkpt lat="46.44516" lon="-1.47364">
        <ele>13.4</ele>
        <time>2013-03-01T15:23:24Z</time>
      </trkpt>
      <trkpt lat="46.44513" lon="-1.47363">
        <ele>13.7</ele>
        <time>2013-03-01T15:23:27Z</time>
      </trkpt>
      <trkpt lat="46.44509" lon="-1.47361">
        <ele>13.2</ele>
        <time>2013-03-01T15:23:30Z</time>
      </trkpt>
      <trkpt lat="46.44505" lon="-1.47358">
        <ele>13.2</ele>
        <time>2013-03-01T15:23:33Z</time>
      </trkpt>
      <trkpt lat="46.44504" lon="-1.47357">
        <ele>13</ele>
        <time>2013-03-01T15:23:34Z</time>
      </trkpt>
      <trkpt lat="46.44498" lon="-1.47353">
        <ele>13.3</ele>
        <time>2013-03-01T15:23:39Z</time>
      </trkpt>
      <trkpt lat="46.44494" lon="-1.4735">
        <ele>13.4</ele>
        <time>2013-03-01T15:23:42Z</time>
      </trkpt>
      <trkpt lat="46.44494" lon="-1.4735">
        <ele>13.4</ele>
        <time>2013-03-01T15:23:42Z</time>
      </trkpt>
      <trkpt lat="46.44491" lon="-1.47347">
        <ele>13.3</ele>
        <time>2013-03-01T15:23:45Z</time>
      </trkpt>
      <trkpt lat="46.44488" lon="-1.47343">
        <ele>13.4</ele>
        <time>2013-03-01T15:23:48Z</time>
      </trkpt>
      <trkpt lat="46.44485" lon="-1.47339">
        <ele>13.2</ele>
        <time>2013-03-01T15:23:54Z</time>
      </trkpt>
      <trkpt lat="46.44482" lon="-1.47335">
        <ele>14</ele>
        <time>2013-03-01T15:24:01Z</time>
      </trkpt>
      <trkpt lat="46.44479" lon="-1.47331">
        <ele>14.4</ele>
        <time>2013-03-01T15:24:05Z</time>
      </trkpt>
      <trkpt lat="46.44476" lon="-1.47326">
        <ele>13.9</ele>
        <time>2013-03-01T15:24:15Z</time>
      </trkpt>
      <trkpt lat="46.44472" lon="-1.47325">
        <ele>14</ele>
        <time>2013-03-01T15:24:19Z</time>
      </trkpt>
      <trkpt lat="46.44469" lon="-1.47322">
        <ele>14.1</ele>
        <time>2013-03-01T15:24:22Z</time>
      </trkpt>
      <trkpt lat="46.44465" lon="-1.47319">
        <ele>13.8</ele>
        <time>2013-03-01T15:24:25Z</time>
      </trkpt>
      <trkpt lat="46.44461" lon="-1.47318">
        <ele>14.1</ele>
        <time>2013-03-01T15:24:28Z</time>
      </trkpt>
      <trkpt lat="46.44458" lon="-1.47316">
        <ele>14.1</ele>
        <time>2013-03-01T15:24:31Z</time>
      </trkpt>
      <trkpt lat="46.44454" lon="-1.47314">
        <ele>13.7</ele>
        <time>2013-03-01T15:24:34Z</time>
      </trkpt>
      <trkpt lat="46.44453" lon="-1.47314">
        <ele>13.6</ele>
        <time>2013-03-01T15:24:35Z</time>
      </trkpt>
      <trkpt lat="46.44446" lon="-1.47311">
        <ele>14.4</ele>
        <time>2013-03-01T15:24:40Z</time>
      </trkpt>
      <trkpt lat="46.44442" lon="-1.4731">
        <ele>14.4</ele>
        <time>2013-03-01T15:24:43Z</time>
      </trkpt>
      <trkpt lat="46.44439" lon="-1.4731">
        <ele>14.3</ele>
        <time>2013-03-01T15:24:46Z</time>
      </trkpt>
      <trkpt lat="46.44435" lon="-1.4731">
        <ele>15.5</ele>
        <time>2013-03-01T15:24:50Z</time>
      </trkpt>
      <trkpt lat="46.4443" lon="-1.4731">
        <ele>15.2</ele>
        <time>2013-03-01T15:24:54Z</time>
      </trkpt>
      <trkpt lat="46.44426" lon="-1.4731">
        <ele>16</ele>
        <time>2013-03-01T15:24:58Z</time>
      </trkpt>
      <trkpt lat="46.44423" lon="-1.4731">
        <ele>15.9</ele>
        <time>2013-03-01T15:25:02Z</time>
      </trkpt>
      <trkpt lat="46.44418" lon="-1.47312">
        <ele>16.5</ele>
        <time>2013-03-01T15:25:06Z</time>
      </trkpt>
      <trkpt lat="46.44414" lon="-1.47314">
        <ele>16.8</ele>
        <time>2013-03-01T15:25:11Z</time>
      </trkpt>
      <trkpt lat="46.44409" lon="-1.47314">
        <ele>16.7</ele>
        <time>2013-03-01T15:25:12Z</time>
      </trkpt>
      <trkpt lat="46.44405" lon="-1.47315">
        <ele>17.5</ele>
        <time>2013-03-01T15:25:17Z</time>
      </trkpt>
      <trkpt lat="46.44401" lon="-1.47314">
        <ele>18</ele>
        <time>2013-03-01T15:25:21Z</time>
      </trkpt>
      <trkpt lat="46.44399" lon="-1.47316">
        <ele>18.6</ele>
        <time>2013-03-01T15:25:23Z</time>
      </trkpt>
      <trkpt lat="46.44395" lon="-1.47318">
        <ele>18.7</ele>
        <time>2013-03-01T15:25:25Z</time>
      </trkpt>
      <trkpt lat="46.44392" lon="-1.4732">
        <ele>18.7</ele>
        <time>2013-03-01T15:25:27Z</time>
      </trkpt>
      <trkpt lat="46.44389" lon="-1.47322">
        <ele>18.7</ele>
        <time>2013-03-01T15:25:29Z</time>
      </trkpt>
      <trkpt lat="46.44387" lon="-1.47323">
        <ele>19.8</ele>
        <time>2013-03-01T15:25:31Z</time>
      </trkpt>
      <trkpt lat="46.44384" lon="-1.47325">
        <ele>20</ele>
        <time>2013-03-01T15:25:33Z</time>
      </trkpt>
      <trkpt lat="46.4438" lon="-1.47327">
        <ele>20.7</ele>
        <time>2013-03-01T15:25:36Z</time>
      </trkpt>
      <trkpt lat="46.44379" lon="-1.47328">
        <ele>20.7</ele>
        <time>2013-03-01T15:25:37Z</time>
      </trkpt>
      <trkpt lat="46.44373" lon="-1.47331">
        <ele>21.4</ele>
        <time>2013-03-01T15:25:42Z</time>
      </trkpt>
      <trkpt lat="46.44369" lon="-1.47334">
        <ele>21.7</ele>
        <time>2013-03-01T15:25:49Z</time>
      </trkpt>
      <trkpt lat="46.44366" lon="-1.47336">
        <ele>22.7</ele>
        <time>2013-03-01T15:25:52Z</time>
      </trkpt>
      <trkpt lat="46.44362" lon="-1.47338">
        <ele>22.3</ele>
        <time>2013-03-01T15:25:55Z</time>
      </trkpt>
      <trkpt lat="46.44359" lon="-1.47339">
        <ele>22.7</ele>
        <time>2013-03-01T15:25:58Z</time>
      </trkpt>
      <trkpt lat="46.44355" lon="-1.4734">
        <ele>22.5</ele>
        <time>2013-03-01T15:26:01Z</time>
      </trkpt>
      <trkpt lat="46.44351" lon="-1.47341">
        <ele>22.4</ele>
        <time>2013-03-01T15:26:05Z</time>
      </trkpt>
      <trkpt lat="46.44347" lon="-1.47342">
        <ele>22.9</ele>
        <time>2013-03-01T15:26:09Z</time>
      </trkpt>
      <trkpt lat="46.44343" lon="-1.47343">
        <ele>23.8</ele>
        <time>2013-03-01T15:26:13Z</time>
      </trkpt>
      <trkpt lat="46.44339" lon="-1.47344">
        <ele>24</ele>
        <time>2013-03-01T15:26:17Z</time>
      </trkpt>
      <trkpt lat="46.44335" lon="-1.47345">
        <ele>24.2</ele>
        <time>2013-03-01T15:26:20Z</time>
      </trkpt>
      <trkpt lat="46.44332" lon="-1.47345">
        <ele>23.8</ele>
        <time>2013-03-01T15:26:23Z</time>
      </trkpt>
      <trkpt lat="46.44328" lon="-1.47346">
        <ele>24</ele>
        <time>2013-03-01T15:26:26Z</time>
      </trkpt>
      <trkpt lat="46.44324" lon="-1.47347">
        <ele>24</ele>
        <time>2013-03-01T15:26:29Z</time>
      </trkpt>
      <trkpt lat="46.44321" lon="-1.47347">
        <ele>24</ele>
        <time>2013-03-01T15:26:32Z</time>
      </trkpt>
      <trkpt lat="46.44317" lon="-1.47345">
        <ele>24.6</ele>
        <time>2013-03-01T15:26:37Z</time>
      </trkpt>
      <trkpt lat="46.44316" lon="-1.47345">
        <ele>24.6</ele>
        <time>2013-03-01T15:26:38Z</time>
      </trkpt>
      <trkpt lat="46.4431" lon="-1.47346">
        <ele>24.7</ele>
        <time>2013-03-01T15:26:43Z</time>
      </trkpt>
      <trkpt lat="46.44306" lon="-1.47347">
        <ele>25.2</ele>
        <time>2013-03-01T15:26:47Z</time>
      </trkpt>
      <trkpt lat="46.44302" lon="-1.47347">
        <ele>25.3</ele>
        <time>2013-03-01T15:26:50Z</time>
      </trkpt>
      <trkpt lat="46.44299" lon="-1.47345">
        <ele>25.3</ele>
        <time>2013-03-01T15:26:54Z</time>
      </trkpt>
      <trkpt lat="46.44299" lon="-1.47345">
        <ele>25.3</ele>
        <time>2013-03-01T15:26:54Z</time>
      </trkpt>
      <trkpt lat="46.44297" lon="-1.47339">
        <ele>26.2</ele>
        <time>2013-03-01T15:26:59Z</time>
      </trkpt>
      <trkpt lat="46.44299" lon="-1.47334">
        <ele>26.3</ele>
        <time>2013-03-01T15:27:03Z</time>
      </trkpt>
      <trkpt lat="46.44301" lon="-1.47329">
        <ele>25.7</ele>
        <time>2013-03-01T15:27:07Z</time>
      </trkpt>
      <trkpt lat="46.44303" lon="-1.47323">
        <ele>25.7</ele>
        <time>2013-03-01T15:27:11Z</time>
      </trkpt>
      <trkpt lat="46.44305" lon="-1.47318">
        <ele>25.7</ele>
        <time>2013-03-01T15:27:15Z</time>
      </trkpt>
      <trkpt lat="46.44307" lon="-1.47313">
        <ele>26.5</ele>
        <time>2013-03-01T15:27:18Z</time>
      </trkpt>
      <trkpt lat="46.44308" lon="-1.47309">
        <ele>26</ele>
        <time>2013-03-01T15:27:21Z</time>
      </trkpt>
      <trkpt lat="46.4431" lon="-1.47304">
        <ele>26.5</ele>
        <time>2013-03-01T15:27:24Z</time>
      </trkpt>
      <trkpt lat="46.44312" lon="-1.47299">
        <ele>26.8</ele>
        <time>2013-03-01T15:27:27Z</time>
      </trkpt>
      <trkpt lat="46.44313" lon="-1.47294">
        <ele>27.5</ele>
        <time>2013-03-01T15:27:30Z</time>
      </trkpt>
      <trkpt lat="46.44315" lon="-1.47289">
        <ele>26.9</ele>
        <time>2013-03-01T15:27:34Z</time>
      </trkpt>
      <trkpt lat="46.44317" lon="-1.47284">
        <ele>26.5</ele>
        <time>2013-03-01T15:27:37Z</time>
      </trkpt>
      <trkpt lat="46.44319" lon="-1.47279">
        <ele>26.4</ele>
        <time>2013-03-01T15:27:40Z</time>
      </trkpt>
      <trkpt lat="46.44319" lon="-1.47278">
        <ele>26.6</ele>
        <time>2013-03-01T15:27:41Z</time>
      </trkpt>
      <trkpt lat="46.44321" lon="-1.4727">
        <ele>27.5</ele>
        <time>2013-03-01T15:27:46Z</time>
      </trkpt>
      <trkpt lat="46.44323" lon="-1.47266">
        <ele>27.3</ele>
        <time>2013-03-01T15:27:49Z</time>
      </trkpt>
      <trkpt lat="46.44325" lon="-1.47261">
        <ele>27.3</ele>
        <time>2013-03-01T15:27:52Z</time>
      </trkpt>
      <trkpt lat="46.44326" lon="-1.47256">
        <ele>27.7</ele>
        <time>2013-03-01T15:27:55Z</time>
      </trkpt>
      <trkpt lat="46.44328" lon="-1.47251">
        <ele>27.3</ele>
        <time>2013-03-01T15:27:58Z</time>
      </trkpt>
      <trkpt lat="46.4433" lon="-1.47246">
        <ele>27.2</ele>
        <time>2013-03-01T15:28:01Z</time>
      </trkpt>
      <trkpt lat="46.44331" lon="-1.47242">
        <ele>27.1</ele>
        <time>2013-03-01T15:28:04Z</time>
      </trkpt>
      <trkpt lat="46.44333" lon="-1.47236">
        <ele>27.4</ele>
        <time>2013-03-01T15:28:07Z</time>
      </trkpt>
      <trkpt lat="46.44334" lon="-1.47231">
        <ele>27.6</ele>
        <time>2013-03-01T15:28:10Z</time>
      </trkpt>
      <trkpt lat="46.44335" lon="-1.47226">
        <ele>27</ele>
        <time>2013-03-01T15:28:13Z</time>
      </trkpt>
      <trkpt lat="46.44336" lon="-1.47221">
        <ele>27.1</ele>
        <time>2013-03-01T15:28:16Z</time>
      </trkpt>
      <trkpt lat="46.44338" lon="-1.47216">
        <ele>27.1</ele>
        <time>2013-03-01T15:28:19Z</time>
      </trkpt>
      <trkpt lat="46.44339" lon="-1.4721">
        <ele>26.7</ele>
        <time>2013-03-01T15:28:23Z</time>
      </trkpt>
      <trkpt lat="46.4434" lon="-1.47204">
        <ele>26.9</ele>
        <time>2013-03-01T15:28:27Z</time>
      </trkpt>
      <trkpt lat="46.44341" lon="-1.47199">
        <ele>27.4</ele>
        <time>2013-03-01T15:28:30Z</time>
      </trkpt>
      <trkpt lat="46.44342" lon="-1.47193">
        <ele>28.3</ele>
        <time>2013-03-01T15:28:33Z</time>
      </trkpt>
      <trkpt lat="46.44342" lon="-1.47188">
        <ele>27.8</ele>
        <time>2013-03-01T15:28:36Z</time>
      </trkpt>
      <trkpt lat="46.44343" lon="-1.47182">
        <ele>27.4</ele>
        <time>2013-03-01T15:28:39Z</time>
      </trkpt>
      <trkpt lat="46.44344" lon="-1.47177">
        <ele>27.5</ele>
        <time>2013-03-01T15:28:42Z</time>
      </trkpt>
      <trkpt lat="46.44344" lon="-1.47175">
        <ele>27.4</ele>
        <time>2013-03-01T15:28:43Z</time>
      </trkpt>
      <trkpt lat="46.44346" lon="-1.47165">
        <ele>27.4</ele>
        <time>2013-03-01T15:28:48Z</time>
      </trkpt>
      <trkpt lat="46.44347" lon="-1.4716">
        <ele>26.6</ele>
        <time>2013-03-01T15:28:51Z</time>
      </trkpt>
      <trkpt lat="46.44348" lon="-1.47154">
        <ele>26.4</ele>
        <time>2013-03-01T15:28:54Z</time>
      </trkpt>
      <trkpt lat="46.44349" lon="-1.47149">
        <ele>26.2</ele>
        <time>2013-03-01T15:28:57Z</time>
      </trkpt>
      <trkpt lat="46.4435" lon="-1.47144">
        <ele>27.2</ele>
        <time>2013-03-01T15:29:00Z</time>
      </trkpt>
      <trkpt lat="46.44351" lon="-1.47139">
        <ele>27.5</ele>
        <time>2013-03-01T15:29:03Z</time>
      </trkpt>
      <trkpt lat="46.44352" lon="-1.47133">
        <ele>28.3</ele>
        <time>2013-03-01T15:29:06Z</time>
      </trkpt>
      <trkpt lat="46.44354" lon="-1.47127">
        <ele>27.5</ele>
        <time>2013-03-01T15:29:09Z</time>
      </trkpt>
      <trkpt lat="46.44355" lon="-1.47123">
        <ele>27.7</ele>
        <time>2013-03-01T15:29:12Z</time>
      </trkpt>
      <trkpt lat="46.44357" lon="-1.47118">
        <ele>27.5</ele>
        <time>2013-03-01T15:29:15Z</time>
      </trkpt>
      <trkpt lat="46.44358" lon="-1.47113">
        <ele>27.4</ele>
        <time>2013-03-01T15:29:18Z</time>
      </trkpt>
      <trkpt lat="46.44359" lon="-1.47108">
        <ele>27.6</ele>
        <time>2013-03-01T15:29:21Z</time>
      </trkpt>
      <trkpt lat="46.4436" lon="-1.47102">
        <ele>27.1</ele>
        <time>2013-03-01T15:29:24Z</time>
      </trkpt>
      <trkpt lat="46.44361" lon="-1.47097">
        <ele>27.3</ele>
        <time>2013-03-01T15:29:27Z</time>
      </trkpt>
      <trkpt lat="46.44362" lon="-1.47092">
        <ele>27.1</ele>
        <time>2013-03-01T15:29:30Z</time>
      </trkpt>
      <trkpt lat="46.44363" lon="-1.47086">
        <ele>28</ele>
        <time>2013-03-01T15:29:33Z</time>
      </trkpt>
      <trkpt lat="46.44363" lon="-1.47081">
        <ele>28.2</ele>
        <time>2013-03-01T15:29:36Z</time>
      </trkpt>
      <trkpt lat="46.44364" lon="-1.47076">
        <ele>27.9</ele>
        <time>2013-03-01T15:29:39Z</time>
      </trkpt>
      <trkpt lat="46.44364" lon="-1.47071">
        <ele>28</ele>
        <time>2013-03-01T15:29:42Z</time>
      </trkpt>
      <trkpt lat="46.44365" lon="-1.47065">
        <ele>28.4</ele>
        <time>2013-03-01T15:29:45Z</time>
      </trkpt>
      <trkpt lat="46.44365" lon="-1.47064">
        <ele>28.4</ele>
        <time>2013-03-01T15:29:46Z</time>
      </trkpt>
      <trkpt lat="46.44366" lon="-1.47054">
        <ele>28.7</ele>
        <time>2013-03-01T15:29:52Z</time>
      </trkpt>
      <trkpt lat="46.44366" lon="-1.47049">
        <ele>26.4</ele>
        <time>2013-03-01T15:29:55Z</time>
      </trkpt>
      <trkpt lat="46.44367" lon="-1.47044">
        <ele>27.3</ele>
        <time>2013-03-01T15:29:58Z</time>
      </trkpt>
      <trkpt lat="46.44368" lon="-1.47039">
        <ele>27.9</ele>
        <time>2013-03-01T15:30:01Z</time>
      </trkpt>
      <trkpt lat="46.44369" lon="-1.47033">
        <ele>28.1</ele>
        <time>2013-03-01T15:30:04Z</time>
      </trkpt>
      <trkpt lat="46.44369" lon="-1.47027">
        <ele>28.1</ele>
        <time>2013-03-01T15:30:08Z</time>
      </trkpt>
      <trkpt lat="46.4437" lon="-1.47021">
        <ele>29.1</ele>
        <time>2013-03-01T15:30:12Z</time>
      </trkpt>
      <trkpt lat="46.4437" lon="-1.47016">
        <ele>30.2</ele>
        <time>2013-03-01T15:30:15Z</time>
      </trkpt>
      <trkpt lat="46.44371" lon="-1.4701">
        <ele>28</ele>
        <time>2013-03-01T15:30:18Z</time>
      </trkpt>
      <trkpt lat="46.44372" lon="-1.47005">
        <ele>28.4</ele>
        <time>2013-03-01T15:30:21Z</time>
      </trkpt>
      <trkpt lat="46.44372" lon="-1.47">
        <ele>29.6</ele>
        <time>2013-03-01T15:30:24Z</time>
      </trkpt>
      <trkpt lat="46.44373" lon="-1.46995">
        <ele>30.3</ele>
        <time>2013-03-01T15:30:27Z</time>
      </trkpt>
      <trkpt lat="46.44374" lon="-1.46989">
        <ele>32.3</ele>
        <time>2013-03-01T15:30:30Z</time>
      </trkpt>
      <trkpt lat="46.44375" lon="-1.46984">
        <ele>32.3</ele>
        <time>2013-03-01T15:30:33Z</time>
      </trkpt>
      <trkpt lat="46.44375" lon="-1.46979">
        <ele>31.7</ele>
        <time>2013-03-01T15:30:36Z</time>
      </trkpt>
      <trkpt lat="46.44376" lon="-1.46974">
        <ele>32.7</ele>
        <time>2013-03-01T15:30:39Z</time>
      </trkpt>
      <trkpt lat="46.44377" lon="-1.46968">
        <ele>30.3</ele>
        <time>2013-03-01T15:30:42Z</time>
      </trkpt>
      <trkpt lat="46.44378" lon="-1.46963">
        <ele>29.1</ele>
        <time>2013-03-01T15:30:45Z</time>
      </trkpt>
      <trkpt lat="46.44378" lon="-1.46958">
        <ele>30.8</ele>
        <time>2013-03-01T15:30:48Z</time>
      </trkpt>
      <trkpt lat="46.44379" lon="-1.46956">
        <ele>31.4</ele>
        <time>2013-03-01T15:30:49Z</time>
      </trkpt>
      <trkpt lat="46.4438" lon="-1.46947">
        <ele>29.1</ele>
        <time>2013-03-01T15:30:54Z</time>
      </trkpt>
      <trkpt lat="46.44381" lon="-1.46941">
        <ele>30.3</ele>
        <time>2013-03-01T15:30:57Z</time>
      </trkpt>
      <trkpt lat="46.44382" lon="-1.46936">
        <ele>29.7</ele>
        <time>2013-03-01T15:31:00Z</time>
      </trkpt>
      <trkpt lat="46.44382" lon="-1.46931">
        <ele>30.1</ele>
        <time>2013-03-01T15:31:03Z</time>
      </trkpt>
      <trkpt lat="46.44383" lon="-1.46925">
        <ele>30.2</ele>
        <time>2013-03-01T15:31:06Z</time>
      </trkpt>
      <trkpt lat="46.44384" lon="-1.4692">
        <ele>30.4</ele>
        <time>2013-03-01T15:31:09Z</time>
      </trkpt>
      <trkpt lat="46.44385" lon="-1.46915">
        <ele>30.7</ele>
        <time>2013-03-01T15:31:12Z</time>
      </trkpt>
      <trkpt lat="46.44385" lon="-1.4691">
        <ele>30.1</ele>
        <time>2013-03-01T15:31:15Z</time>
      </trkpt>
      <trkpt lat="46.44386" lon="-1.46905">
        <ele>29.3</ele>
        <time>2013-03-01T15:31:18Z</time>
      </trkpt>
      <trkpt lat="46.44386" lon="-1.469">
        <ele>29.6</ele>
        <time>2013-03-01T15:31:21Z</time>
      </trkpt>
      <trkpt lat="46.44387" lon="-1.46893">
        <ele>30.2</ele>
        <time>2013-03-01T15:31:24Z</time>
      </trkpt>
      <trkpt lat="46.44387" lon="-1.46888">
        <ele>29.9</ele>
        <time>2013-03-01T15:31:27Z</time>
      </trkpt>
      <trkpt lat="46.44388" lon="-1.46883">
        <ele>30.2</ele>
        <time>2013-03-01T15:31:30Z</time>
      </trkpt>
      <trkpt lat="46.44389" lon="-1.46877">
        <ele>30.3</ele>
        <time>2013-03-01T15:31:33Z</time>
      </trkpt>
      <trkpt lat="46.44389" lon="-1.46871">
        <ele>30.2</ele>
        <time>2013-03-01T15:31:36Z</time>
      </trkpt>
      <trkpt lat="46.44389" lon="-1.46865">
        <ele>30.1</ele>
        <time>2013-03-01T15:31:39Z</time>
      </trkpt>
      <trkpt lat="46.44389" lon="-1.4686">
        <ele>29.6</ele>
        <time>2013-03-01T15:31:42Z</time>
      </trkpt>
      <trkpt lat="46.44389" lon="-1.46854">
        <ele>29.9</ele>
        <time>2013-03-01T15:31:45Z</time>
      </trkpt>
      <trkpt lat="46.44389" lon="-1.46849">
        <ele>30</ele>
        <time>2013-03-01T15:31:48Z</time>
      </trkpt>
      <trkpt lat="46.44389" lon="-1.46844">
        <ele>29.9</ele>
        <time>2013-03-01T15:31:51Z</time>
      </trkpt>
      <trkpt lat="46.4439" lon="-1.46842">
        <ele>30</ele>
        <time>2013-03-01T15:31:52Z</time>
      </trkpt>
      <trkpt lat="46.4439" lon="-1.46832">
        <ele>30.7</ele>
        <time>2013-03-01T15:31:58Z</time>
      </trkpt>
      <trkpt lat="46.4439" lon="-1.46827">
        <ele>29.7</ele>
        <time>2013-03-01T15:32:01Z</time>
      </trkpt>
      <trkpt lat="46.4439" lon="-1.46822">
        <ele>30</ele>
        <time>2013-03-01T15:32:04Z</time>
      </trkpt>
      <trkpt lat="46.4439" lon="-1.46816">
        <ele>30.2</ele>
        <time>2013-03-01T15:32:07Z</time>
      </trkpt>
      <trkpt lat="46.4439" lon="-1.46811">
        <ele>30.4</ele>
        <time>2013-03-01T15:32:10Z</time>
      </trkpt>
      <trkpt lat="46.4439" lon="-1.46805">
        <ele>30.2</ele>
        <time>2013-03-01T15:32:14Z</time>
      </trkpt>
      <trkpt lat="46.4439" lon="-1.46799">
        <ele>30.1</ele>
        <time>2013-03-01T15:32:17Z</time>
      </trkpt>
      <trkpt lat="46.4439" lon="-1.46793">
        <ele>30</ele>
        <time>2013-03-01T15:32:21Z</time>
      </trkpt>
      <trkpt lat="46.4439" lon="-1.46787">
        <ele>30.7</ele>
        <time>2013-03-01T15:32:24Z</time>
      </trkpt>
      <trkpt lat="46.44391" lon="-1.46782">
        <ele>31.1</ele>
        <time>2013-03-01T15:32:27Z</time>
      </trkpt>
      <trkpt lat="46.44393" lon="-1.46778">
        <ele>30.6</ele>
        <time>2013-03-01T15:32:30Z</time>
      </trkpt>
      <trkpt lat="46.44397" lon="-1.46774">
        <ele>30.7</ele>
        <time>2013-03-01T15:32:34Z</time>
      </trkpt>
      <trkpt lat="46.44399" lon="-1.46772">
        <ele>30.2</ele>
        <time>2013-03-01T15:32:37Z</time>
      </trkpt>
      <trkpt lat="46.44403" lon="-1.4677">
        <ele>29.8</ele>
        <time>2013-03-01T15:32:40Z</time>
      </trkpt>
    </trkseg>
  </trk>
</gpx>